<?xml version="1.0" encoding="UTF-8" standalone="no" ?>
<gpx xmlns="http://www.topografix.com/GPX/1/1" xmlns:xsi="http://www.w3.org/2001/XMLSchema-instance" xsi:schemaLocation="http://www.topografix.com/GPX/1/1 http://www.topografix.com/GPX/1/1/gpx.xsd" version="1.1" creator="VisuGPX - https://www.visugpx.com">
  <metadata>
    <name>Entre Gatinais et Fontainebleau</name>
    <desc><![CDATA[Petits villages de l'Essonne, château de Courances à Milly la Forêt. Retour par le réseaux d'eau aqueduc Parisien.]]></desc>
  </metadata>
  <trk>
    <name><![CDATA[23-OCT-21 05:15:11 PM]]></name>
    <extensions>
      <line xmlns="http://www.topografix.com/GPX/gpx_style/0/2">
        <color>0000FF</color>
        <width>4</width>
      </line>
    </extensions>
    <trkseg>
      <trkpt lat="48.45384" lon="2.48061">
        <ele>-70.04</ele>
        <time>2021-10-23T07:21:26Z</time>
      </trkpt>
      <trkpt lat="48.45386" lon="2.48059">
        <ele>-66.19</ele>
        <time>2021-10-23T07:21:33Z</time>
      </trkpt>
      <trkpt lat="48.45386" lon="2.48059">
        <ele>-62.83</ele>
        <time>2021-10-23T07:21:34Z</time>
      </trkpt>
      <trkpt lat="48.45386" lon="2.48058">
        <ele>-58.98</ele>
        <time>2021-10-23T07:21:35Z</time>
      </trkpt>
      <trkpt lat="48.45386" lon="2.48058">
        <ele>-54.18</ele>
        <time>2021-10-23T07:21:36Z</time>
      </trkpt>
      <trkpt lat="48.45386" lon="2.48058">
        <ele>-51.29</ele>
        <time>2021-10-23T07:21:37Z</time>
      </trkpt>
      <trkpt lat="48.45386" lon="2.48058">
        <ele>-47.93</ele>
        <time>2021-10-23T07:21:38Z</time>
      </trkpt>
      <trkpt lat="48.45386" lon="2.48057">
        <ele>-47.93</ele>
        <time>2021-10-23T07:21:40Z</time>
      </trkpt>
      <trkpt lat="48.45386" lon="2.48057">
        <ele>-37.83</ele>
        <time>2021-10-23T07:21:41Z</time>
      </trkpt>
      <trkpt lat="48.45386" lon="2.48056">
        <ele>-37.83</ele>
        <time>2021-10-23T07:21:42Z</time>
      </trkpt>
      <trkpt lat="48.45386" lon="2.48056">
        <ele>-32.07</ele>
        <time>2021-10-23T07:21:43Z</time>
      </trkpt>
      <trkpt lat="48.45386" lon="2.48056">
        <ele>-26.3</ele>
        <time>2021-10-23T07:21:45Z</time>
      </trkpt>
      <trkpt lat="48.45386" lon="2.48055">
        <ele>-21.49</ele>
        <time>2021-10-23T07:21:47Z</time>
      </trkpt>
      <trkpt lat="48.45386" lon="2.48055">
        <ele>-16.69</ele>
        <time>2021-10-23T07:21:49Z</time>
      </trkpt>
      <trkpt lat="48.45387" lon="2.48055">
        <ele>-13.32</ele>
        <time>2021-10-23T07:21:50Z</time>
      </trkpt>
      <trkpt lat="48.45387" lon="2.48055">
        <ele>-8.51</ele>
        <time>2021-10-23T07:21:52Z</time>
      </trkpt>
      <trkpt lat="48.45386" lon="2.48055">
        <ele>-4.67</ele>
        <time>2021-10-23T07:21:54Z</time>
      </trkpt>
      <trkpt lat="48.45386" lon="2.48055">
        <ele>-1.3</ele>
        <time>2021-10-23T07:21:56Z</time>
      </trkpt>
      <trkpt lat="48.45386" lon="2.48055">
        <ele>2.06</ele>
        <time>2021-10-23T07:21:58Z</time>
      </trkpt>
      <trkpt lat="48.45387" lon="2.48055">
        <ele>8.31</ele>
        <time>2021-10-23T07:22:01Z</time>
      </trkpt>
      <trkpt lat="48.45386" lon="2.48055">
        <ele>12.63</ele>
        <time>2021-10-23T07:22:04Z</time>
      </trkpt>
      <trkpt lat="48.45387" lon="2.48055">
        <ele>15.52</ele>
        <time>2021-10-23T07:22:07Z</time>
      </trkpt>
      <trkpt lat="48.45387" lon="2.48056">
        <ele>19.36</ele>
        <time>2021-10-23T07:22:09Z</time>
      </trkpt>
      <trkpt lat="48.45387" lon="2.48056">
        <ele>22.25</ele>
        <time>2021-10-23T07:22:12Z</time>
      </trkpt>
      <trkpt lat="48.45387" lon="2.48057">
        <ele>25.61</ele>
        <time>2021-10-23T07:22:15Z</time>
      </trkpt>
      <trkpt lat="48.45387" lon="2.48057">
        <ele>28.5</ele>
        <time>2021-10-23T07:22:18Z</time>
      </trkpt>
      <trkpt lat="48.45387" lon="2.48058">
        <ele>31.86</ele>
        <time>2021-10-23T07:22:22Z</time>
      </trkpt>
      <trkpt lat="48.45386" lon="2.48059">
        <ele>33.78</ele>
        <time>2021-10-23T07:22:25Z</time>
      </trkpt>
      <trkpt lat="48.45386" lon="2.4806">
        <ele>36.19</ele>
        <time>2021-10-23T07:22:27Z</time>
      </trkpt>
      <trkpt lat="48.45386" lon="2.48063">
        <ele>39.55</ele>
        <time>2021-10-23T07:22:33Z</time>
      </trkpt>
      <trkpt lat="48.45386" lon="2.48061">
        <ele>42.92</ele>
        <time>2021-10-23T07:22:38Z</time>
      </trkpt>
      <trkpt lat="48.45387" lon="2.48061">
        <ele>45.8</ele>
        <time>2021-10-23T07:22:52Z</time>
      </trkpt>
      <trkpt lat="48.45388" lon="2.48057">
        <ele>49.16</ele>
        <time>2021-10-23T07:23:04Z</time>
      </trkpt>
      <trkpt lat="48.4539" lon="2.48054">
        <ele>52.53</ele>
        <time>2021-10-23T07:23:20Z</time>
      </trkpt>
      <trkpt lat="48.45391" lon="2.48052">
        <ele>55.89</ele>
        <time>2021-10-23T07:23:35Z</time>
      </trkpt>
      <trkpt lat="48.45391" lon="2.48049">
        <ele>55.89</ele>
        <time>2021-10-23T07:24:04Z</time>
      </trkpt>
      <trkpt lat="48.4539" lon="2.48047">
        <ele>55.89</ele>
        <time>2021-10-23T07:24:40Z</time>
      </trkpt>
      <trkpt lat="48.45389" lon="2.48051">
        <ele>52.53</ele>
        <time>2021-10-23T07:24:58Z</time>
      </trkpt>
      <trkpt lat="48.45389" lon="2.48047">
        <ele>53.49</ele>
        <time>2021-10-23T07:33:02Z</time>
      </trkpt>
      <trkpt lat="48.4539" lon="2.48048">
        <ele>53.97</ele>
        <time>2021-10-23T07:33:04Z</time>
      </trkpt>
      <trkpt lat="48.45386" lon="2.48053">
        <ele>52.53</ele>
        <time>2021-10-23T07:33:18Z</time>
      </trkpt>
      <trkpt lat="48.45386" lon="2.48054">
        <ele>52.53</ele>
        <time>2021-10-23T07:33:37Z</time>
      </trkpt>
      <trkpt lat="48.45386" lon="2.48055">
        <ele>52.53</ele>
        <time>2021-10-23T07:33:54Z</time>
      </trkpt>
      <trkpt lat="48.45387" lon="2.48054">
        <ele>53.01</ele>
        <time>2021-10-23T07:34:15Z</time>
      </trkpt>
      <trkpt lat="48.4538" lon="2.48041">
        <ele>53.01</ele>
        <time>2021-10-23T07:34:33Z</time>
      </trkpt>
      <trkpt lat="48.45379" lon="2.48039">
        <ele>53.01</ele>
        <time>2021-10-23T07:34:35Z</time>
      </trkpt>
      <trkpt lat="48.45377" lon="2.48035">
        <ele>53.01</ele>
        <time>2021-10-23T07:34:47Z</time>
      </trkpt>
      <trkpt lat="48.4537" lon="2.48034">
        <ele>53.01</ele>
        <time>2021-10-23T07:35:02Z</time>
      </trkpt>
      <trkpt lat="48.45366" lon="2.48025">
        <ele>53.49</ele>
        <time>2021-10-23T07:35:12Z</time>
      </trkpt>
      <trkpt lat="48.45351" lon="2.48002">
        <ele>53.01</ele>
        <time>2021-10-23T07:35:29Z</time>
      </trkpt>
      <trkpt lat="48.45337" lon="2.4798">
        <ele>53.01</ele>
        <time>2021-10-23T07:35:46Z</time>
      </trkpt>
      <trkpt lat="48.4533" lon="2.47974">
        <ele>53.01</ele>
        <time>2021-10-23T07:36:02Z</time>
      </trkpt>
      <trkpt lat="48.45319" lon="2.47957">
        <ele>53.01</ele>
        <time>2021-10-23T07:36:16Z</time>
      </trkpt>
      <trkpt lat="48.45311" lon="2.47949">
        <ele>53.97</ele>
        <time>2021-10-23T07:36:30Z</time>
      </trkpt>
      <trkpt lat="48.45296" lon="2.47931">
        <ele>53.01</ele>
        <time>2021-10-23T07:36:47Z</time>
      </trkpt>
      <trkpt lat="48.45281" lon="2.47914">
        <ele>53.49</ele>
        <time>2021-10-23T07:37:04Z</time>
      </trkpt>
      <trkpt lat="48.45263" lon="2.47893">
        <ele>53.97</ele>
        <time>2021-10-23T07:37:23Z</time>
      </trkpt>
      <trkpt lat="48.45261" lon="2.47859">
        <ele>53.49</ele>
        <time>2021-10-23T07:37:40Z</time>
      </trkpt>
      <trkpt lat="48.45263" lon="2.47846">
        <ele>53.97</ele>
        <time>2021-10-23T07:37:47Z</time>
      </trkpt>
      <trkpt lat="48.45271" lon="2.47823">
        <ele>53.97</ele>
        <time>2021-10-23T07:38:03Z</time>
      </trkpt>
      <trkpt lat="48.45275" lon="2.47814">
        <ele>53.97</ele>
        <time>2021-10-23T07:38:10Z</time>
      </trkpt>
      <trkpt lat="48.4529" lon="2.47792">
        <ele>53.01</ele>
        <time>2021-10-23T07:38:28Z</time>
      </trkpt>
      <trkpt lat="48.4529" lon="2.47789">
        <ele>53.49</ele>
        <time>2021-10-23T07:38:30Z</time>
      </trkpt>
      <trkpt lat="48.453" lon="2.47771">
        <ele>53.97</ele>
        <time>2021-10-23T07:38:46Z</time>
      </trkpt>
      <trkpt lat="48.45303" lon="2.47774">
        <ele>53.97</ele>
        <time>2021-10-23T07:39:04Z</time>
      </trkpt>
      <trkpt lat="48.45296" lon="2.47765">
        <ele>53.97</ele>
        <time>2021-10-23T07:39:18Z</time>
      </trkpt>
      <trkpt lat="48.45287" lon="2.47762">
        <ele>53.49</ele>
        <time>2021-10-23T07:39:34Z</time>
      </trkpt>
      <trkpt lat="48.4528" lon="2.47756">
        <ele>53.49</ele>
        <time>2021-10-23T07:39:42Z</time>
      </trkpt>
      <trkpt lat="48.45263" lon="2.47746">
        <ele>53.97</ele>
        <time>2021-10-23T07:40:01Z</time>
      </trkpt>
      <trkpt lat="48.45264" lon="2.4772">
        <ele>53.97</ele>
        <time>2021-10-23T07:40:17Z</time>
      </trkpt>
      <trkpt lat="48.45267" lon="2.47705">
        <ele>53.97</ele>
        <time>2021-10-23T07:40:36Z</time>
      </trkpt>
      <trkpt lat="48.45269" lon="2.47699">
        <ele>54.45</ele>
        <time>2021-10-23T07:40:40Z</time>
      </trkpt>
      <trkpt lat="48.4527" lon="2.47669">
        <ele>54.45</ele>
        <time>2021-10-23T07:40:56Z</time>
      </trkpt>
      <trkpt lat="48.45262" lon="2.47638">
        <ele>54.93</ele>
        <time>2021-10-23T07:41:15Z</time>
      </trkpt>
      <trkpt lat="48.45269" lon="2.47605">
        <ele>55.89</ele>
        <time>2021-10-23T07:41:35Z</time>
      </trkpt>
      <trkpt lat="48.45275" lon="2.47577">
        <ele>56.37</ele>
        <time>2021-10-23T07:41:51Z</time>
      </trkpt>
      <trkpt lat="48.45284" lon="2.47551">
        <ele>57.34</ele>
        <time>2021-10-23T07:42:08Z</time>
      </trkpt>
      <trkpt lat="48.45291" lon="2.47545">
        <ele>57.82</ele>
        <time>2021-10-23T07:42:26Z</time>
      </trkpt>
      <trkpt lat="48.45301" lon="2.47523">
        <ele>58.3</ele>
        <time>2021-10-23T07:42:49Z</time>
      </trkpt>
      <trkpt lat="48.45311" lon="2.47494">
        <ele>59.74</ele>
        <time>2021-10-23T07:43:07Z</time>
      </trkpt>
      <trkpt lat="48.45319" lon="2.47468">
        <ele>61.18</ele>
        <time>2021-10-23T07:43:23Z</time>
      </trkpt>
      <trkpt lat="48.45324" lon="2.4744">
        <ele>61.66</ele>
        <time>2021-10-23T07:43:39Z</time>
      </trkpt>
      <trkpt lat="48.45327" lon="2.47422">
        <ele>63.58</ele>
        <time>2021-10-23T07:43:57Z</time>
      </trkpt>
      <trkpt lat="48.45321" lon="2.47407">
        <ele>65.03</ele>
        <time>2021-10-23T07:44:13Z</time>
      </trkpt>
      <trkpt lat="48.45326" lon="2.47388">
        <ele>65.51</ele>
        <time>2021-10-23T07:44:26Z</time>
      </trkpt>
      <trkpt lat="48.45326" lon="2.47374">
        <ele>66.47</ele>
        <time>2021-10-23T07:44:38Z</time>
      </trkpt>
      <trkpt lat="48.45317" lon="2.47367">
        <ele>65.99</ele>
        <time>2021-10-23T07:44:54Z</time>
      </trkpt>
      <trkpt lat="48.45317" lon="2.47368">
        <ele>65.99</ele>
        <time>2021-10-23T07:45:13Z</time>
      </trkpt>
      <trkpt lat="48.45317" lon="2.47367">
        <ele>66.47</ele>
        <time>2021-10-23T07:45:46Z</time>
      </trkpt>
      <trkpt lat="48.45319" lon="2.47369">
        <ele>65.99</ele>
        <time>2021-10-23T07:46:04Z</time>
      </trkpt>
      <trkpt lat="48.4532" lon="2.47373">
        <ele>65.99</ele>
        <time>2021-10-23T07:46:21Z</time>
      </trkpt>
      <trkpt lat="48.45312" lon="2.47397">
        <ele>64.55</ele>
        <time>2021-10-23T07:46:41Z</time>
      </trkpt>
      <trkpt lat="48.45313" lon="2.47411">
        <ele>64.07</ele>
        <time>2021-10-23T07:47:01Z</time>
      </trkpt>
      <trkpt lat="48.45311" lon="2.47413">
        <ele>65.03</ele>
        <time>2021-10-23T07:47:14Z</time>
      </trkpt>
      <trkpt lat="48.45311" lon="2.47413">
        <ele>63.58</ele>
        <time>2021-10-23T07:47:20Z</time>
      </trkpt>
      <trkpt lat="48.45316" lon="2.47413">
        <ele>63.1</ele>
        <time>2021-10-23T07:47:35Z</time>
      </trkpt>
      <trkpt lat="48.45324" lon="2.47419">
        <ele>63.1</ele>
        <time>2021-10-23T07:47:50Z</time>
      </trkpt>
      <trkpt lat="48.45328" lon="2.47425">
        <ele>62.62</ele>
        <time>2021-10-23T07:48:06Z</time>
      </trkpt>
      <trkpt lat="48.45331" lon="2.47423">
        <ele>62.14</ele>
        <time>2021-10-23T07:48:29Z</time>
      </trkpt>
      <trkpt lat="48.45326" lon="2.47435">
        <ele>62.14</ele>
        <time>2021-10-23T07:48:51Z</time>
      </trkpt>
      <trkpt lat="48.45321" lon="2.47453">
        <ele>61.66</ele>
        <time>2021-10-23T07:49:02Z</time>
      </trkpt>
      <trkpt lat="48.45313" lon="2.47492">
        <ele>59.74</ele>
        <time>2021-10-23T07:49:25Z</time>
      </trkpt>
      <trkpt lat="48.45298" lon="2.4753">
        <ele>57.82</ele>
        <time>2021-10-23T07:49:48Z</time>
      </trkpt>
      <trkpt lat="48.45285" lon="2.4755">
        <ele>56.86</ele>
        <time>2021-10-23T07:50:04Z</time>
      </trkpt>
      <trkpt lat="48.45272" lon="2.47581">
        <ele>55.41</ele>
        <time>2021-10-23T07:50:22Z</time>
      </trkpt>
      <trkpt lat="48.45262" lon="2.47619">
        <ele>55.41</ele>
        <time>2021-10-23T07:50:43Z</time>
      </trkpt>
      <trkpt lat="48.45251" lon="2.47629">
        <ele>54.45</ele>
        <time>2021-10-23T07:50:56Z</time>
      </trkpt>
      <trkpt lat="48.45226" lon="2.47641">
        <ele>54.45</ele>
        <time>2021-10-23T07:51:14Z</time>
      </trkpt>
      <trkpt lat="48.45222" lon="2.47645">
        <ele>54.45</ele>
        <time>2021-10-23T07:51:19Z</time>
      </trkpt>
      <trkpt lat="48.45202" lon="2.4767">
        <ele>53.97</ele>
        <time>2021-10-23T07:51:36Z</time>
      </trkpt>
      <trkpt lat="48.452" lon="2.47675">
        <ele>53.97</ele>
        <time>2021-10-23T07:51:40Z</time>
      </trkpt>
      <trkpt lat="48.45189" lon="2.477">
        <ele>53.49</ele>
        <time>2021-10-23T07:51:56Z</time>
      </trkpt>
      <trkpt lat="48.45173" lon="2.47728">
        <ele>53.97</ele>
        <time>2021-10-23T07:52:15Z</time>
      </trkpt>
      <trkpt lat="48.45161" lon="2.47747">
        <ele>53.01</ele>
        <time>2021-10-23T07:52:28Z</time>
      </trkpt>
      <trkpt lat="48.45157" lon="2.47752">
        <ele>53.49</ele>
        <time>2021-10-23T07:52:31Z</time>
      </trkpt>
      <trkpt lat="48.45145" lon="2.47765">
        <ele>53.49</ele>
        <time>2021-10-23T07:52:51Z</time>
      </trkpt>
      <trkpt lat="48.45149" lon="2.47772">
        <ele>53.01</ele>
        <time>2021-10-23T07:53:10Z</time>
      </trkpt>
      <trkpt lat="48.45138" lon="2.47757">
        <ele>53.49</ele>
        <time>2021-10-23T07:53:28Z</time>
      </trkpt>
      <trkpt lat="48.45125" lon="2.47749">
        <ele>53.49</ele>
        <time>2021-10-23T07:53:46Z</time>
      </trkpt>
      <trkpt lat="48.45104" lon="2.47711">
        <ele>53.49</ele>
        <time>2021-10-23T07:54:12Z</time>
      </trkpt>
      <trkpt lat="48.45094" lon="2.47695">
        <ele>53.97</ele>
        <time>2021-10-23T07:54:37Z</time>
      </trkpt>
      <trkpt lat="48.45079" lon="2.47689">
        <ele>54.45</ele>
        <time>2021-10-23T07:54:54Z</time>
      </trkpt>
      <trkpt lat="48.45062" lon="2.47689">
        <ele>55.89</ele>
        <time>2021-10-23T07:55:12Z</time>
      </trkpt>
      <trkpt lat="48.45049" lon="2.47684">
        <ele>56.86</ele>
        <time>2021-10-23T07:55:28Z</time>
      </trkpt>
      <trkpt lat="48.45045" lon="2.47686">
        <ele>57.82</ele>
        <time>2021-10-23T07:55:43Z</time>
      </trkpt>
      <trkpt lat="48.45023" lon="2.47682">
        <ele>58.78</ele>
        <time>2021-10-23T07:56:07Z</time>
      </trkpt>
      <trkpt lat="48.44991" lon="2.47647">
        <ele>58.78</ele>
        <time>2021-10-23T07:56:34Z</time>
      </trkpt>
      <trkpt lat="48.4497" lon="2.47617">
        <ele>58.78</ele>
        <time>2021-10-23T07:56:58Z</time>
      </trkpt>
      <trkpt lat="48.44953" lon="2.47599">
        <ele>57.82</ele>
        <time>2021-10-23T07:57:18Z</time>
      </trkpt>
      <trkpt lat="48.44932" lon="2.47583">
        <ele>57.82</ele>
        <time>2021-10-23T07:57:39Z</time>
      </trkpt>
      <trkpt lat="48.44906" lon="2.47581">
        <ele>58.78</ele>
        <time>2021-10-23T07:58:01Z</time>
      </trkpt>
      <trkpt lat="48.44875" lon="2.47577">
        <ele>59.74</ele>
        <time>2021-10-23T07:58:26Z</time>
      </trkpt>
      <trkpt lat="48.44839" lon="2.47573">
        <ele>60.7</ele>
        <time>2021-10-23T07:58:53Z</time>
      </trkpt>
      <trkpt lat="48.44815" lon="2.47567">
        <ele>61.18</ele>
        <time>2021-10-23T07:59:14Z</time>
      </trkpt>
      <trkpt lat="48.44786" lon="2.4756">
        <ele>60.22</ele>
        <time>2021-10-23T07:59:39Z</time>
      </trkpt>
      <trkpt lat="48.44775" lon="2.47561">
        <ele>60.7</ele>
        <time>2021-10-23T07:59:47Z</time>
      </trkpt>
      <trkpt lat="48.44745" lon="2.47562">
        <ele>61.66</ele>
        <time>2021-10-23T08:00:09Z</time>
      </trkpt>
      <trkpt lat="48.44729" lon="2.47592">
        <ele>63.1</ele>
        <time>2021-10-23T08:00:31Z</time>
      </trkpt>
      <trkpt lat="48.44704" lon="2.47621">
        <ele>65.51</ele>
        <time>2021-10-23T08:00:56Z</time>
      </trkpt>
      <trkpt lat="48.44687" lon="2.47654">
        <ele>65.99</ele>
        <time>2021-10-23T08:01:18Z</time>
      </trkpt>
      <trkpt lat="48.44675" lon="2.47668">
        <ele>66.95</ele>
        <time>2021-10-23T08:01:33Z</time>
      </trkpt>
      <trkpt lat="48.44672" lon="2.47677">
        <ele>67.91</ele>
        <time>2021-10-23T08:01:36Z</time>
      </trkpt>
      <trkpt lat="48.44651" lon="2.47671">
        <ele>67.91</ele>
        <time>2021-10-23T08:01:54Z</time>
      </trkpt>
      <trkpt lat="48.44637" lon="2.47669">
        <ele>66.95</ele>
        <time>2021-10-23T08:02:07Z</time>
      </trkpt>
      <trkpt lat="48.44622" lon="2.4766">
        <ele>65.99</ele>
        <time>2021-10-23T08:02:26Z</time>
      </trkpt>
      <trkpt lat="48.44605" lon="2.47631">
        <ele>65.51</ele>
        <time>2021-10-23T08:02:45Z</time>
      </trkpt>
      <trkpt lat="48.44585" lon="2.47601">
        <ele>64.07</ele>
        <time>2021-10-23T08:03:09Z</time>
      </trkpt>
      <trkpt lat="48.44573" lon="2.47583">
        <ele>62.62</ele>
        <time>2021-10-23T08:03:28Z</time>
      </trkpt>
      <trkpt lat="48.44558" lon="2.47559">
        <ele>61.66</ele>
        <time>2021-10-23T08:03:48Z</time>
      </trkpt>
      <trkpt lat="48.44541" lon="2.47532">
        <ele>60.22</ele>
        <time>2021-10-23T08:04:11Z</time>
      </trkpt>
      <trkpt lat="48.44538" lon="2.47525">
        <ele>60.22</ele>
        <time>2021-10-23T08:04:31Z</time>
      </trkpt>
      <trkpt lat="48.4453" lon="2.47505">
        <ele>59.26</ele>
        <time>2021-10-23T08:04:49Z</time>
      </trkpt>
      <trkpt lat="48.44533" lon="2.47505">
        <ele>59.26</ele>
        <time>2021-10-23T08:05:09Z</time>
      </trkpt>
      <trkpt lat="48.44527" lon="2.47497">
        <ele>59.26</ele>
        <time>2021-10-23T08:05:34Z</time>
      </trkpt>
      <trkpt lat="48.44505" lon="2.47485">
        <ele>58.78</ele>
        <time>2021-10-23T08:05:51Z</time>
      </trkpt>
      <trkpt lat="48.445" lon="2.47479">
        <ele>57.82</ele>
        <time>2021-10-23T08:05:58Z</time>
      </trkpt>
      <trkpt lat="48.44487" lon="2.47459">
        <ele>58.3</ele>
        <time>2021-10-23T08:06:14Z</time>
      </trkpt>
      <trkpt lat="48.4447" lon="2.47438">
        <ele>56.86</ele>
        <time>2021-10-23T08:06:35Z</time>
      </trkpt>
      <trkpt lat="48.44461" lon="2.47429">
        <ele>56.37</ele>
        <time>2021-10-23T08:06:54Z</time>
      </trkpt>
      <trkpt lat="48.44445" lon="2.47401">
        <ele>56.37</ele>
        <time>2021-10-23T08:07:13Z</time>
      </trkpt>
      <trkpt lat="48.44429" lon="2.47377">
        <ele>56.86</ele>
        <time>2021-10-23T08:07:31Z</time>
      </trkpt>
      <trkpt lat="48.44412" lon="2.47357">
        <ele>55.89</ele>
        <time>2021-10-23T08:07:50Z</time>
      </trkpt>
      <trkpt lat="48.44392" lon="2.47328">
        <ele>55.89</ele>
        <time>2021-10-23T08:08:11Z</time>
      </trkpt>
      <trkpt lat="48.44378" lon="2.47305">
        <ele>55.41</ele>
        <time>2021-10-23T08:08:31Z</time>
      </trkpt>
      <trkpt lat="48.4437" lon="2.47293">
        <ele>55.89</ele>
        <time>2021-10-23T08:08:51Z</time>
      </trkpt>
      <trkpt lat="48.4436" lon="2.47281">
        <ele>55.89</ele>
        <time>2021-10-23T08:09:09Z</time>
      </trkpt>
      <trkpt lat="48.44347" lon="2.47243">
        <ele>55.41</ele>
        <time>2021-10-23T08:09:30Z</time>
      </trkpt>
      <trkpt lat="48.44349" lon="2.47214">
        <ele>55.41</ele>
        <time>2021-10-23T08:09:48Z</time>
      </trkpt>
      <trkpt lat="48.44354" lon="2.47198">
        <ele>55.41</ele>
        <time>2021-10-23T08:10:08Z</time>
      </trkpt>
      <trkpt lat="48.44349" lon="2.47193">
        <ele>54.93</ele>
        <time>2021-10-23T08:10:29Z</time>
      </trkpt>
      <trkpt lat="48.44356" lon="2.47187">
        <ele>54.93</ele>
        <time>2021-10-23T08:10:38Z</time>
      </trkpt>
      <trkpt lat="48.44373" lon="2.47164">
        <ele>54.93</ele>
        <time>2021-10-23T08:10:58Z</time>
      </trkpt>
      <trkpt lat="48.44391" lon="2.47136">
        <ele>54.93</ele>
        <time>2021-10-23T08:11:18Z</time>
      </trkpt>
      <trkpt lat="48.44405" lon="2.47112">
        <ele>54.45</ele>
        <time>2021-10-23T08:11:37Z</time>
      </trkpt>
      <trkpt lat="48.44419" lon="2.47091">
        <ele>54.93</ele>
        <time>2021-10-23T08:11:56Z</time>
      </trkpt>
      <trkpt lat="48.4443" lon="2.47065">
        <ele>54.93</ele>
        <time>2021-10-23T08:12:16Z</time>
      </trkpt>
      <trkpt lat="48.4443" lon="2.47065">
        <ele>54.93</ele>
        <time>2021-10-23T08:12:45Z</time>
      </trkpt>
      <trkpt lat="48.4443" lon="2.47057">
        <ele>54.93</ele>
        <time>2021-10-23T08:13:15Z</time>
      </trkpt>
      <trkpt lat="48.4444" lon="2.47072">
        <ele>54.45</ele>
        <time>2021-10-23T08:13:38Z</time>
      </trkpt>
      <trkpt lat="48.44438" lon="2.47057">
        <ele>54.93</ele>
        <time>2021-10-23T08:13:52Z</time>
      </trkpt>
      <trkpt lat="48.44439" lon="2.47054">
        <ele>54.93</ele>
        <time>2021-10-23T08:13:54Z</time>
      </trkpt>
      <trkpt lat="48.44453" lon="2.47027">
        <ele>55.41</ele>
        <time>2021-10-23T08:14:14Z</time>
      </trkpt>
      <trkpt lat="48.44469" lon="2.47003">
        <ele>55.89</ele>
        <time>2021-10-23T08:14:31Z</time>
      </trkpt>
      <trkpt lat="48.44475" lon="2.46972">
        <ele>56.37</ele>
        <time>2021-10-23T08:14:52Z</time>
      </trkpt>
      <trkpt lat="48.44472" lon="2.4697">
        <ele>56.37</ele>
        <time>2021-10-23T08:14:54Z</time>
      </trkpt>
      <trkpt lat="48.44454" lon="2.46943">
        <ele>57.82</ele>
        <time>2021-10-23T08:15:12Z</time>
      </trkpt>
      <trkpt lat="48.44447" lon="2.46919">
        <ele>58.78</ele>
        <time>2021-10-23T08:15:26Z</time>
      </trkpt>
      <trkpt lat="48.44444" lon="2.46905">
        <ele>59.26</ele>
        <time>2021-10-23T08:15:34Z</time>
      </trkpt>
      <trkpt lat="48.44434" lon="2.46862">
        <ele>60.22</ele>
        <time>2021-10-23T08:15:58Z</time>
      </trkpt>
      <trkpt lat="48.44426" lon="2.46831">
        <ele>61.66</ele>
        <time>2021-10-23T08:16:17Z</time>
      </trkpt>
      <trkpt lat="48.4442" lon="2.46807">
        <ele>61.66</ele>
        <time>2021-10-23T08:16:32Z</time>
      </trkpt>
      <trkpt lat="48.44416" lon="2.46777">
        <ele>62.62</ele>
        <time>2021-10-23T08:16:48Z</time>
      </trkpt>
      <trkpt lat="48.44415" lon="2.46764">
        <ele>63.1</ele>
        <time>2021-10-23T08:16:55Z</time>
      </trkpt>
      <trkpt lat="48.44411" lon="2.46769">
        <ele>63.1</ele>
        <time>2021-10-23T08:17:12Z</time>
      </trkpt>
      <trkpt lat="48.44408" lon="2.46767">
        <ele>62.14</ele>
        <time>2021-10-23T08:17:15Z</time>
      </trkpt>
      <trkpt lat="48.44407" lon="2.46726">
        <ele>62.62</ele>
        <time>2021-10-23T08:17:38Z</time>
      </trkpt>
      <trkpt lat="48.44408" lon="2.46709">
        <ele>63.1</ele>
        <time>2021-10-23T08:17:48Z</time>
      </trkpt>
      <trkpt lat="48.44409" lon="2.46673">
        <ele>64.07</ele>
        <time>2021-10-23T08:18:09Z</time>
      </trkpt>
      <trkpt lat="48.44411" lon="2.46635">
        <ele>64.55</ele>
        <time>2021-10-23T08:18:31Z</time>
      </trkpt>
      <trkpt lat="48.44398" lon="2.46597">
        <ele>63.58</ele>
        <time>2021-10-23T08:18:52Z</time>
      </trkpt>
      <trkpt lat="48.44388" lon="2.46578">
        <ele>63.1</ele>
        <time>2021-10-23T08:19:12Z</time>
      </trkpt>
      <trkpt lat="48.44377" lon="2.46562">
        <ele>62.62</ele>
        <time>2021-10-23T08:19:31Z</time>
      </trkpt>
      <trkpt lat="48.44373" lon="2.46558">
        <ele>62.14</ele>
        <time>2021-10-23T08:19:52Z</time>
      </trkpt>
      <trkpt lat="48.44359" lon="2.46544">
        <ele>61.66</ele>
        <time>2021-10-23T08:20:11Z</time>
      </trkpt>
      <trkpt lat="48.44341" lon="2.46519">
        <ele>61.66</ele>
        <time>2021-10-23T08:20:31Z</time>
      </trkpt>
      <trkpt lat="48.44328" lon="2.46503">
        <ele>61.18</ele>
        <time>2021-10-23T08:20:48Z</time>
      </trkpt>
      <trkpt lat="48.4431" lon="2.46472">
        <ele>60.7</ele>
        <time>2021-10-23T08:21:08Z</time>
      </trkpt>
      <trkpt lat="48.44293" lon="2.46448">
        <ele>59.74</ele>
        <time>2021-10-23T08:21:26Z</time>
      </trkpt>
      <trkpt lat="48.44277" lon="2.4642">
        <ele>60.22</ele>
        <time>2021-10-23T08:21:45Z</time>
      </trkpt>
      <trkpt lat="48.44264" lon="2.46401">
        <ele>59.74</ele>
        <time>2021-10-23T08:22:01Z</time>
      </trkpt>
      <trkpt lat="48.44249" lon="2.46375">
        <ele>59.74</ele>
        <time>2021-10-23T08:22:21Z</time>
      </trkpt>
      <trkpt lat="48.44237" lon="2.46349">
        <ele>59.74</ele>
        <time>2021-10-23T08:22:39Z</time>
      </trkpt>
      <trkpt lat="48.44226" lon="2.46325">
        <ele>59.74</ele>
        <time>2021-10-23T08:22:54Z</time>
      </trkpt>
      <trkpt lat="48.44214" lon="2.46296">
        <ele>60.22</ele>
        <time>2021-10-23T08:23:12Z</time>
      </trkpt>
      <trkpt lat="48.44212" lon="2.46276">
        <ele>61.18</ele>
        <time>2021-10-23T08:23:27Z</time>
      </trkpt>
      <trkpt lat="48.44205" lon="2.46264">
        <ele>61.18</ele>
        <time>2021-10-23T08:23:38Z</time>
      </trkpt>
      <trkpt lat="48.44189" lon="2.46251">
        <ele>61.18</ele>
        <time>2021-10-23T08:23:52Z</time>
      </trkpt>
      <trkpt lat="48.44187" lon="2.46249">
        <ele>61.18</ele>
        <time>2021-10-23T08:23:55Z</time>
      </trkpt>
      <trkpt lat="48.44167" lon="2.46236">
        <ele>61.18</ele>
        <time>2021-10-23T08:24:14Z</time>
      </trkpt>
      <trkpt lat="48.44148" lon="2.46219">
        <ele>61.18</ele>
        <time>2021-10-23T08:24:30Z</time>
      </trkpt>
      <trkpt lat="48.4413" lon="2.46206">
        <ele>61.66</ele>
        <time>2021-10-23T08:24:47Z</time>
      </trkpt>
      <trkpt lat="48.44114" lon="2.46193">
        <ele>60.7</ele>
        <time>2021-10-23T08:25:04Z</time>
      </trkpt>
      <trkpt lat="48.44102" lon="2.46185">
        <ele>61.18</ele>
        <time>2021-10-23T08:25:17Z</time>
      </trkpt>
      <trkpt lat="48.44099" lon="2.46183">
        <ele>60.7</ele>
        <time>2021-10-23T08:25:20Z</time>
      </trkpt>
      <trkpt lat="48.44081" lon="2.46168">
        <ele>61.18</ele>
        <time>2021-10-23T08:25:37Z</time>
      </trkpt>
      <trkpt lat="48.44071" lon="2.46163">
        <ele>61.18</ele>
        <time>2021-10-23T08:25:46Z</time>
      </trkpt>
      <trkpt lat="48.44061" lon="2.46155">
        <ele>61.18</ele>
        <time>2021-10-23T08:25:55Z</time>
      </trkpt>
      <trkpt lat="48.44039" lon="2.46139">
        <ele>61.18</ele>
        <time>2021-10-23T08:26:14Z</time>
      </trkpt>
      <trkpt lat="48.44025" lon="2.46133">
        <ele>61.66</ele>
        <time>2021-10-23T08:26:28Z</time>
      </trkpt>
      <trkpt lat="48.44008" lon="2.46122">
        <ele>61.66</ele>
        <time>2021-10-23T08:26:43Z</time>
      </trkpt>
      <trkpt lat="48.43996" lon="2.46117">
        <ele>61.18</ele>
        <time>2021-10-23T08:26:58Z</time>
      </trkpt>
      <trkpt lat="48.4398" lon="2.46105">
        <ele>60.7</ele>
        <time>2021-10-23T08:27:16Z</time>
      </trkpt>
      <trkpt lat="48.43955" lon="2.46085">
        <ele>60.7</ele>
        <time>2021-10-23T08:27:37Z</time>
      </trkpt>
      <trkpt lat="48.43928" lon="2.46066">
        <ele>60.22</ele>
        <time>2021-10-23T08:28:00Z</time>
      </trkpt>
      <trkpt lat="48.43905" lon="2.46054">
        <ele>59.74</ele>
        <time>2021-10-23T08:28:21Z</time>
      </trkpt>
      <trkpt lat="48.43879" lon="2.46031">
        <ele>59.74</ele>
        <time>2021-10-23T08:28:43Z</time>
      </trkpt>
      <trkpt lat="48.43853" lon="2.46014">
        <ele>59.74</ele>
        <time>2021-10-23T08:29:06Z</time>
      </trkpt>
      <trkpt lat="48.43839" lon="2.46007">
        <ele>59.74</ele>
        <time>2021-10-23T08:29:23Z</time>
      </trkpt>
      <trkpt lat="48.43828" lon="2.46001">
        <ele>60.22</ele>
        <time>2021-10-23T08:29:43Z</time>
      </trkpt>
      <trkpt lat="48.43826" lon="2.45996">
        <ele>60.22</ele>
        <time>2021-10-23T08:29:57Z</time>
      </trkpt>
      <trkpt lat="48.43822" lon="2.45993">
        <ele>60.7</ele>
        <time>2021-10-23T08:30:17Z</time>
      </trkpt>
      <trkpt lat="48.43809" lon="2.45976">
        <ele>61.18</ele>
        <time>2021-10-23T08:30:36Z</time>
      </trkpt>
      <trkpt lat="48.43805" lon="2.45974">
        <ele>60.7</ele>
        <time>2021-10-23T08:30:40Z</time>
      </trkpt>
      <trkpt lat="48.4379" lon="2.45962">
        <ele>60.7</ele>
        <time>2021-10-23T08:30:58Z</time>
      </trkpt>
      <trkpt lat="48.43772" lon="2.45943">
        <ele>60.22</ele>
        <time>2021-10-23T08:31:19Z</time>
      </trkpt>
      <trkpt lat="48.43763" lon="2.45942">
        <ele>60.7</ele>
        <time>2021-10-23T08:31:36Z</time>
      </trkpt>
      <trkpt lat="48.43731" lon="2.45927">
        <ele>60.22</ele>
        <time>2021-10-23T08:32:00Z</time>
      </trkpt>
      <trkpt lat="48.43709" lon="2.45913">
        <ele>60.22</ele>
        <time>2021-10-23T08:32:19Z</time>
      </trkpt>
      <trkpt lat="48.43685" lon="2.45901">
        <ele>60.22</ele>
        <time>2021-10-23T08:32:40Z</time>
      </trkpt>
      <trkpt lat="48.43663" lon="2.4589">
        <ele>59.26</ele>
        <time>2021-10-23T08:32:58Z</time>
      </trkpt>
      <trkpt lat="48.43646" lon="2.45871">
        <ele>59.74</ele>
        <time>2021-10-23T08:33:18Z</time>
      </trkpt>
      <trkpt lat="48.43647" lon="2.45865">
        <ele>59.74</ele>
        <time>2021-10-23T08:33:22Z</time>
      </trkpt>
      <trkpt lat="48.43649" lon="2.45839">
        <ele>60.22</ele>
        <time>2021-10-23T08:33:37Z</time>
      </trkpt>
      <trkpt lat="48.43616" lon="2.45828">
        <ele>60.22</ele>
        <time>2021-10-23T08:34:03Z</time>
      </trkpt>
      <trkpt lat="48.43593" lon="2.45835">
        <ele>59.26</ele>
        <time>2021-10-23T08:34:26Z</time>
      </trkpt>
      <trkpt lat="48.43579" lon="2.45862">
        <ele>58.78</ele>
        <time>2021-10-23T08:34:45Z</time>
      </trkpt>
      <trkpt lat="48.43577" lon="2.4587">
        <ele>58.3</ele>
        <time>2021-10-23T08:34:49Z</time>
      </trkpt>
      <trkpt lat="48.43575" lon="2.45905">
        <ele>58.3</ele>
        <time>2021-10-23T08:35:08Z</time>
      </trkpt>
      <trkpt lat="48.43569" lon="2.45944">
        <ele>57.82</ele>
        <time>2021-10-23T08:35:28Z</time>
      </trkpt>
      <trkpt lat="48.43565" lon="2.45972">
        <ele>57.34</ele>
        <time>2021-10-23T08:35:44Z</time>
      </trkpt>
      <trkpt lat="48.4356" lon="2.45976">
        <ele>57.34</ele>
        <time>2021-10-23T08:35:51Z</time>
      </trkpt>
      <trkpt lat="48.43538" lon="2.45961">
        <ele>57.82</ele>
        <time>2021-10-23T08:36:10Z</time>
      </trkpt>
      <trkpt lat="48.43513" lon="2.45943">
        <ele>57.34</ele>
        <time>2021-10-23T08:36:30Z</time>
      </trkpt>
      <trkpt lat="48.43484" lon="2.45927">
        <ele>57.34</ele>
        <time>2021-10-23T08:36:52Z</time>
      </trkpt>
      <trkpt lat="48.4346" lon="2.45917">
        <ele>57.82</ele>
        <time>2021-10-23T08:37:10Z</time>
      </trkpt>
      <trkpt lat="48.43437" lon="2.45904">
        <ele>57.82</ele>
        <time>2021-10-23T08:37:31Z</time>
      </trkpt>
      <trkpt lat="48.43428" lon="2.45895">
        <ele>58.3</ele>
        <time>2021-10-23T08:37:49Z</time>
      </trkpt>
      <trkpt lat="48.43428" lon="2.45892">
        <ele>58.3</ele>
        <time>2021-10-23T08:37:55Z</time>
      </trkpt>
      <trkpt lat="48.43416" lon="2.45877">
        <ele>58.3</ele>
        <time>2021-10-23T08:38:08Z</time>
      </trkpt>
      <trkpt lat="48.4339" lon="2.45862">
        <ele>58.3</ele>
        <time>2021-10-23T08:38:30Z</time>
      </trkpt>
      <trkpt lat="48.43379" lon="2.45863">
        <ele>57.82</ele>
        <time>2021-10-23T08:38:45Z</time>
      </trkpt>
      <trkpt lat="48.43377" lon="2.45863">
        <ele>58.3</ele>
        <time>2021-10-23T08:39:03Z</time>
      </trkpt>
      <trkpt lat="48.43378" lon="2.45859">
        <ele>57.34</ele>
        <time>2021-10-23T08:39:06Z</time>
      </trkpt>
      <trkpt lat="48.43382" lon="2.45821">
        <ele>58.78</ele>
        <time>2021-10-23T08:39:29Z</time>
      </trkpt>
      <trkpt lat="48.43385" lon="2.458">
        <ele>59.26</ele>
        <time>2021-10-23T08:39:46Z</time>
      </trkpt>
      <trkpt lat="48.43397" lon="2.45802">
        <ele>59.74</ele>
        <time>2021-10-23T08:40:00Z</time>
      </trkpt>
      <trkpt lat="48.43404" lon="2.45786">
        <ele>60.22</ele>
        <time>2021-10-23T08:40:11Z</time>
      </trkpt>
      <trkpt lat="48.43405" lon="2.45756">
        <ele>60.7</ele>
        <time>2021-10-23T08:40:29Z</time>
      </trkpt>
      <trkpt lat="48.43411" lon="2.45732">
        <ele>61.66</ele>
        <time>2021-10-23T08:40:44Z</time>
      </trkpt>
      <trkpt lat="48.43417" lon="2.45724">
        <ele>62.14</ele>
        <time>2021-10-23T08:41:00Z</time>
      </trkpt>
      <trkpt lat="48.43399" lon="2.45712">
        <ele>62.14</ele>
        <time>2021-10-23T08:41:18Z</time>
      </trkpt>
      <trkpt lat="48.43395" lon="2.45703">
        <ele>62.62</ele>
        <time>2021-10-23T08:41:45Z</time>
      </trkpt>
      <trkpt lat="48.43381" lon="2.45706">
        <ele>62.62</ele>
        <time>2021-10-23T08:42:02Z</time>
      </trkpt>
      <trkpt lat="48.43369" lon="2.45713">
        <ele>62.62</ele>
        <time>2021-10-23T08:42:23Z</time>
      </trkpt>
      <trkpt lat="48.43366" lon="2.4571">
        <ele>62.62</ele>
        <time>2021-10-23T08:42:40Z</time>
      </trkpt>
      <trkpt lat="48.43365" lon="2.45711">
        <ele>61.66</ele>
        <time>2021-10-23T08:42:51Z</time>
      </trkpt>
      <trkpt lat="48.43362" lon="2.45655">
        <ele>59.26</ele>
        <time>2021-10-23T08:53:48Z</time>
      </trkpt>
      <trkpt lat="48.4336" lon="2.45696">
        <ele>58.78</ele>
        <time>2021-10-23T08:53:49Z</time>
      </trkpt>
      <trkpt lat="48.43349" lon="2.4572">
        <ele>57.82</ele>
        <time>2021-10-23T08:54:03Z</time>
      </trkpt>
      <trkpt lat="48.43341" lon="2.45724">
        <ele>58.3</ele>
        <time>2021-10-23T08:54:16Z</time>
      </trkpt>
      <trkpt lat="48.43319" lon="2.45737">
        <ele>57.82</ele>
        <time>2021-10-23T08:54:37Z</time>
      </trkpt>
      <trkpt lat="48.43317" lon="2.45738">
        <ele>57.82</ele>
        <time>2021-10-23T08:54:40Z</time>
      </trkpt>
      <trkpt lat="48.43296" lon="2.45748">
        <ele>58.3</ele>
        <time>2021-10-23T08:54:58Z</time>
      </trkpt>
      <trkpt lat="48.43295" lon="2.45748">
        <ele>58.78</ele>
        <time>2021-10-23T08:55:03Z</time>
      </trkpt>
      <trkpt lat="48.43293" lon="2.45747">
        <ele>58.3</ele>
        <time>2021-10-23T08:55:05Z</time>
      </trkpt>
      <trkpt lat="48.43279" lon="2.45756">
        <ele>58.3</ele>
        <time>2021-10-23T08:55:19Z</time>
      </trkpt>
      <trkpt lat="48.43279" lon="2.45759">
        <ele>58.3</ele>
        <time>2021-10-23T08:55:21Z</time>
      </trkpt>
      <trkpt lat="48.43288" lon="2.458">
        <ele>57.82</ele>
        <time>2021-10-23T08:55:43Z</time>
      </trkpt>
      <trkpt lat="48.43285" lon="2.45833">
        <ele>57.34</ele>
        <time>2021-10-23T08:56:02Z</time>
      </trkpt>
      <trkpt lat="48.43296" lon="2.4585">
        <ele>56.86</ele>
        <time>2021-10-23T08:56:23Z</time>
      </trkpt>
      <trkpt lat="48.43304" lon="2.45867">
        <ele>56.86</ele>
        <time>2021-10-23T08:56:40Z</time>
      </trkpt>
      <trkpt lat="48.43306" lon="2.45876">
        <ele>56.86</ele>
        <time>2021-10-23T08:57:01Z</time>
      </trkpt>
      <trkpt lat="48.43305" lon="2.45904">
        <ele>55.89</ele>
        <time>2021-10-23T08:57:19Z</time>
      </trkpt>
      <trkpt lat="48.4331" lon="2.4591">
        <ele>55.41</ele>
        <time>2021-10-23T08:57:35Z</time>
      </trkpt>
      <trkpt lat="48.43314" lon="2.45913">
        <ele>55.41</ele>
        <time>2021-10-23T08:57:53Z</time>
      </trkpt>
      <trkpt lat="48.43311" lon="2.45922">
        <ele>55.41</ele>
        <time>2021-10-23T08:58:16Z</time>
      </trkpt>
      <trkpt lat="48.43308" lon="2.45921">
        <ele>55.41</ele>
        <time>2021-10-23T08:58:24Z</time>
      </trkpt>
      <trkpt lat="48.43305" lon="2.45917">
        <ele>55.89</ele>
        <time>2021-10-23T08:58:31Z</time>
      </trkpt>
      <trkpt lat="48.43285" lon="2.45917">
        <ele>55.89</ele>
        <time>2021-10-23T08:58:50Z</time>
      </trkpt>
      <trkpt lat="48.43258" lon="2.45926">
        <ele>55.89</ele>
        <time>2021-10-23T08:59:10Z</time>
      </trkpt>
      <trkpt lat="48.43236" lon="2.45939">
        <ele>55.89</ele>
        <time>2021-10-23T08:59:30Z</time>
      </trkpt>
      <trkpt lat="48.43214" lon="2.45945">
        <ele>55.89</ele>
        <time>2021-10-23T08:59:48Z</time>
      </trkpt>
      <trkpt lat="48.43203" lon="2.45949">
        <ele>56.37</ele>
        <time>2021-10-23T08:59:56Z</time>
      </trkpt>
      <trkpt lat="48.43182" lon="2.45956">
        <ele>56.86</ele>
        <time>2021-10-23T09:00:13Z</time>
      </trkpt>
      <trkpt lat="48.43161" lon="2.45967">
        <ele>56.37</ele>
        <time>2021-10-23T09:00:31Z</time>
      </trkpt>
      <trkpt lat="48.43152" lon="2.45973">
        <ele>59.26</ele>
        <time>2021-10-23T09:00:38Z</time>
      </trkpt>
      <trkpt lat="48.43146" lon="2.45975">
        <ele>56.86</ele>
        <time>2021-10-23T09:00:43Z</time>
      </trkpt>
      <trkpt lat="48.43118" lon="2.45978">
        <ele>56.86</ele>
        <time>2021-10-23T09:01:06Z</time>
      </trkpt>
      <trkpt lat="48.43112" lon="2.4598">
        <ele>56.86</ele>
        <time>2021-10-23T09:01:09Z</time>
      </trkpt>
      <trkpt lat="48.43095" lon="2.45992">
        <ele>56.86</ele>
        <time>2021-10-23T09:01:27Z</time>
      </trkpt>
      <trkpt lat="48.43074" lon="2.46007">
        <ele>56.37</ele>
        <time>2021-10-23T09:01:44Z</time>
      </trkpt>
      <trkpt lat="48.43058" lon="2.46016">
        <ele>56.86</ele>
        <time>2021-10-23T09:02:00Z</time>
      </trkpt>
      <trkpt lat="48.43048" lon="2.46013">
        <ele>56.86</ele>
        <time>2021-10-23T09:02:17Z</time>
      </trkpt>
      <trkpt lat="48.43037" lon="2.46014">
        <ele>57.34</ele>
        <time>2021-10-23T09:02:26Z</time>
      </trkpt>
      <trkpt lat="48.43027" lon="2.46011">
        <ele>56.86</ele>
        <time>2021-10-23T09:02:42Z</time>
      </trkpt>
      <trkpt lat="48.43015" lon="2.46013">
        <ele>56.86</ele>
        <time>2021-10-23T09:02:54Z</time>
      </trkpt>
      <trkpt lat="48.43007" lon="2.46018">
        <ele>57.34</ele>
        <time>2021-10-23T09:03:01Z</time>
      </trkpt>
      <trkpt lat="48.42998" lon="2.4602">
        <ele>56.86</ele>
        <time>2021-10-23T09:03:08Z</time>
      </trkpt>
      <trkpt lat="48.4297" lon="2.46027">
        <ele>57.34</ele>
        <time>2021-10-23T09:03:30Z</time>
      </trkpt>
      <trkpt lat="48.42951" lon="2.46034">
        <ele>56.86</ele>
        <time>2021-10-23T09:03:47Z</time>
      </trkpt>
      <trkpt lat="48.42946" lon="2.46033">
        <ele>57.34</ele>
        <time>2021-10-23T09:03:55Z</time>
      </trkpt>
      <trkpt lat="48.42942" lon="2.46002">
        <ele>57.34</ele>
        <time>2021-10-23T09:04:12Z</time>
      </trkpt>
      <trkpt lat="48.42938" lon="2.45967">
        <ele>58.3</ele>
        <time>2021-10-23T09:04:31Z</time>
      </trkpt>
      <trkpt lat="48.42927" lon="2.45934">
        <ele>59.26</ele>
        <time>2021-10-23T09:04:51Z</time>
      </trkpt>
      <trkpt lat="48.42922" lon="2.45918">
        <ele>59.26</ele>
        <time>2021-10-23T09:05:01Z</time>
      </trkpt>
      <trkpt lat="48.42915" lon="2.45919">
        <ele>59.26</ele>
        <time>2021-10-23T09:05:08Z</time>
      </trkpt>
      <trkpt lat="48.42896" lon="2.45929">
        <ele>57.82</ele>
        <time>2021-10-23T09:05:24Z</time>
      </trkpt>
      <trkpt lat="48.4288" lon="2.45934">
        <ele>58.3</ele>
        <time>2021-10-23T09:05:42Z</time>
      </trkpt>
      <trkpt lat="48.42859" lon="2.45915">
        <ele>59.26</ele>
        <time>2021-10-23T09:06:05Z</time>
      </trkpt>
      <trkpt lat="48.42854" lon="2.45906">
        <ele>59.74</ele>
        <time>2021-10-23T09:06:10Z</time>
      </trkpt>
      <trkpt lat="48.42834" lon="2.4588">
        <ele>61.18</ele>
        <time>2021-10-23T09:06:31Z</time>
      </trkpt>
      <trkpt lat="48.42829" lon="2.45856">
        <ele>63.1</ele>
        <time>2021-10-23T09:09:20Z</time>
      </trkpt>
      <trkpt lat="48.42823" lon="2.45845">
        <ele>63.1</ele>
        <time>2021-10-23T09:09:29Z</time>
      </trkpt>
      <trkpt lat="48.4281" lon="2.45815">
        <ele>65.03</ele>
        <time>2021-10-23T09:09:46Z</time>
      </trkpt>
      <trkpt lat="48.42801" lon="2.45784">
        <ele>66.47</ele>
        <time>2021-10-23T09:10:03Z</time>
      </trkpt>
      <trkpt lat="48.4279" lon="2.45763">
        <ele>67.91</ele>
        <time>2021-10-23T09:10:17Z</time>
      </trkpt>
      <trkpt lat="48.42789" lon="2.45762">
        <ele>67.43</ele>
        <time>2021-10-23T09:10:18Z</time>
      </trkpt>
      <trkpt lat="48.42768" lon="2.45742">
        <ele>68.39</ele>
        <time>2021-10-23T09:10:36Z</time>
      </trkpt>
      <trkpt lat="48.42748" lon="2.45727">
        <ele>67.91</ele>
        <time>2021-10-23T09:10:53Z</time>
      </trkpt>
      <trkpt lat="48.42729" lon="2.4572">
        <ele>68.39</ele>
        <time>2021-10-23T09:11:09Z</time>
      </trkpt>
      <trkpt lat="48.42706" lon="2.45715">
        <ele>69.35</ele>
        <time>2021-10-23T09:11:27Z</time>
      </trkpt>
      <trkpt lat="48.42683" lon="2.45712">
        <ele>69.35</ele>
        <time>2021-10-23T09:11:44Z</time>
      </trkpt>
      <trkpt lat="48.42665" lon="2.45717">
        <ele>69.83</ele>
        <time>2021-10-23T09:12:00Z</time>
      </trkpt>
      <trkpt lat="48.42657" lon="2.45717">
        <ele>66.47</ele>
        <time>2021-10-23T09:12:07Z</time>
      </trkpt>
      <trkpt lat="48.42656" lon="2.45717">
        <ele>72.24</ele>
        <time>2021-10-23T09:12:08Z</time>
      </trkpt>
      <trkpt lat="48.42655" lon="2.45717">
        <ele>68.87</ele>
        <time>2021-10-23T09:12:09Z</time>
      </trkpt>
      <trkpt lat="48.42628" lon="2.4572">
        <ele>68.39</ele>
        <time>2021-10-23T09:12:29Z</time>
      </trkpt>
      <trkpt lat="48.42597" lon="2.45715">
        <ele>67.91</ele>
        <time>2021-10-23T09:12:51Z</time>
      </trkpt>
      <trkpt lat="48.42579" lon="2.45707">
        <ele>68.39</ele>
        <time>2021-10-23T09:13:07Z</time>
      </trkpt>
      <trkpt lat="48.42563" lon="2.45694">
        <ele>68.39</ele>
        <time>2021-10-23T09:13:22Z</time>
      </trkpt>
      <trkpt lat="48.42552" lon="2.45688">
        <ele>68.87</ele>
        <time>2021-10-23T09:13:32Z</time>
      </trkpt>
      <trkpt lat="48.4255" lon="2.45687">
        <ele>68.87</ele>
        <time>2021-10-23T09:13:34Z</time>
      </trkpt>
      <trkpt lat="48.42535" lon="2.45677">
        <ele>68.87</ele>
        <time>2021-10-23T09:13:48Z</time>
      </trkpt>
      <trkpt lat="48.42517" lon="2.45658">
        <ele>69.35</ele>
        <time>2021-10-23T09:14:03Z</time>
      </trkpt>
      <trkpt lat="48.42498" lon="2.45649">
        <ele>69.83</ele>
        <time>2021-10-23T09:14:19Z</time>
      </trkpt>
      <trkpt lat="48.42478" lon="2.4564">
        <ele>69.83</ele>
        <time>2021-10-23T09:14:36Z</time>
      </trkpt>
      <trkpt lat="48.4246" lon="2.4563">
        <ele>70.31</ele>
        <time>2021-10-23T09:14:51Z</time>
      </trkpt>
      <trkpt lat="48.42438" lon="2.45617">
        <ele>70.31</ele>
        <time>2021-10-23T09:15:09Z</time>
      </trkpt>
      <trkpt lat="48.4242" lon="2.45608">
        <ele>70.79</ele>
        <time>2021-10-23T09:15:25Z</time>
      </trkpt>
      <trkpt lat="48.42403" lon="2.45597">
        <ele>70.79</ele>
        <time>2021-10-23T09:15:39Z</time>
      </trkpt>
      <trkpt lat="48.42381" lon="2.45592">
        <ele>70.31</ele>
        <time>2021-10-23T09:15:57Z</time>
      </trkpt>
      <trkpt lat="48.42361" lon="2.45588">
        <ele>69.83</ele>
        <time>2021-10-23T09:16:14Z</time>
      </trkpt>
      <trkpt lat="48.4235" lon="2.45588">
        <ele>70.79</ele>
        <time>2021-10-23T09:16:27Z</time>
      </trkpt>
      <trkpt lat="48.42331" lon="2.45587">
        <ele>70.79</ele>
        <time>2021-10-23T09:16:43Z</time>
      </trkpt>
      <trkpt lat="48.42309" lon="2.4558">
        <ele>70.31</ele>
        <time>2021-10-23T09:17:00Z</time>
      </trkpt>
      <trkpt lat="48.42287" lon="2.45566">
        <ele>70.31</ele>
        <time>2021-10-23T09:17:18Z</time>
      </trkpt>
      <trkpt lat="48.4227" lon="2.45556">
        <ele>70.31</ele>
        <time>2021-10-23T09:17:31Z</time>
      </trkpt>
      <trkpt lat="48.42253" lon="2.45538">
        <ele>70.79</ele>
        <time>2021-10-23T09:17:46Z</time>
      </trkpt>
      <trkpt lat="48.42234" lon="2.45518">
        <ele>70.79</ele>
        <time>2021-10-23T09:18:03Z</time>
      </trkpt>
      <trkpt lat="48.42216" lon="2.455">
        <ele>71.27</ele>
        <time>2021-10-23T09:18:20Z</time>
      </trkpt>
      <trkpt lat="48.42197" lon="2.45481">
        <ele>71.27</ele>
        <time>2021-10-23T09:18:37Z</time>
      </trkpt>
      <trkpt lat="48.42176" lon="2.45461">
        <ele>71.76</ele>
        <time>2021-10-23T09:18:55Z</time>
      </trkpt>
      <trkpt lat="48.42159" lon="2.45445">
        <ele>72.24</ele>
        <time>2021-10-23T09:19:11Z</time>
      </trkpt>
      <trkpt lat="48.42135" lon="2.45429">
        <ele>72.72</ele>
        <time>2021-10-23T09:19:30Z</time>
      </trkpt>
      <trkpt lat="48.42114" lon="2.4541">
        <ele>73.2</ele>
        <time>2021-10-23T09:19:48Z</time>
      </trkpt>
      <trkpt lat="48.42096" lon="2.45394">
        <ele>72.72</ele>
        <time>2021-10-23T09:20:03Z</time>
      </trkpt>
      <trkpt lat="48.4208" lon="2.45375">
        <ele>72.24</ele>
        <time>2021-10-23T09:20:19Z</time>
      </trkpt>
      <trkpt lat="48.42062" lon="2.45353">
        <ele>72.24</ele>
        <time>2021-10-23T09:20:38Z</time>
      </trkpt>
      <trkpt lat="48.42052" lon="2.45334">
        <ele>72.24</ele>
        <time>2021-10-23T09:20:51Z</time>
      </trkpt>
      <trkpt lat="48.42039" lon="2.45313">
        <ele>71.76</ele>
        <time>2021-10-23T09:21:05Z</time>
      </trkpt>
      <trkpt lat="48.42024" lon="2.45282">
        <ele>71.76</ele>
        <time>2021-10-23T09:21:25Z</time>
      </trkpt>
      <trkpt lat="48.42012" lon="2.45254">
        <ele>71.76</ele>
        <time>2021-10-23T09:21:42Z</time>
      </trkpt>
      <trkpt lat="48.41996" lon="2.45226">
        <ele>71.27</ele>
        <time>2021-10-23T09:22:00Z</time>
      </trkpt>
      <trkpt lat="48.41987" lon="2.45214">
        <ele>70.31</ele>
        <time>2021-10-23T09:22:12Z</time>
      </trkpt>
      <trkpt lat="48.41975" lon="2.45187">
        <ele>70.31</ele>
        <time>2021-10-23T09:22:28Z</time>
      </trkpt>
      <trkpt lat="48.41961" lon="2.45163">
        <ele>69.83</ele>
        <time>2021-10-23T09:22:43Z</time>
      </trkpt>
      <trkpt lat="48.41947" lon="2.45138">
        <ele>69.35</ele>
        <time>2021-10-23T09:22:59Z</time>
      </trkpt>
      <trkpt lat="48.4194" lon="2.45127">
        <ele>69.35</ele>
        <time>2021-10-23T09:23:08Z</time>
      </trkpt>
      <trkpt lat="48.41932" lon="2.45116">
        <ele>69.35</ele>
        <time>2021-10-23T09:23:16Z</time>
      </trkpt>
      <trkpt lat="48.4192" lon="2.45102">
        <ele>69.35</ele>
        <time>2021-10-23T09:23:30Z</time>
      </trkpt>
      <trkpt lat="48.41895" lon="2.45094">
        <ele>69.35</ele>
        <time>2021-10-23T09:23:45Z</time>
      </trkpt>
      <trkpt lat="48.41879" lon="2.45106">
        <ele>69.35</ele>
        <time>2021-10-23T09:23:59Z</time>
      </trkpt>
      <trkpt lat="48.41864" lon="2.45131">
        <ele>68.87</ele>
        <time>2021-10-23T09:24:16Z</time>
      </trkpt>
      <trkpt lat="48.41856" lon="2.45158">
        <ele>69.83</ele>
        <time>2021-10-23T09:24:32Z</time>
      </trkpt>
      <trkpt lat="48.41854" lon="2.45186">
        <ele>68.87</ele>
        <time>2021-10-23T09:24:48Z</time>
      </trkpt>
      <trkpt lat="48.41863" lon="2.45188">
        <ele>68.87</ele>
        <time>2021-10-23T09:25:07Z</time>
      </trkpt>
      <trkpt lat="48.41865" lon="2.45184">
        <ele>68.87</ele>
        <time>2021-10-23T09:25:35Z</time>
      </trkpt>
      <trkpt lat="48.41859" lon="2.45177">
        <ele>68.87</ele>
        <time>2021-10-23T09:26:10Z</time>
      </trkpt>
      <trkpt lat="48.4185" lon="2.45193">
        <ele>68.87</ele>
        <time>2021-10-23T09:26:28Z</time>
      </trkpt>
      <trkpt lat="48.4185" lon="2.45203">
        <ele>68.87</ele>
        <time>2021-10-23T09:26:33Z</time>
      </trkpt>
      <trkpt lat="48.41847" lon="2.45263">
        <ele>67.43</ele>
        <time>2021-10-23T09:26:49Z</time>
      </trkpt>
      <trkpt lat="48.41844" lon="2.45282">
        <ele>67.91</ele>
        <time>2021-10-23T09:27:02Z</time>
      </trkpt>
      <trkpt lat="48.41844" lon="2.45293">
        <ele>68.39</ele>
        <time>2021-10-23T09:27:08Z</time>
      </trkpt>
      <trkpt lat="48.41838" lon="2.45327">
        <ele>68.39</ele>
        <time>2021-10-23T09:27:24Z</time>
      </trkpt>
      <trkpt lat="48.41832" lon="2.45369">
        <ele>67.91</ele>
        <time>2021-10-23T09:27:43Z</time>
      </trkpt>
      <trkpt lat="48.41829" lon="2.45397">
        <ele>68.87</ele>
        <time>2021-10-23T09:27:57Z</time>
      </trkpt>
      <trkpt lat="48.41822" lon="2.45429">
        <ele>67.43</ele>
        <time>2021-10-23T09:28:13Z</time>
      </trkpt>
      <trkpt lat="48.41819" lon="2.45463">
        <ele>67.91</ele>
        <time>2021-10-23T09:28:29Z</time>
      </trkpt>
      <trkpt lat="48.4182" lon="2.45493">
        <ele>67.91</ele>
        <time>2021-10-23T09:28:43Z</time>
      </trkpt>
      <trkpt lat="48.41817" lon="2.45528">
        <ele>67.43</ele>
        <time>2021-10-23T09:29:00Z</time>
      </trkpt>
      <trkpt lat="48.41817" lon="2.45536">
        <ele>67.91</ele>
        <time>2021-10-23T09:29:05Z</time>
      </trkpt>
      <trkpt lat="48.41813" lon="2.45576">
        <ele>67.43</ele>
        <time>2021-10-23T09:29:21Z</time>
      </trkpt>
      <trkpt lat="48.41809" lon="2.45612">
        <ele>67.91</ele>
        <time>2021-10-23T09:29:37Z</time>
      </trkpt>
      <trkpt lat="48.41804" lon="2.45646">
        <ele>67.91</ele>
        <time>2021-10-23T09:29:53Z</time>
      </trkpt>
      <trkpt lat="48.41792" lon="2.45662">
        <ele>67.43</ele>
        <time>2021-10-23T09:30:09Z</time>
      </trkpt>
      <trkpt lat="48.41767" lon="2.45658">
        <ele>66.95</ele>
        <time>2021-10-23T09:30:27Z</time>
      </trkpt>
      <trkpt lat="48.41751" lon="2.45658">
        <ele>66.95</ele>
        <time>2021-10-23T09:30:39Z</time>
      </trkpt>
      <trkpt lat="48.4173" lon="2.45659">
        <ele>66.95</ele>
        <time>2021-10-23T09:30:54Z</time>
      </trkpt>
      <trkpt lat="48.4171" lon="2.4566">
        <ele>66.95</ele>
        <time>2021-10-23T09:31:09Z</time>
      </trkpt>
      <trkpt lat="48.41685" lon="2.4566">
        <ele>66.95</ele>
        <time>2021-10-23T09:31:28Z</time>
      </trkpt>
      <trkpt lat="48.41665" lon="2.45659">
        <ele>67.43</ele>
        <time>2021-10-23T09:31:45Z</time>
      </trkpt>
      <trkpt lat="48.41647" lon="2.45658">
        <ele>67.91</ele>
        <time>2021-10-23T09:32:04Z</time>
      </trkpt>
      <trkpt lat="48.41626" lon="2.4566">
        <ele>67.43</ele>
        <time>2021-10-23T09:32:22Z</time>
      </trkpt>
      <trkpt lat="48.41606" lon="2.45657">
        <ele>67.91</ele>
        <time>2021-10-23T09:32:37Z</time>
      </trkpt>
      <trkpt lat="48.41593" lon="2.45649">
        <ele>67.91</ele>
        <time>2021-10-23T09:32:52Z</time>
      </trkpt>
      <trkpt lat="48.41578" lon="2.45632">
        <ele>67.43</ele>
        <time>2021-10-23T09:33:09Z</time>
      </trkpt>
      <trkpt lat="48.41564" lon="2.45621">
        <ele>67.43</ele>
        <time>2021-10-23T09:33:27Z</time>
      </trkpt>
      <trkpt lat="48.41549" lon="2.45603">
        <ele>67.91</ele>
        <time>2021-10-23T09:33:45Z</time>
      </trkpt>
      <trkpt lat="48.41531" lon="2.45589">
        <ele>67.91</ele>
        <time>2021-10-23T09:34:01Z</time>
      </trkpt>
      <trkpt lat="48.4151" lon="2.4561">
        <ele>68.39</ele>
        <time>2021-10-23T09:35:16Z</time>
      </trkpt>
      <trkpt lat="48.41509" lon="2.45617">
        <ele>68.39</ele>
        <time>2021-10-23T09:35:30Z</time>
      </trkpt>
      <trkpt lat="48.41492" lon="2.45615">
        <ele>68.39</ele>
        <time>2021-10-23T09:35:50Z</time>
      </trkpt>
      <trkpt lat="48.41486" lon="2.45621">
        <ele>68.39</ele>
        <time>2021-10-23T09:35:58Z</time>
      </trkpt>
      <trkpt lat="48.41473" lon="2.45635">
        <ele>67.91</ele>
        <time>2021-10-23T09:36:13Z</time>
      </trkpt>
      <trkpt lat="48.41463" lon="2.45654">
        <ele>68.39</ele>
        <time>2021-10-23T09:36:29Z</time>
      </trkpt>
      <trkpt lat="48.41462" lon="2.45686">
        <ele>68.39</ele>
        <time>2021-10-23T09:36:48Z</time>
      </trkpt>
      <trkpt lat="48.41464" lon="2.4571">
        <ele>67.91</ele>
        <time>2021-10-23T09:37:01Z</time>
      </trkpt>
      <trkpt lat="48.41468" lon="2.45729">
        <ele>67.91</ele>
        <time>2021-10-23T09:37:15Z</time>
      </trkpt>
      <trkpt lat="48.41471" lon="2.45729">
        <ele>67.91</ele>
        <time>2021-10-23T09:37:38Z</time>
      </trkpt>
      <trkpt lat="48.41463" lon="2.45727">
        <ele>68.39</ele>
        <time>2021-10-23T09:37:59Z</time>
      </trkpt>
      <trkpt lat="48.41461" lon="2.45727">
        <ele>68.39</ele>
        <time>2021-10-23T09:38:28Z</time>
      </trkpt>
      <trkpt lat="48.41466" lon="2.45744">
        <ele>68.39</ele>
        <time>2021-10-23T09:38:41Z</time>
      </trkpt>
      <trkpt lat="48.41466" lon="2.45759">
        <ele>68.39</ele>
        <time>2021-10-23T09:39:01Z</time>
      </trkpt>
      <trkpt lat="48.41469" lon="2.45775">
        <ele>68.87</ele>
        <time>2021-10-23T09:39:10Z</time>
      </trkpt>
      <trkpt lat="48.41471" lon="2.45798">
        <ele>67.91</ele>
        <time>2021-10-23T09:39:23Z</time>
      </trkpt>
      <trkpt lat="48.41473" lon="2.45829">
        <ele>68.39</ele>
        <time>2021-10-23T09:39:39Z</time>
      </trkpt>
      <trkpt lat="48.41473" lon="2.45866">
        <ele>67.91</ele>
        <time>2021-10-23T09:39:56Z</time>
      </trkpt>
      <trkpt lat="48.41473" lon="2.45869">
        <ele>67.91</ele>
        <time>2021-10-23T09:39:57Z</time>
      </trkpt>
      <trkpt lat="48.41462" lon="2.45882">
        <ele>66.47</ele>
        <time>2021-10-23T09:40:13Z</time>
      </trkpt>
      <trkpt lat="48.41459" lon="2.45883">
        <ele>66.95</ele>
        <time>2021-10-23T09:40:16Z</time>
      </trkpt>
      <trkpt lat="48.41437" lon="2.45887">
        <ele>66.95</ele>
        <time>2021-10-23T09:40:32Z</time>
      </trkpt>
      <trkpt lat="48.41415" lon="2.45893">
        <ele>66.95</ele>
        <time>2021-10-23T09:40:49Z</time>
      </trkpt>
      <trkpt lat="48.41389" lon="2.45894">
        <ele>67.43</ele>
        <time>2021-10-23T09:41:08Z</time>
      </trkpt>
      <trkpt lat="48.41368" lon="2.45901">
        <ele>67.91</ele>
        <time>2021-10-23T09:41:25Z</time>
      </trkpt>
      <trkpt lat="48.41332" lon="2.45906">
        <ele>67.43</ele>
        <time>2021-10-23T09:41:45Z</time>
      </trkpt>
      <trkpt lat="48.41312" lon="2.4591">
        <ele>67.91</ele>
        <time>2021-10-23T09:42:01Z</time>
      </trkpt>
      <trkpt lat="48.41284" lon="2.45913">
        <ele>68.39</ele>
        <time>2021-10-23T09:42:22Z</time>
      </trkpt>
      <trkpt lat="48.41262" lon="2.45918">
        <ele>67.91</ele>
        <time>2021-10-23T09:42:39Z</time>
      </trkpt>
      <trkpt lat="48.41235" lon="2.45917">
        <ele>67.91</ele>
        <time>2021-10-23T09:42:58Z</time>
      </trkpt>
      <trkpt lat="48.41212" lon="2.45926">
        <ele>67.91</ele>
        <time>2021-10-23T09:43:18Z</time>
      </trkpt>
      <trkpt lat="48.41191" lon="2.45929">
        <ele>68.39</ele>
        <time>2021-10-23T09:43:36Z</time>
      </trkpt>
      <trkpt lat="48.41164" lon="2.45932">
        <ele>67.91</ele>
        <time>2021-10-23T09:43:50Z</time>
      </trkpt>
      <trkpt lat="48.41144" lon="2.45931">
        <ele>67.91</ele>
        <time>2021-10-23T09:44:05Z</time>
      </trkpt>
      <trkpt lat="48.41123" lon="2.45933">
        <ele>68.87</ele>
        <time>2021-10-23T09:44:21Z</time>
      </trkpt>
      <trkpt lat="48.41093" lon="2.45934">
        <ele>68.39</ele>
        <time>2021-10-23T09:44:42Z</time>
      </trkpt>
      <trkpt lat="48.41068" lon="2.45937">
        <ele>67.91</ele>
        <time>2021-10-23T09:45:00Z</time>
      </trkpt>
      <trkpt lat="48.41045" lon="2.4594">
        <ele>67.43</ele>
        <time>2021-10-23T09:45:15Z</time>
      </trkpt>
      <trkpt lat="48.41044" lon="2.45941">
        <ele>67.43</ele>
        <time>2021-10-23T09:45:16Z</time>
      </trkpt>
      <trkpt lat="48.41019" lon="2.45946">
        <ele>66.95</ele>
        <time>2021-10-23T09:45:36Z</time>
      </trkpt>
      <trkpt lat="48.40992" lon="2.4595">
        <ele>66.95</ele>
        <time>2021-10-23T09:45:56Z</time>
      </trkpt>
      <trkpt lat="48.4097" lon="2.45953">
        <ele>66.95</ele>
        <time>2021-10-23T09:46:12Z</time>
      </trkpt>
      <trkpt lat="48.40969" lon="2.45954">
        <ele>66.95</ele>
        <time>2021-10-23T09:46:13Z</time>
      </trkpt>
      <trkpt lat="48.40943" lon="2.45964">
        <ele>67.43</ele>
        <time>2021-10-23T09:46:32Z</time>
      </trkpt>
      <trkpt lat="48.40925" lon="2.45968">
        <ele>67.91</ele>
        <time>2021-10-23T09:46:46Z</time>
      </trkpt>
      <trkpt lat="48.40902" lon="2.45972">
        <ele>67.43</ele>
        <time>2021-10-23T09:47:03Z</time>
      </trkpt>
      <trkpt lat="48.40878" lon="2.45983">
        <ele>66.95</ele>
        <time>2021-10-23T09:47:21Z</time>
      </trkpt>
      <trkpt lat="48.40852" lon="2.45993">
        <ele>67.43</ele>
        <time>2021-10-23T09:47:40Z</time>
      </trkpt>
      <trkpt lat="48.40824" lon="2.46005">
        <ele>67.43</ele>
        <time>2021-10-23T09:48:02Z</time>
      </trkpt>
      <trkpt lat="48.408" lon="2.46013">
        <ele>67.91</ele>
        <time>2021-10-23T09:48:20Z</time>
      </trkpt>
      <trkpt lat="48.40774" lon="2.46024">
        <ele>67.43</ele>
        <time>2021-10-23T09:48:40Z</time>
      </trkpt>
      <trkpt lat="48.40746" lon="2.46035">
        <ele>67.91</ele>
        <time>2021-10-23T09:49:00Z</time>
      </trkpt>
      <trkpt lat="48.40745" lon="2.46035">
        <ele>67.91</ele>
        <time>2021-10-23T09:49:01Z</time>
      </trkpt>
      <trkpt lat="48.40737" lon="2.46039">
        <ele>67.91</ele>
        <time>2021-10-23T09:49:07Z</time>
      </trkpt>
      <trkpt lat="48.40711" lon="2.46047">
        <ele>67.91</ele>
        <time>2021-10-23T09:49:26Z</time>
      </trkpt>
      <trkpt lat="48.40686" lon="2.46057">
        <ele>67.91</ele>
        <time>2021-10-23T09:49:45Z</time>
      </trkpt>
      <trkpt lat="48.40665" lon="2.46066">
        <ele>67.91</ele>
        <time>2021-10-23T09:50:02Z</time>
      </trkpt>
      <trkpt lat="48.40654" lon="2.46066">
        <ele>67.91</ele>
        <time>2021-10-23T09:50:16Z</time>
      </trkpt>
      <trkpt lat="48.40653" lon="2.46067">
        <ele>67.91</ele>
        <time>2021-10-23T09:50:17Z</time>
      </trkpt>
      <trkpt lat="48.40645" lon="2.46076">
        <ele>67.91</ele>
        <time>2021-10-23T09:50:35Z</time>
      </trkpt>
      <trkpt lat="48.40645" lon="2.46076">
        <ele>68.39</ele>
        <time>2021-10-23T09:51:01Z</time>
      </trkpt>
      <trkpt lat="48.40644" lon="2.46073">
        <ele>67.91</ele>
        <time>2021-10-23T09:51:29Z</time>
      </trkpt>
      <trkpt lat="48.40643" lon="2.46072">
        <ele>67.91</ele>
        <time>2021-10-23T09:51:56Z</time>
      </trkpt>
      <trkpt lat="48.40641" lon="2.46079">
        <ele>67.91</ele>
        <time>2021-10-23T09:52:08Z</time>
      </trkpt>
      <trkpt lat="48.40644" lon="2.4608">
        <ele>67.91</ele>
        <time>2021-10-23T09:52:38Z</time>
      </trkpt>
      <trkpt lat="48.40644" lon="2.46078">
        <ele>67.91</ele>
        <time>2021-10-23T09:53:08Z</time>
      </trkpt>
      <trkpt lat="48.40634" lon="2.46083">
        <ele>67.91</ele>
        <time>2021-10-23T09:53:29Z</time>
      </trkpt>
      <trkpt lat="48.40636" lon="2.46091">
        <ele>67.91</ele>
        <time>2021-10-23T09:53:39Z</time>
      </trkpt>
      <trkpt lat="48.40636" lon="2.46102">
        <ele>67.91</ele>
        <time>2021-10-23T09:53:47Z</time>
      </trkpt>
      <trkpt lat="48.40635" lon="2.46116">
        <ele>67.91</ele>
        <time>2021-10-23T09:53:55Z</time>
      </trkpt>
      <trkpt lat="48.40635" lon="2.46121">
        <ele>67.91</ele>
        <time>2021-10-23T09:53:58Z</time>
      </trkpt>
      <trkpt lat="48.40636" lon="2.46153">
        <ele>67.91</ele>
        <time>2021-10-23T09:54:16Z</time>
      </trkpt>
      <trkpt lat="48.40639" lon="2.46168">
        <ele>67.91</ele>
        <time>2021-10-23T09:54:33Z</time>
      </trkpt>
      <trkpt lat="48.40642" lon="2.46198">
        <ele>67.43</ele>
        <time>2021-10-23T09:54:49Z</time>
      </trkpt>
      <trkpt lat="48.40643" lon="2.46204">
        <ele>67.43</ele>
        <time>2021-10-23T09:54:52Z</time>
      </trkpt>
      <trkpt lat="48.40646" lon="2.46242">
        <ele>66.95</ele>
        <time>2021-10-23T09:55:11Z</time>
      </trkpt>
      <trkpt lat="48.40644" lon="2.46276">
        <ele>66.95</ele>
        <time>2021-10-23T09:55:28Z</time>
      </trkpt>
      <trkpt lat="48.40628" lon="2.4628">
        <ele>66.47</ele>
        <time>2021-10-23T09:55:43Z</time>
      </trkpt>
      <trkpt lat="48.40607" lon="2.46282">
        <ele>66.95</ele>
        <time>2021-10-23T09:55:59Z</time>
      </trkpt>
      <trkpt lat="48.40592" lon="2.46278">
        <ele>66.95</ele>
        <time>2021-10-23T09:56:13Z</time>
      </trkpt>
      <trkpt lat="48.40571" lon="2.46273">
        <ele>66.95</ele>
        <time>2021-10-23T09:56:29Z</time>
      </trkpt>
      <trkpt lat="48.40557" lon="2.46274">
        <ele>66.95</ele>
        <time>2021-10-23T09:56:45Z</time>
      </trkpt>
      <trkpt lat="48.40547" lon="2.46282">
        <ele>66.95</ele>
        <time>2021-10-23T09:56:58Z</time>
      </trkpt>
      <trkpt lat="48.40538" lon="2.46283">
        <ele>66.95</ele>
        <time>2021-10-23T09:57:05Z</time>
      </trkpt>
      <trkpt lat="48.40524" lon="2.46287">
        <ele>66.95</ele>
        <time>2021-10-23T09:57:19Z</time>
      </trkpt>
      <trkpt lat="48.40514" lon="2.46289">
        <ele>66.47</ele>
        <time>2021-10-23T09:57:27Z</time>
      </trkpt>
      <trkpt lat="48.40493" lon="2.46284">
        <ele>66.47</ele>
        <time>2021-10-23T09:57:43Z</time>
      </trkpt>
      <trkpt lat="48.40472" lon="2.46275">
        <ele>66.47</ele>
        <time>2021-10-23T09:57:59Z</time>
      </trkpt>
      <trkpt lat="48.40455" lon="2.46267">
        <ele>66.47</ele>
        <time>2021-10-23T09:58:12Z</time>
      </trkpt>
      <trkpt lat="48.40447" lon="2.46263">
        <ele>65.99</ele>
        <time>2021-10-23T09:58:18Z</time>
      </trkpt>
      <trkpt lat="48.40442" lon="2.46272">
        <ele>66.47</ele>
        <time>2021-10-23T09:58:24Z</time>
      </trkpt>
      <trkpt lat="48.40441" lon="2.46306">
        <ele>66.47</ele>
        <time>2021-10-23T09:58:41Z</time>
      </trkpt>
      <trkpt lat="48.4044" lon="2.46315">
        <ele>66.47</ele>
        <time>2021-10-23T09:58:46Z</time>
      </trkpt>
      <trkpt lat="48.40439" lon="2.46344">
        <ele>66.95</ele>
        <time>2021-10-23T09:59:00Z</time>
      </trkpt>
      <trkpt lat="48.40439" lon="2.46375">
        <ele>66.95</ele>
        <time>2021-10-23T09:59:16Z</time>
      </trkpt>
      <trkpt lat="48.4044" lon="2.46386">
        <ele>66.47</ele>
        <time>2021-10-23T09:59:22Z</time>
      </trkpt>
      <trkpt lat="48.40439" lon="2.46393">
        <ele>66.47</ele>
        <time>2021-10-23T09:59:26Z</time>
      </trkpt>
      <trkpt lat="48.40436" lon="2.46425">
        <ele>66.95</ele>
        <time>2021-10-23T09:59:43Z</time>
      </trkpt>
      <trkpt lat="48.40436" lon="2.46431">
        <ele>66.95</ele>
        <time>2021-10-23T09:59:46Z</time>
      </trkpt>
      <trkpt lat="48.40434" lon="2.4644">
        <ele>66.95</ele>
        <time>2021-10-23T09:59:51Z</time>
      </trkpt>
      <trkpt lat="48.40431" lon="2.46447">
        <ele>66.95</ele>
        <time>2021-10-23T09:59:56Z</time>
      </trkpt>
      <trkpt lat="48.40429" lon="2.46454">
        <ele>66.95</ele>
        <time>2021-10-23T10:00:00Z</time>
      </trkpt>
      <trkpt lat="48.40409" lon="2.46471">
        <ele>66.95</ele>
        <time>2021-10-23T10:00:17Z</time>
      </trkpt>
      <trkpt lat="48.40391" lon="2.46474">
        <ele>66.95</ele>
        <time>2021-10-23T10:00:32Z</time>
      </trkpt>
      <trkpt lat="48.40368" lon="2.46465">
        <ele>66.95</ele>
        <time>2021-10-23T10:00:50Z</time>
      </trkpt>
      <trkpt lat="48.40344" lon="2.4646">
        <ele>66.95</ele>
        <time>2021-10-23T10:01:08Z</time>
      </trkpt>
      <trkpt lat="48.40329" lon="2.46459">
        <ele>66.95</ele>
        <time>2021-10-23T10:01:23Z</time>
      </trkpt>
      <trkpt lat="48.40326" lon="2.46458">
        <ele>67.43</ele>
        <time>2021-10-23T10:01:27Z</time>
      </trkpt>
      <trkpt lat="48.40305" lon="2.4645">
        <ele>67.43</ele>
        <time>2021-10-23T10:01:45Z</time>
      </trkpt>
      <trkpt lat="48.403" lon="2.46448">
        <ele>67.43</ele>
        <time>2021-10-23T10:02:01Z</time>
      </trkpt>
      <trkpt lat="48.40296" lon="2.46445">
        <ele>67.43</ele>
        <time>2021-10-23T10:02:08Z</time>
      </trkpt>
      <trkpt lat="48.40292" lon="2.46438">
        <ele>67.43</ele>
        <time>2021-10-23T10:02:13Z</time>
      </trkpt>
      <trkpt lat="48.40291" lon="2.46437">
        <ele>66.95</ele>
        <time>2021-10-23T10:02:26Z</time>
      </trkpt>
      <trkpt lat="48.4029" lon="2.46436">
        <ele>66.47</ele>
        <time>2021-10-23T10:02:48Z</time>
      </trkpt>
      <trkpt lat="48.40288" lon="2.4643">
        <ele>66.47</ele>
        <time>2021-10-23T10:03:05Z</time>
      </trkpt>
      <trkpt lat="48.40277" lon="2.46407">
        <ele>66.47</ele>
        <time>2021-10-23T10:03:28Z</time>
      </trkpt>
      <trkpt lat="48.40267" lon="2.46404">
        <ele>67.43</ele>
        <time>2021-10-23T10:03:41Z</time>
      </trkpt>
      <trkpt lat="48.40271" lon="2.46402">
        <ele>67.43</ele>
        <time>2021-10-23T10:03:55Z</time>
      </trkpt>
      <trkpt lat="48.40274" lon="2.46403">
        <ele>67.43</ele>
        <time>2021-10-23T10:04:14Z</time>
      </trkpt>
      <trkpt lat="48.40271" lon="2.46403">
        <ele>66.95</ele>
        <time>2021-10-23T10:04:42Z</time>
      </trkpt>
      <trkpt lat="48.40267" lon="2.46403">
        <ele>66.95</ele>
        <time>2021-10-23T10:04:53Z</time>
      </trkpt>
      <trkpt lat="48.40248" lon="2.46403">
        <ele>67.43</ele>
        <time>2021-10-23T10:05:08Z</time>
      </trkpt>
      <trkpt lat="48.40234" lon="2.46404">
        <ele>67.91</ele>
        <time>2021-10-23T10:05:23Z</time>
      </trkpt>
      <trkpt lat="48.40234" lon="2.46402">
        <ele>67.91</ele>
        <time>2021-10-23T10:05:42Z</time>
      </trkpt>
      <trkpt lat="48.40233" lon="2.46403">
        <ele>67.91</ele>
        <time>2021-10-23T10:06:06Z</time>
      </trkpt>
      <trkpt lat="48.40235" lon="2.46405">
        <ele>67.91</ele>
        <time>2021-10-23T10:06:16Z</time>
      </trkpt>
      <trkpt lat="48.40244" lon="2.46405">
        <ele>67.91</ele>
        <time>2021-10-23T10:06:26Z</time>
      </trkpt>
      <trkpt lat="48.40259" lon="2.46402">
        <ele>67.43</ele>
        <time>2021-10-23T10:06:41Z</time>
      </trkpt>
      <trkpt lat="48.40264" lon="2.46406">
        <ele>66.95</ele>
        <time>2021-10-23T10:06:45Z</time>
      </trkpt>
      <trkpt lat="48.40269" lon="2.46417">
        <ele>67.43</ele>
        <time>2021-10-23T10:06:52Z</time>
      </trkpt>
      <trkpt lat="48.40273" lon="2.46435">
        <ele>66.95</ele>
        <time>2021-10-23T10:07:02Z</time>
      </trkpt>
      <trkpt lat="48.40277" lon="2.4646">
        <ele>68.39</ele>
        <time>2021-10-23T10:07:17Z</time>
      </trkpt>
      <trkpt lat="48.40277" lon="2.46462">
        <ele>67.91</ele>
        <time>2021-10-23T10:07:18Z</time>
      </trkpt>
      <trkpt lat="48.40277" lon="2.46485">
        <ele>67.91</ele>
        <time>2021-10-23T10:07:32Z</time>
      </trkpt>
      <trkpt lat="48.40277" lon="2.46513">
        <ele>67.43</ele>
        <time>2021-10-23T10:07:47Z</time>
      </trkpt>
      <trkpt lat="48.40274" lon="2.46522">
        <ele>67.43</ele>
        <time>2021-10-23T10:07:53Z</time>
      </trkpt>
      <trkpt lat="48.40257" lon="2.4652">
        <ele>67.43</ele>
        <time>2021-10-23T10:08:07Z</time>
      </trkpt>
      <trkpt lat="48.40241" lon="2.46519">
        <ele>67.91</ele>
        <time>2021-10-23T10:08:24Z</time>
      </trkpt>
      <trkpt lat="48.40243" lon="2.46523">
        <ele>67.43</ele>
        <time>2021-10-23T10:08:50Z</time>
      </trkpt>
      <trkpt lat="48.40242" lon="2.4652">
        <ele>67.43</ele>
        <time>2021-10-23T10:09:05Z</time>
      </trkpt>
      <trkpt lat="48.40242" lon="2.46516">
        <ele>67.43</ele>
        <time>2021-10-23T10:09:27Z</time>
      </trkpt>
      <trkpt lat="48.40247" lon="2.46526">
        <ele>67.91</ele>
        <time>2021-10-23T10:09:43Z</time>
      </trkpt>
      <trkpt lat="48.4024" lon="2.46536">
        <ele>67.43</ele>
        <time>2021-10-23T10:10:02Z</time>
      </trkpt>
      <trkpt lat="48.40238" lon="2.46536">
        <ele>67.91</ele>
        <time>2021-10-23T10:10:21Z</time>
      </trkpt>
      <trkpt lat="48.40239" lon="2.46539">
        <ele>67.43</ele>
        <time>2021-10-23T10:10:24Z</time>
      </trkpt>
      <trkpt lat="48.40239" lon="2.4655">
        <ele>67.91</ele>
        <time>2021-10-23T10:10:32Z</time>
      </trkpt>
      <trkpt lat="48.4024" lon="2.46579">
        <ele>67.43</ele>
        <time>2021-10-23T10:10:47Z</time>
      </trkpt>
      <trkpt lat="48.40239" lon="2.46596">
        <ele>67.91</ele>
        <time>2021-10-23T10:10:55Z</time>
      </trkpt>
      <trkpt lat="48.40245" lon="2.46631">
        <ele>67.91</ele>
        <time>2021-10-23T10:11:15Z</time>
      </trkpt>
      <trkpt lat="48.4025" lon="2.46641">
        <ele>67.43</ele>
        <time>2021-10-23T10:11:34Z</time>
      </trkpt>
      <trkpt lat="48.40253" lon="2.46665">
        <ele>67.43</ele>
        <time>2021-10-23T10:11:52Z</time>
      </trkpt>
      <trkpt lat="48.4025" lon="2.46696">
        <ele>67.91</ele>
        <time>2021-10-23T10:12:13Z</time>
      </trkpt>
      <trkpt lat="48.40254" lon="2.46724">
        <ele>67.91</ele>
        <time>2021-10-23T10:12:30Z</time>
      </trkpt>
      <trkpt lat="48.40252" lon="2.46735">
        <ele>67.43</ele>
        <time>2021-10-23T10:12:38Z</time>
      </trkpt>
      <trkpt lat="48.40255" lon="2.46767">
        <ele>67.91</ele>
        <time>2021-10-23T10:12:58Z</time>
      </trkpt>
      <trkpt lat="48.40258" lon="2.46791">
        <ele>67.91</ele>
        <time>2021-10-23T10:13:13Z</time>
      </trkpt>
      <trkpt lat="48.40255" lon="2.46818">
        <ele>67.91</ele>
        <time>2021-10-23T10:13:27Z</time>
      </trkpt>
      <trkpt lat="48.40245" lon="2.4684">
        <ele>68.39</ele>
        <time>2021-10-23T10:13:43Z</time>
      </trkpt>
      <trkpt lat="48.40233" lon="2.46871">
        <ele>67.91</ele>
        <time>2021-10-23T10:14:00Z</time>
      </trkpt>
      <trkpt lat="48.40228" lon="2.46902">
        <ele>68.39</ele>
        <time>2021-10-23T10:14:16Z</time>
      </trkpt>
      <trkpt lat="48.40226" lon="2.46915">
        <ele>67.91</ele>
        <time>2021-10-23T10:14:26Z</time>
      </trkpt>
      <trkpt lat="48.4021" lon="2.46941">
        <ele>67.91</ele>
        <time>2021-10-23T10:14:45Z</time>
      </trkpt>
      <trkpt lat="48.40199" lon="2.4697">
        <ele>67.91</ele>
        <time>2021-10-23T10:15:02Z</time>
      </trkpt>
      <trkpt lat="48.40193" lon="2.4698">
        <ele>67.43</ele>
        <time>2021-10-23T10:15:12Z</time>
      </trkpt>
      <trkpt lat="48.4018" lon="2.47013">
        <ele>67.91</ele>
        <time>2021-10-23T10:15:28Z</time>
      </trkpt>
      <trkpt lat="48.40181" lon="2.47016">
        <ele>67.91</ele>
        <time>2021-10-23T10:15:39Z</time>
      </trkpt>
      <trkpt lat="48.40179" lon="2.47025">
        <ele>67.43</ele>
        <time>2021-10-23T10:15:52Z</time>
      </trkpt>
      <trkpt lat="48.40174" lon="2.47035">
        <ele>67.91</ele>
        <time>2021-10-23T10:16:08Z</time>
      </trkpt>
      <trkpt lat="48.40164" lon="2.4703">
        <ele>67.91</ele>
        <time>2021-10-23T10:16:33Z</time>
      </trkpt>
      <trkpt lat="48.4016" lon="2.4703">
        <ele>67.91</ele>
        <time>2021-10-23T10:16:50Z</time>
      </trkpt>
      <trkpt lat="48.40157" lon="2.47035">
        <ele>67.91</ele>
        <time>2021-10-23T10:17:12Z</time>
      </trkpt>
      <trkpt lat="48.40168" lon="2.47027">
        <ele>68.39</ele>
        <time>2021-10-23T10:17:36Z</time>
      </trkpt>
      <trkpt lat="48.40176" lon="2.47022">
        <ele>68.39</ele>
        <time>2021-10-23T10:17:55Z</time>
      </trkpt>
      <trkpt lat="48.40192" lon="2.47025">
        <ele>68.87</ele>
        <time>2021-10-23T10:18:13Z</time>
      </trkpt>
      <trkpt lat="48.402" lon="2.4702">
        <ele>68.87</ele>
        <time>2021-10-23T10:18:31Z</time>
      </trkpt>
      <trkpt lat="48.40213" lon="2.47027">
        <ele>68.87</ele>
        <time>2021-10-23T10:18:47Z</time>
      </trkpt>
      <trkpt lat="48.40223" lon="2.47026">
        <ele>69.83</ele>
        <time>2021-10-23T10:19:05Z</time>
      </trkpt>
      <trkpt lat="48.40226" lon="2.47013">
        <ele>69.83</ele>
        <time>2021-10-23T10:19:29Z</time>
      </trkpt>
      <trkpt lat="48.40224" lon="2.4702">
        <ele>70.31</ele>
        <time>2021-10-23T10:19:53Z</time>
      </trkpt>
      <trkpt lat="48.40237" lon="2.47034">
        <ele>69.83</ele>
        <time>2021-10-23T10:20:09Z</time>
      </trkpt>
      <trkpt lat="48.40255" lon="2.47026">
        <ele>70.31</ele>
        <time>2021-10-23T10:20:25Z</time>
      </trkpt>
      <trkpt lat="48.4026" lon="2.47021">
        <ele>70.31</ele>
        <time>2021-10-23T10:20:40Z</time>
      </trkpt>
      <trkpt lat="48.40269" lon="2.47022">
        <ele>70.79</ele>
        <time>2021-10-23T10:20:54Z</time>
      </trkpt>
      <trkpt lat="48.40275" lon="2.47032">
        <ele>70.79</ele>
        <time>2021-10-23T10:21:15Z</time>
      </trkpt>
      <trkpt lat="48.40281" lon="2.47042">
        <ele>71.27</ele>
        <time>2021-10-23T10:21:36Z</time>
      </trkpt>
      <trkpt lat="48.40311" lon="2.47039">
        <ele>71.27</ele>
        <time>2021-10-23T10:21:57Z</time>
      </trkpt>
      <trkpt lat="48.40316" lon="2.47045">
        <ele>71.27</ele>
        <time>2021-10-23T10:22:14Z</time>
      </trkpt>
      <trkpt lat="48.40319" lon="2.47036">
        <ele>71.27</ele>
        <time>2021-10-23T10:22:29Z</time>
      </trkpt>
      <trkpt lat="48.40313" lon="2.4704">
        <ele>71.76</ele>
        <time>2021-10-23T10:22:44Z</time>
      </trkpt>
      <trkpt lat="48.40314" lon="2.47043">
        <ele>71.27</ele>
        <time>2021-10-23T10:23:07Z</time>
      </trkpt>
      <trkpt lat="48.4032" lon="2.47032">
        <ele>71.27</ele>
        <time>2021-10-23T10:23:33Z</time>
      </trkpt>
      <trkpt lat="48.4032" lon="2.47009">
        <ele>71.27</ele>
        <time>2021-10-23T10:23:49Z</time>
      </trkpt>
      <trkpt lat="48.40325" lon="2.47004">
        <ele>71.76</ele>
        <time>2021-10-23T10:24:02Z</time>
      </trkpt>
      <trkpt lat="48.40324" lon="2.46999">
        <ele>71.27</ele>
        <time>2021-10-23T10:24:22Z</time>
      </trkpt>
      <trkpt lat="48.4032" lon="2.47003">
        <ele>71.76</ele>
        <time>2021-10-23T10:24:41Z</time>
      </trkpt>
      <trkpt lat="48.40308" lon="2.47013">
        <ele>71.76</ele>
        <time>2021-10-23T10:25:02Z</time>
      </trkpt>
      <trkpt lat="48.40294" lon="2.47">
        <ele>71.27</ele>
        <time>2021-10-23T10:25:19Z</time>
      </trkpt>
      <trkpt lat="48.4029" lon="2.47005">
        <ele>71.76</ele>
        <time>2021-10-23T10:25:34Z</time>
      </trkpt>
      <trkpt lat="48.40273" lon="2.4702">
        <ele>71.76</ele>
        <time>2021-10-23T10:25:49Z</time>
      </trkpt>
      <trkpt lat="48.40255" lon="2.47031">
        <ele>71.76</ele>
        <time>2021-10-23T10:26:07Z</time>
      </trkpt>
      <trkpt lat="48.40245" lon="2.47033">
        <ele>72.24</ele>
        <time>2021-10-23T10:26:25Z</time>
      </trkpt>
      <trkpt lat="48.40232" lon="2.47028">
        <ele>71.76</ele>
        <time>2021-10-23T10:26:40Z</time>
      </trkpt>
      <trkpt lat="48.40222" lon="2.4703">
        <ele>72.24</ele>
        <time>2021-10-23T10:26:54Z</time>
      </trkpt>
      <trkpt lat="48.40218" lon="2.47024">
        <ele>72.24</ele>
        <time>2021-10-23T10:27:03Z</time>
      </trkpt>
      <trkpt lat="48.40208" lon="2.47026">
        <ele>71.76</ele>
        <time>2021-10-23T10:27:21Z</time>
      </trkpt>
      <trkpt lat="48.40202" lon="2.47023">
        <ele>71.76</ele>
        <time>2021-10-23T10:27:45Z</time>
      </trkpt>
      <trkpt lat="48.40189" lon="2.47018">
        <ele>71.27</ele>
        <time>2021-10-23T10:28:02Z</time>
      </trkpt>
      <trkpt lat="48.40173" lon="2.47029">
        <ele>71.27</ele>
        <time>2021-10-23T10:28:18Z</time>
      </trkpt>
      <trkpt lat="48.40169" lon="2.47036">
        <ele>71.27</ele>
        <time>2021-10-23T10:28:31Z</time>
      </trkpt>
      <trkpt lat="48.40161" lon="2.47028">
        <ele>71.27</ele>
        <time>2021-10-23T10:28:52Z</time>
      </trkpt>
      <trkpt lat="48.40164" lon="2.47021">
        <ele>66.47</ele>
        <time>2021-10-23T10:29:17Z</time>
      </trkpt>
      <trkpt lat="48.40162" lon="2.47027">
        <ele>65.51</ele>
        <time>2021-10-23T11:40:24Z</time>
      </trkpt>
      <trkpt lat="48.40232" lon="2.46994">
        <ele>65.51</ele>
        <time>2021-10-23T11:40:25Z</time>
      </trkpt>
      <trkpt lat="48.40171" lon="2.47031">
        <ele>65.51</ele>
        <time>2021-10-23T11:40:54Z</time>
      </trkpt>
      <trkpt lat="48.40172" lon="2.47028">
        <ele>65.51</ele>
        <time>2021-10-23T11:41:20Z</time>
      </trkpt>
      <trkpt lat="48.40168" lon="2.47027">
        <ele>65.99</ele>
        <time>2021-10-23T11:41:41Z</time>
      </trkpt>
      <trkpt lat="48.40165" lon="2.47026">
        <ele>66.47</ele>
        <time>2021-10-23T11:42:04Z</time>
      </trkpt>
      <trkpt lat="48.40163" lon="2.47031">
        <ele>66.95</ele>
        <time>2021-10-23T11:42:31Z</time>
      </trkpt>
      <trkpt lat="48.40158" lon="2.47019">
        <ele>66.95</ele>
        <time>2021-10-23T11:42:59Z</time>
      </trkpt>
      <trkpt lat="48.40161" lon="2.47031">
        <ele>66.95</ele>
        <time>2021-10-23T11:43:28Z</time>
      </trkpt>
      <trkpt lat="48.4017" lon="2.47024">
        <ele>67.43</ele>
        <time>2021-10-23T11:43:45Z</time>
      </trkpt>
      <trkpt lat="48.40179" lon="2.47022">
        <ele>67.43</ele>
        <time>2021-10-23T11:43:59Z</time>
      </trkpt>
      <trkpt lat="48.40197" lon="2.47025">
        <ele>67.43</ele>
        <time>2021-10-23T11:44:15Z</time>
      </trkpt>
      <trkpt lat="48.40211" lon="2.47028">
        <ele>67.91</ele>
        <time>2021-10-23T11:44:33Z</time>
      </trkpt>
      <trkpt lat="48.40225" lon="2.4703">
        <ele>67.91</ele>
        <time>2021-10-23T11:44:50Z</time>
      </trkpt>
      <trkpt lat="48.40228" lon="2.47035">
        <ele>67.91</ele>
        <time>2021-10-23T11:45:04Z</time>
      </trkpt>
      <trkpt lat="48.40234" lon="2.47044">
        <ele>67.91</ele>
        <time>2021-10-23T11:45:12Z</time>
      </trkpt>
      <trkpt lat="48.40248" lon="2.47053">
        <ele>68.39</ele>
        <time>2021-10-23T11:45:33Z</time>
      </trkpt>
      <trkpt lat="48.40241" lon="2.47024">
        <ele>68.39</ele>
        <time>2021-10-23T11:46:00Z</time>
      </trkpt>
      <trkpt lat="48.40223" lon="2.47027">
        <ele>68.39</ele>
        <time>2021-10-23T11:47:54Z</time>
      </trkpt>
      <trkpt lat="48.40225" lon="2.47016">
        <ele>68.39</ele>
        <time>2021-10-23T11:48:15Z</time>
      </trkpt>
      <trkpt lat="48.40208" lon="2.47">
        <ele>68.39</ele>
        <time>2021-10-23T11:48:59Z</time>
      </trkpt>
      <trkpt lat="48.40234" lon="2.47029">
        <ele>68.39</ele>
        <time>2021-10-23T11:49:16Z</time>
      </trkpt>
      <trkpt lat="48.40241" lon="2.47034">
        <ele>68.39</ele>
        <time>2021-10-23T11:49:40Z</time>
      </trkpt>
      <trkpt lat="48.40219" lon="2.47015">
        <ele>68.87</ele>
        <time>2021-10-23T11:50:03Z</time>
      </trkpt>
      <trkpt lat="48.40214" lon="2.47015">
        <ele>68.87</ele>
        <time>2021-10-23T11:50:25Z</time>
      </trkpt>
      <trkpt lat="48.40218" lon="2.47015">
        <ele>68.87</ele>
        <time>2021-10-23T11:50:44Z</time>
      </trkpt>
      <trkpt lat="48.40222" lon="2.47016">
        <ele>68.39</ele>
        <time>2021-10-23T11:51:02Z</time>
      </trkpt>
      <trkpt lat="48.40235" lon="2.47031">
        <ele>69.35</ele>
        <time>2021-10-23T11:51:18Z</time>
      </trkpt>
      <trkpt lat="48.40236" lon="2.4703">
        <ele>69.83</ele>
        <time>2021-10-23T11:51:19Z</time>
      </trkpt>
      <trkpt lat="48.40253" lon="2.47033">
        <ele>68.87</ele>
        <time>2021-10-23T11:51:36Z</time>
      </trkpt>
      <trkpt lat="48.40267" lon="2.47035">
        <ele>68.87</ele>
        <time>2021-10-23T11:51:50Z</time>
      </trkpt>
      <trkpt lat="48.40295" lon="2.4705">
        <ele>68.87</ele>
        <time>2021-10-23T11:52:10Z</time>
      </trkpt>
      <trkpt lat="48.40299" lon="2.47051">
        <ele>68.39</ele>
        <time>2021-10-23T11:52:26Z</time>
      </trkpt>
      <trkpt lat="48.40305" lon="2.47048">
        <ele>68.39</ele>
        <time>2021-10-23T11:52:40Z</time>
      </trkpt>
      <trkpt lat="48.4031" lon="2.47036">
        <ele>68.39</ele>
        <time>2021-10-23T11:52:46Z</time>
      </trkpt>
      <trkpt lat="48.40321" lon="2.47009">
        <ele>67.91</ele>
        <time>2021-10-23T11:53:00Z</time>
      </trkpt>
      <trkpt lat="48.40324" lon="2.46992">
        <ele>67.91</ele>
        <time>2021-10-23T11:53:14Z</time>
      </trkpt>
      <trkpt lat="48.40336" lon="2.46983">
        <ele>68.39</ele>
        <time>2021-10-23T11:53:29Z</time>
      </trkpt>
      <trkpt lat="48.40346" lon="2.46991">
        <ele>67.91</ele>
        <time>2021-10-23T11:53:44Z</time>
      </trkpt>
      <trkpt lat="48.40345" lon="2.4699">
        <ele>68.39</ele>
        <time>2021-10-23T11:53:47Z</time>
      </trkpt>
      <trkpt lat="48.40342" lon="2.46981">
        <ele>68.39</ele>
        <time>2021-10-23T11:53:53Z</time>
      </trkpt>
      <trkpt lat="48.40343" lon="2.46957">
        <ele>68.39</ele>
        <time>2021-10-23T11:54:07Z</time>
      </trkpt>
      <trkpt lat="48.40348" lon="2.46948">
        <ele>68.39</ele>
        <time>2021-10-23T11:54:13Z</time>
      </trkpt>
      <trkpt lat="48.4036" lon="2.46948">
        <ele>68.39</ele>
        <time>2021-10-23T11:54:27Z</time>
      </trkpt>
      <trkpt lat="48.40361" lon="2.46949">
        <ele>68.39</ele>
        <time>2021-10-23T11:54:29Z</time>
      </trkpt>
      <trkpt lat="48.40373" lon="2.46954">
        <ele>68.87</ele>
        <time>2021-10-23T11:54:39Z</time>
      </trkpt>
      <trkpt lat="48.40383" lon="2.4695">
        <ele>67.91</ele>
        <time>2021-10-23T11:54:48Z</time>
      </trkpt>
      <trkpt lat="48.40386" lon="2.46938">
        <ele>67.43</ele>
        <time>2021-10-23T11:54:56Z</time>
      </trkpt>
      <trkpt lat="48.40379" lon="2.46952">
        <ele>66.47</ele>
        <time>2021-10-23T12:06:11Z</time>
      </trkpt>
      <trkpt lat="48.40409" lon="2.4693">
        <ele>65.99</ele>
        <time>2021-10-23T12:06:12Z</time>
      </trkpt>
      <trkpt lat="48.40422" lon="2.46939">
        <ele>66.47</ele>
        <time>2021-10-23T12:06:26Z</time>
      </trkpt>
      <trkpt lat="48.40434" lon="2.46944">
        <ele>66.47</ele>
        <time>2021-10-23T12:06:40Z</time>
      </trkpt>
      <trkpt lat="48.40449" lon="2.46943">
        <ele>65.99</ele>
        <time>2021-10-23T12:06:54Z</time>
      </trkpt>
      <trkpt lat="48.40452" lon="2.46947">
        <ele>65.99</ele>
        <time>2021-10-23T12:06:59Z</time>
      </trkpt>
      <trkpt lat="48.40456" lon="2.46982">
        <ele>65.51</ele>
        <time>2021-10-23T12:07:19Z</time>
      </trkpt>
      <trkpt lat="48.40456" lon="2.47023">
        <ele>65.51</ele>
        <time>2021-10-23T12:07:41Z</time>
      </trkpt>
      <trkpt lat="48.40459" lon="2.47049">
        <ele>65.99</ele>
        <time>2021-10-23T12:07:59Z</time>
      </trkpt>
      <trkpt lat="48.40455" lon="2.47061">
        <ele>65.99</ele>
        <time>2021-10-23T12:08:07Z</time>
      </trkpt>
      <trkpt lat="48.40455" lon="2.47088">
        <ele>66.47</ele>
        <time>2021-10-23T12:08:23Z</time>
      </trkpt>
      <trkpt lat="48.40455" lon="2.4709">
        <ele>66.47</ele>
        <time>2021-10-23T12:08:24Z</time>
      </trkpt>
      <trkpt lat="48.40456" lon="2.47094">
        <ele>66.47</ele>
        <time>2021-10-23T12:08:26Z</time>
      </trkpt>
      <trkpt lat="48.40451" lon="2.47128">
        <ele>66.47</ele>
        <time>2021-10-23T12:08:46Z</time>
      </trkpt>
      <trkpt lat="48.40451" lon="2.47158">
        <ele>66.47</ele>
        <time>2021-10-23T12:09:01Z</time>
      </trkpt>
      <trkpt lat="48.40448" lon="2.47174">
        <ele>66.95</ele>
        <time>2021-10-23T12:09:16Z</time>
      </trkpt>
      <trkpt lat="48.40445" lon="2.47197">
        <ele>66.95</ele>
        <time>2021-10-23T12:09:34Z</time>
      </trkpt>
      <trkpt lat="48.40456" lon="2.47201">
        <ele>66.95</ele>
        <time>2021-10-23T12:09:49Z</time>
      </trkpt>
      <trkpt lat="48.40466" lon="2.47195">
        <ele>66.95</ele>
        <time>2021-10-23T12:10:06Z</time>
      </trkpt>
      <trkpt lat="48.40484" lon="2.47194">
        <ele>67.43</ele>
        <time>2021-10-23T12:10:25Z</time>
      </trkpt>
      <trkpt lat="48.40495" lon="2.47194">
        <ele>67.43</ele>
        <time>2021-10-23T12:10:39Z</time>
      </trkpt>
      <trkpt lat="48.40509" lon="2.47194">
        <ele>66.95</ele>
        <time>2021-10-23T12:10:55Z</time>
      </trkpt>
      <trkpt lat="48.40532" lon="2.47194">
        <ele>67.91</ele>
        <time>2021-10-23T12:11:15Z</time>
      </trkpt>
      <trkpt lat="48.4056" lon="2.47195">
        <ele>66.47</ele>
        <time>2021-10-23T12:11:37Z</time>
      </trkpt>
      <trkpt lat="48.40583" lon="2.47193">
        <ele>66.47</ele>
        <time>2021-10-23T12:11:55Z</time>
      </trkpt>
      <trkpt lat="48.4061" lon="2.47195">
        <ele>65.99</ele>
        <time>2021-10-23T12:12:16Z</time>
      </trkpt>
      <trkpt lat="48.4064" lon="2.47195">
        <ele>66.47</ele>
        <time>2021-10-23T12:12:38Z</time>
      </trkpt>
      <trkpt lat="48.40659" lon="2.47196">
        <ele>66.47</ele>
        <time>2021-10-23T12:12:54Z</time>
      </trkpt>
      <trkpt lat="48.40686" lon="2.47196">
        <ele>66.47</ele>
        <time>2021-10-23T12:13:15Z</time>
      </trkpt>
      <trkpt lat="48.40712" lon="2.47196">
        <ele>66.47</ele>
        <time>2021-10-23T12:13:35Z</time>
      </trkpt>
      <trkpt lat="48.40736" lon="2.47195">
        <ele>66.95</ele>
        <time>2021-10-23T12:13:54Z</time>
      </trkpt>
      <trkpt lat="48.40759" lon="2.47196">
        <ele>66.95</ele>
        <time>2021-10-23T12:14:13Z</time>
      </trkpt>
      <trkpt lat="48.40787" lon="2.47194">
        <ele>66.95</ele>
        <time>2021-10-23T12:14:34Z</time>
      </trkpt>
      <trkpt lat="48.40809" lon="2.47195">
        <ele>67.43</ele>
        <time>2021-10-23T12:14:51Z</time>
      </trkpt>
      <trkpt lat="48.40841" lon="2.47201">
        <ele>67.43</ele>
        <time>2021-10-23T12:15:15Z</time>
      </trkpt>
      <trkpt lat="48.40862" lon="2.4721">
        <ele>67.43</ele>
        <time>2021-10-23T12:15:32Z</time>
      </trkpt>
      <trkpt lat="48.40888" lon="2.47223">
        <ele>67.91</ele>
        <time>2021-10-23T12:15:54Z</time>
      </trkpt>
      <trkpt lat="48.4092" lon="2.47239">
        <ele>68.39</ele>
        <time>2021-10-23T12:16:20Z</time>
      </trkpt>
      <trkpt lat="48.40949" lon="2.4725">
        <ele>68.39</ele>
        <time>2021-10-23T12:16:43Z</time>
      </trkpt>
      <trkpt lat="48.40977" lon="2.47265">
        <ele>68.87</ele>
        <time>2021-10-23T12:17:05Z</time>
      </trkpt>
      <trkpt lat="48.40998" lon="2.47293">
        <ele>69.35</ele>
        <time>2021-10-23T12:17:27Z</time>
      </trkpt>
      <trkpt lat="48.41001" lon="2.47295">
        <ele>69.83</ele>
        <time>2021-10-23T12:17:30Z</time>
      </trkpt>
      <trkpt lat="48.4102" lon="2.47287">
        <ele>69.35</ele>
        <time>2021-10-23T12:17:44Z</time>
      </trkpt>
      <trkpt lat="48.41026" lon="2.4729">
        <ele>69.35</ele>
        <time>2021-10-23T12:17:49Z</time>
      </trkpt>
      <trkpt lat="48.41044" lon="2.47314">
        <ele>69.83</ele>
        <time>2021-10-23T12:18:08Z</time>
      </trkpt>
      <trkpt lat="48.41059" lon="2.47344">
        <ele>70.79</ele>
        <time>2021-10-23T12:18:27Z</time>
      </trkpt>
      <trkpt lat="48.41073" lon="2.47371">
        <ele>70.79</ele>
        <time>2021-10-23T12:18:45Z</time>
      </trkpt>
      <trkpt lat="48.41085" lon="2.47398">
        <ele>71.27</ele>
        <time>2021-10-23T12:19:02Z</time>
      </trkpt>
      <trkpt lat="48.41098" lon="2.47429">
        <ele>71.76</ele>
        <time>2021-10-23T12:19:21Z</time>
      </trkpt>
      <trkpt lat="48.41112" lon="2.47461">
        <ele>72.24</ele>
        <time>2021-10-23T12:19:41Z</time>
      </trkpt>
      <trkpt lat="48.41128" lon="2.47489">
        <ele>72.72</ele>
        <time>2021-10-23T12:20:00Z</time>
      </trkpt>
      <trkpt lat="48.41147" lon="2.47517">
        <ele>73.2</ele>
        <time>2021-10-23T12:20:20Z</time>
      </trkpt>
      <trkpt lat="48.41163" lon="2.47551">
        <ele>74.16</ele>
        <time>2021-10-23T12:20:41Z</time>
      </trkpt>
      <trkpt lat="48.41178" lon="2.47586">
        <ele>74.64</ele>
        <time>2021-10-23T12:21:02Z</time>
      </trkpt>
      <trkpt lat="48.4119" lon="2.47617">
        <ele>75.12</ele>
        <time>2021-10-23T12:21:20Z</time>
      </trkpt>
      <trkpt lat="48.41202" lon="2.47646">
        <ele>75.6</ele>
        <time>2021-10-23T12:21:38Z</time>
      </trkpt>
      <trkpt lat="48.41209" lon="2.47664">
        <ele>75.12</ele>
        <time>2021-10-23T12:21:53Z</time>
      </trkpt>
      <trkpt lat="48.4121" lon="2.47666">
        <ele>75.6</ele>
        <time>2021-10-23T12:21:55Z</time>
      </trkpt>
      <trkpt lat="48.41222" lon="2.4769">
        <ele>75.6</ele>
        <time>2021-10-23T12:22:10Z</time>
      </trkpt>
      <trkpt lat="48.41244" lon="2.47716">
        <ele>75.12</ele>
        <time>2021-10-23T12:22:31Z</time>
      </trkpt>
      <trkpt lat="48.41268" lon="2.47735">
        <ele>74.64</ele>
        <time>2021-10-23T12:22:50Z</time>
      </trkpt>
      <trkpt lat="48.41282" lon="2.47751">
        <ele>75.12</ele>
        <time>2021-10-23T12:23:04Z</time>
      </trkpt>
      <trkpt lat="48.41302" lon="2.47772">
        <ele>75.12</ele>
        <time>2021-10-23T12:23:21Z</time>
      </trkpt>
      <trkpt lat="48.4132" lon="2.47791">
        <ele>74.64</ele>
        <time>2021-10-23T12:23:38Z</time>
      </trkpt>
      <trkpt lat="48.41341" lon="2.47815">
        <ele>74.64</ele>
        <time>2021-10-23T12:23:57Z</time>
      </trkpt>
      <trkpt lat="48.41363" lon="2.47843">
        <ele>74.64</ele>
        <time>2021-10-23T12:24:18Z</time>
      </trkpt>
      <trkpt lat="48.41379" lon="2.47864">
        <ele>74.16</ele>
        <time>2021-10-23T12:24:34Z</time>
      </trkpt>
      <trkpt lat="48.41395" lon="2.47884">
        <ele>73.68</ele>
        <time>2021-10-23T12:24:50Z</time>
      </trkpt>
      <trkpt lat="48.41411" lon="2.47902">
        <ele>73.2</ele>
        <time>2021-10-23T12:25:05Z</time>
      </trkpt>
      <trkpt lat="48.41428" lon="2.47923">
        <ele>73.2</ele>
        <time>2021-10-23T12:25:22Z</time>
      </trkpt>
      <trkpt lat="48.41444" lon="2.47943">
        <ele>73.68</ele>
        <time>2021-10-23T12:25:39Z</time>
      </trkpt>
      <trkpt lat="48.41456" lon="2.47956">
        <ele>73.68</ele>
        <time>2021-10-23T12:25:53Z</time>
      </trkpt>
      <trkpt lat="48.41475" lon="2.47985">
        <ele>73.68</ele>
        <time>2021-10-23T12:26:11Z</time>
      </trkpt>
      <trkpt lat="48.41478" lon="2.47987">
        <ele>74.16</ele>
        <time>2021-10-23T12:26:14Z</time>
      </trkpt>
      <trkpt lat="48.41486" lon="2.48001">
        <ele>74.64</ele>
        <time>2021-10-23T12:26:24Z</time>
      </trkpt>
      <trkpt lat="48.41499" lon="2.48031">
        <ele>74.16</ele>
        <time>2021-10-23T12:26:42Z</time>
      </trkpt>
      <trkpt lat="48.41512" lon="2.48062">
        <ele>75.12</ele>
        <time>2021-10-23T12:27:00Z</time>
      </trkpt>
      <trkpt lat="48.41522" lon="2.48089">
        <ele>75.6</ele>
        <time>2021-10-23T12:27:17Z</time>
      </trkpt>
      <trkpt lat="48.41531" lon="2.4812">
        <ele>76.08</ele>
        <time>2021-10-23T12:27:36Z</time>
      </trkpt>
      <trkpt lat="48.41545" lon="2.48133">
        <ele>77.04</ele>
        <time>2021-10-23T12:27:49Z</time>
      </trkpt>
      <trkpt lat="48.4156" lon="2.48151">
        <ele>77.52</ele>
        <time>2021-10-23T12:28:05Z</time>
      </trkpt>
      <trkpt lat="48.41577" lon="2.48169">
        <ele>78.97</ele>
        <time>2021-10-23T12:28:21Z</time>
      </trkpt>
      <trkpt lat="48.41596" lon="2.48188">
        <ele>78.97</ele>
        <time>2021-10-23T12:28:38Z</time>
      </trkpt>
      <trkpt lat="48.41613" lon="2.48202">
        <ele>78.48</ele>
        <time>2021-10-23T12:28:51Z</time>
      </trkpt>
      <trkpt lat="48.41626" lon="2.48226">
        <ele>77.52</ele>
        <time>2021-10-23T12:29:06Z</time>
      </trkpt>
      <trkpt lat="48.41639" lon="2.48259">
        <ele>77.04</ele>
        <time>2021-10-23T12:29:25Z</time>
      </trkpt>
      <trkpt lat="48.41643" lon="2.48263">
        <ele>77.04</ele>
        <time>2021-10-23T12:29:29Z</time>
      </trkpt>
      <trkpt lat="48.41647" lon="2.48268">
        <ele>77.04</ele>
        <time>2021-10-23T12:29:34Z</time>
      </trkpt>
      <trkpt lat="48.41659" lon="2.48296">
        <ele>77.04</ele>
        <time>2021-10-23T12:29:50Z</time>
      </trkpt>
      <trkpt lat="48.41674" lon="2.4833">
        <ele>77.04</ele>
        <time>2021-10-23T12:30:09Z</time>
      </trkpt>
      <trkpt lat="48.41682" lon="2.48348">
        <ele>76.56</ele>
        <time>2021-10-23T12:30:21Z</time>
      </trkpt>
      <trkpt lat="48.41686" lon="2.48357">
        <ele>76.56</ele>
        <time>2021-10-23T12:30:26Z</time>
      </trkpt>
      <trkpt lat="48.417" lon="2.48384">
        <ele>76.56</ele>
        <time>2021-10-23T12:30:44Z</time>
      </trkpt>
      <trkpt lat="48.41704" lon="2.48392">
        <ele>77.04</ele>
        <time>2021-10-23T12:30:49Z</time>
      </trkpt>
      <trkpt lat="48.4172" lon="2.48417">
        <ele>77.04</ele>
        <time>2021-10-23T12:31:07Z</time>
      </trkpt>
      <trkpt lat="48.41722" lon="2.48417">
        <ele>76.56</ele>
        <time>2021-10-23T12:31:09Z</time>
      </trkpt>
      <trkpt lat="48.41738" lon="2.48407">
        <ele>76.56</ele>
        <time>2021-10-23T12:31:21Z</time>
      </trkpt>
      <trkpt lat="48.41745" lon="2.48405">
        <ele>76.56</ele>
        <time>2021-10-23T12:31:27Z</time>
      </trkpt>
      <trkpt lat="48.41767" lon="2.48414">
        <ele>76.56</ele>
        <time>2021-10-23T12:31:44Z</time>
      </trkpt>
      <trkpt lat="48.41772" lon="2.48417">
        <ele>76.56</ele>
        <time>2021-10-23T12:31:47Z</time>
      </trkpt>
      <trkpt lat="48.41787" lon="2.48423">
        <ele>76.56</ele>
        <time>2021-10-23T12:32:02Z</time>
      </trkpt>
      <trkpt lat="48.41789" lon="2.48423">
        <ele>76.56</ele>
        <time>2021-10-23T12:32:04Z</time>
      </trkpt>
      <trkpt lat="48.41799" lon="2.48421">
        <ele>76.08</ele>
        <time>2021-10-23T12:32:12Z</time>
      </trkpt>
      <trkpt lat="48.41804" lon="2.48417">
        <ele>75.6</ele>
        <time>2021-10-23T12:32:16Z</time>
      </trkpt>
      <trkpt lat="48.41812" lon="2.48396">
        <ele>76.08</ele>
        <time>2021-10-23T12:32:27Z</time>
      </trkpt>
      <trkpt lat="48.41812" lon="2.48384">
        <ele>75.6</ele>
        <time>2021-10-23T12:32:33Z</time>
      </trkpt>
      <trkpt lat="48.41821" lon="2.48353">
        <ele>75.6</ele>
        <time>2021-10-23T12:32:48Z</time>
      </trkpt>
      <trkpt lat="48.41834" lon="2.48341">
        <ele>75.6</ele>
        <time>2021-10-23T12:33:01Z</time>
      </trkpt>
      <trkpt lat="48.41853" lon="2.48345">
        <ele>76.08</ele>
        <time>2021-10-23T12:33:17Z</time>
      </trkpt>
      <trkpt lat="48.41872" lon="2.48348">
        <ele>75.6</ele>
        <time>2021-10-23T12:33:32Z</time>
      </trkpt>
      <trkpt lat="48.41881" lon="2.48347">
        <ele>76.08</ele>
        <time>2021-10-23T12:33:39Z</time>
      </trkpt>
      <trkpt lat="48.41898" lon="2.48344">
        <ele>77.04</ele>
        <time>2021-10-23T12:33:53Z</time>
      </trkpt>
      <trkpt lat="48.41922" lon="2.48354">
        <ele>78</ele>
        <time>2021-10-23T12:34:11Z</time>
      </trkpt>
      <trkpt lat="48.41929" lon="2.48362">
        <ele>78.97</ele>
        <time>2021-10-23T12:34:19Z</time>
      </trkpt>
      <trkpt lat="48.41938" lon="2.48384">
        <ele>80.41</ele>
        <time>2021-10-23T12:34:32Z</time>
      </trkpt>
      <trkpt lat="48.41952" lon="2.48406">
        <ele>80.89</ele>
        <time>2021-10-23T12:34:48Z</time>
      </trkpt>
      <trkpt lat="48.41964" lon="2.4842">
        <ele>82.33</ele>
        <time>2021-10-23T12:35:02Z</time>
      </trkpt>
      <trkpt lat="48.41979" lon="2.48429">
        <ele>83.77</ele>
        <time>2021-10-23T12:35:14Z</time>
      </trkpt>
      <trkpt lat="48.41996" lon="2.48434">
        <ele>85.69</ele>
        <time>2021-10-23T12:35:28Z</time>
      </trkpt>
      <trkpt lat="48.4201" lon="2.48446">
        <ele>86.18</ele>
        <time>2021-10-23T12:35:42Z</time>
      </trkpt>
      <trkpt lat="48.42014" lon="2.4845">
        <ele>86.66</ele>
        <time>2021-10-23T12:35:46Z</time>
      </trkpt>
      <trkpt lat="48.4203" lon="2.48458">
        <ele>87.62</ele>
        <time>2021-10-23T12:36:00Z</time>
      </trkpt>
      <trkpt lat="48.4204" lon="2.48468">
        <ele>88.58</ele>
        <time>2021-10-23T12:36:09Z</time>
      </trkpt>
      <trkpt lat="48.42051" lon="2.48488">
        <ele>90.02</ele>
        <time>2021-10-23T12:36:23Z</time>
      </trkpt>
      <trkpt lat="48.42057" lon="2.48503">
        <ele>90.98</ele>
        <time>2021-10-23T12:36:33Z</time>
      </trkpt>
      <trkpt lat="48.42063" lon="2.48525">
        <ele>92.42</ele>
        <time>2021-10-23T12:36:47Z</time>
      </trkpt>
      <trkpt lat="48.42063" lon="2.48537">
        <ele>93.39</ele>
        <time>2021-10-23T12:36:56Z</time>
      </trkpt>
      <trkpt lat="48.42059" lon="2.48556">
        <ele>94.83</ele>
        <time>2021-10-23T12:37:10Z</time>
      </trkpt>
      <trkpt lat="48.42057" lon="2.48572">
        <ele>95.79</ele>
        <time>2021-10-23T12:37:21Z</time>
      </trkpt>
      <trkpt lat="48.42055" lon="2.48583">
        <ele>96.27</ele>
        <time>2021-10-23T12:37:27Z</time>
      </trkpt>
      <trkpt lat="48.4205" lon="2.48609">
        <ele>97.23</ele>
        <time>2021-10-23T12:37:42Z</time>
      </trkpt>
      <trkpt lat="48.42045" lon="2.48637">
        <ele>98.19</ele>
        <time>2021-10-23T12:37:58Z</time>
      </trkpt>
      <trkpt lat="48.42037" lon="2.48666">
        <ele>99.15</ele>
        <time>2021-10-23T12:38:15Z</time>
      </trkpt>
      <trkpt lat="48.4203" lon="2.48682">
        <ele>101.08</ele>
        <time>2021-10-23T12:38:27Z</time>
      </trkpt>
      <trkpt lat="48.42022" lon="2.48709">
        <ele>103.96</ele>
        <time>2021-10-23T12:38:44Z</time>
      </trkpt>
      <trkpt lat="48.42021" lon="2.48717">
        <ele>103.96</ele>
        <time>2021-10-23T12:38:49Z</time>
      </trkpt>
      <trkpt lat="48.42026" lon="2.48739">
        <ele>104.92</ele>
        <time>2021-10-23T12:39:01Z</time>
      </trkpt>
      <trkpt lat="48.42027" lon="2.48743">
        <ele>105.4</ele>
        <time>2021-10-23T12:39:03Z</time>
      </trkpt>
      <trkpt lat="48.42037" lon="2.48755">
        <ele>107.81</ele>
        <time>2021-10-23T12:39:20Z</time>
      </trkpt>
      <trkpt lat="48.42045" lon="2.48756">
        <ele>109.25</ele>
        <time>2021-10-23T12:39:28Z</time>
      </trkpt>
      <trkpt lat="48.42056" lon="2.48747">
        <ele>110.69</ele>
        <time>2021-10-23T12:39:38Z</time>
      </trkpt>
      <trkpt lat="48.42072" lon="2.48746">
        <ele>112.61</ele>
        <time>2021-10-23T12:39:53Z</time>
      </trkpt>
      <trkpt lat="48.4208" lon="2.48759">
        <ele>114.53</ele>
        <time>2021-10-23T12:40:05Z</time>
      </trkpt>
      <trkpt lat="48.42083" lon="2.48786">
        <ele>115.98</ele>
        <time>2021-10-23T12:40:24Z</time>
      </trkpt>
      <trkpt lat="48.42085" lon="2.48807">
        <ele>117.42</ele>
        <time>2021-10-23T12:40:39Z</time>
      </trkpt>
      <trkpt lat="48.42088" lon="2.4881">
        <ele>116.94</ele>
        <time>2021-10-23T12:40:46Z</time>
      </trkpt>
      <trkpt lat="48.42094" lon="2.48812">
        <ele>119.82</ele>
        <time>2021-10-23T12:40:57Z</time>
      </trkpt>
      <trkpt lat="48.42098" lon="2.48812">
        <ele>121.26</ele>
        <time>2021-10-23T12:41:04Z</time>
      </trkpt>
      <trkpt lat="48.42104" lon="2.48816">
        <ele>121.74</ele>
        <time>2021-10-23T12:41:12Z</time>
      </trkpt>
      <trkpt lat="48.42106" lon="2.48822">
        <ele>123.19</ele>
        <time>2021-10-23T12:41:18Z</time>
      </trkpt>
      <trkpt lat="48.42106" lon="2.48825">
        <ele>123.67</ele>
        <time>2021-10-23T12:41:20Z</time>
      </trkpt>
      <trkpt lat="48.42105" lon="2.48831">
        <ele>124.15</ele>
        <time>2021-10-23T12:41:26Z</time>
      </trkpt>
      <trkpt lat="48.42105" lon="2.48834">
        <ele>124.15</ele>
        <time>2021-10-23T12:41:28Z</time>
      </trkpt>
      <trkpt lat="48.42101" lon="2.48854">
        <ele>123.67</ele>
        <time>2021-10-23T12:41:42Z</time>
      </trkpt>
      <trkpt lat="48.42093" lon="2.48876">
        <ele>124.15</ele>
        <time>2021-10-23T12:41:54Z</time>
      </trkpt>
      <trkpt lat="48.42088" lon="2.48895">
        <ele>123.67</ele>
        <time>2021-10-23T12:42:06Z</time>
      </trkpt>
      <trkpt lat="48.42088" lon="2.48896">
        <ele>124.15</ele>
        <time>2021-10-23T12:42:07Z</time>
      </trkpt>
      <trkpt lat="48.42086" lon="2.48905">
        <ele>123.67</ele>
        <time>2021-10-23T12:42:11Z</time>
      </trkpt>
      <trkpt lat="48.42085" lon="2.48918">
        <ele>123.67</ele>
        <time>2021-10-23T12:42:17Z</time>
      </trkpt>
      <trkpt lat="48.42085" lon="2.48921">
        <ele>123.67</ele>
        <time>2021-10-23T12:42:19Z</time>
      </trkpt>
      <trkpt lat="48.42085" lon="2.48923">
        <ele>123.67</ele>
        <time>2021-10-23T12:42:21Z</time>
      </trkpt>
      <trkpt lat="48.42085" lon="2.4893">
        <ele>123.67</ele>
        <time>2021-10-23T12:42:26Z</time>
      </trkpt>
      <trkpt lat="48.42077" lon="2.48942">
        <ele>123.67</ele>
        <time>2021-10-23T12:42:35Z</time>
      </trkpt>
      <trkpt lat="48.42073" lon="2.48943">
        <ele>123.67</ele>
        <time>2021-10-23T12:42:39Z</time>
      </trkpt>
      <trkpt lat="48.4207" lon="2.48947">
        <ele>123.67</ele>
        <time>2021-10-23T12:42:43Z</time>
      </trkpt>
      <trkpt lat="48.42068" lon="2.48957">
        <ele>123.19</ele>
        <time>2021-10-23T12:42:56Z</time>
      </trkpt>
      <trkpt lat="48.42062" lon="2.48978">
        <ele>123.19</ele>
        <time>2021-10-23T12:43:08Z</time>
      </trkpt>
      <trkpt lat="48.42061" lon="2.48981">
        <ele>123.67</ele>
        <time>2021-10-23T12:43:10Z</time>
      </trkpt>
      <trkpt lat="48.42061" lon="2.48983">
        <ele>123.67</ele>
        <time>2021-10-23T12:43:11Z</time>
      </trkpt>
      <trkpt lat="48.4206" lon="2.48985">
        <ele>123.67</ele>
        <time>2021-10-23T12:43:12Z</time>
      </trkpt>
      <trkpt lat="48.42054" lon="2.49008">
        <ele>123.19</ele>
        <time>2021-10-23T12:43:25Z</time>
      </trkpt>
      <trkpt lat="48.42049" lon="2.49031">
        <ele>122.71</ele>
        <time>2021-10-23T12:43:37Z</time>
      </trkpt>
      <trkpt lat="48.42046" lon="2.49045">
        <ele>123.19</ele>
        <time>2021-10-23T12:43:45Z</time>
      </trkpt>
      <trkpt lat="48.42046" lon="2.49047">
        <ele>123.19</ele>
        <time>2021-10-23T12:43:46Z</time>
      </trkpt>
      <trkpt lat="48.42045" lon="2.49049">
        <ele>122.71</ele>
        <time>2021-10-23T12:43:47Z</time>
      </trkpt>
      <trkpt lat="48.42045" lon="2.49051">
        <ele>123.19</ele>
        <time>2021-10-23T12:43:48Z</time>
      </trkpt>
      <trkpt lat="48.42044" lon="2.49053">
        <ele>123.19</ele>
        <time>2021-10-23T12:43:49Z</time>
      </trkpt>
      <trkpt lat="48.42042" lon="2.49077">
        <ele>122.71</ele>
        <time>2021-10-23T12:44:01Z</time>
      </trkpt>
      <trkpt lat="48.42043" lon="2.49109">
        <ele>123.19</ele>
        <time>2021-10-23T12:44:17Z</time>
      </trkpt>
      <trkpt lat="48.4204" lon="2.49117">
        <ele>123.67</ele>
        <time>2021-10-23T12:44:22Z</time>
      </trkpt>
      <trkpt lat="48.4204" lon="2.49119">
        <ele>123.67</ele>
        <time>2021-10-23T12:44:23Z</time>
      </trkpt>
      <trkpt lat="48.42039" lon="2.4912">
        <ele>123.67</ele>
        <time>2021-10-23T12:44:24Z</time>
      </trkpt>
      <trkpt lat="48.4204" lon="2.49122">
        <ele>123.19</ele>
        <time>2021-10-23T12:44:25Z</time>
      </trkpt>
      <trkpt lat="48.4204" lon="2.49128">
        <ele>123.67</ele>
        <time>2021-10-23T12:44:28Z</time>
      </trkpt>
      <trkpt lat="48.42039" lon="2.49132">
        <ele>123.19</ele>
        <time>2021-10-23T12:44:31Z</time>
      </trkpt>
      <trkpt lat="48.42039" lon="2.49133">
        <ele>123.67</ele>
        <time>2021-10-23T12:44:32Z</time>
      </trkpt>
      <trkpt lat="48.42038" lon="2.49135">
        <ele>123.67</ele>
        <time>2021-10-23T12:44:33Z</time>
      </trkpt>
      <trkpt lat="48.42037" lon="2.49137">
        <ele>123.19</ele>
        <time>2021-10-23T12:44:34Z</time>
      </trkpt>
      <trkpt lat="48.42036" lon="2.49139">
        <ele>123.19</ele>
        <time>2021-10-23T12:44:35Z</time>
      </trkpt>
      <trkpt lat="48.42036" lon="2.49141">
        <ele>123.19</ele>
        <time>2021-10-23T12:44:36Z</time>
      </trkpt>
      <trkpt lat="48.42036" lon="2.49144">
        <ele>123.67</ele>
        <time>2021-10-23T12:44:37Z</time>
      </trkpt>
      <trkpt lat="48.42034" lon="2.49155">
        <ele>123.19</ele>
        <time>2021-10-23T12:44:44Z</time>
      </trkpt>
      <trkpt lat="48.42033" lon="2.49157">
        <ele>123.19</ele>
        <time>2021-10-23T12:44:45Z</time>
      </trkpt>
      <trkpt lat="48.42031" lon="2.49165">
        <ele>122.71</ele>
        <time>2021-10-23T12:44:48Z</time>
      </trkpt>
      <trkpt lat="48.4203" lon="2.49167">
        <ele>123.19</ele>
        <time>2021-10-23T12:44:49Z</time>
      </trkpt>
      <trkpt lat="48.42022" lon="2.49185">
        <ele>122.71</ele>
        <time>2021-10-23T12:45:02Z</time>
      </trkpt>
      <trkpt lat="48.42018" lon="2.49188">
        <ele>123.19</ele>
        <time>2021-10-23T12:45:15Z</time>
      </trkpt>
      <trkpt lat="48.42012" lon="2.49206">
        <ele>122.71</ele>
        <time>2021-10-23T12:45:29Z</time>
      </trkpt>
      <trkpt lat="48.42005" lon="2.49213">
        <ele>122.22</ele>
        <time>2021-10-23T12:45:44Z</time>
      </trkpt>
      <trkpt lat="48.42003" lon="2.49217">
        <ele>122.22</ele>
        <time>2021-10-23T12:45:57Z</time>
      </trkpt>
      <trkpt lat="48.42003" lon="2.49221">
        <ele>121.74</ele>
        <time>2021-10-23T12:46:00Z</time>
      </trkpt>
      <trkpt lat="48.42003" lon="2.49223">
        <ele>121.26</ele>
        <time>2021-10-23T12:46:01Z</time>
      </trkpt>
      <trkpt lat="48.42004" lon="2.49246">
        <ele>121.74</ele>
        <time>2021-10-23T12:46:13Z</time>
      </trkpt>
      <trkpt lat="48.42003" lon="2.49247">
        <ele>121.74</ele>
        <time>2021-10-23T12:46:14Z</time>
      </trkpt>
      <trkpt lat="48.41996" lon="2.49254">
        <ele>122.71</ele>
        <time>2021-10-23T12:46:25Z</time>
      </trkpt>
      <trkpt lat="48.41995" lon="2.49255">
        <ele>122.71</ele>
        <time>2021-10-23T12:46:26Z</time>
      </trkpt>
      <trkpt lat="48.41994" lon="2.49256">
        <ele>123.19</ele>
        <time>2021-10-23T12:46:27Z</time>
      </trkpt>
      <trkpt lat="48.41987" lon="2.49267">
        <ele>123.19</ele>
        <time>2021-10-23T12:46:38Z</time>
      </trkpt>
      <trkpt lat="48.41986" lon="2.49272">
        <ele>122.71</ele>
        <time>2021-10-23T12:46:41Z</time>
      </trkpt>
      <trkpt lat="48.41986" lon="2.49274">
        <ele>122.71</ele>
        <time>2021-10-23T12:46:42Z</time>
      </trkpt>
      <trkpt lat="48.41985" lon="2.49277">
        <ele>122.22</ele>
        <time>2021-10-23T12:46:43Z</time>
      </trkpt>
      <trkpt lat="48.41985" lon="2.49292">
        <ele>122.71</ele>
        <time>2021-10-23T12:46:51Z</time>
      </trkpt>
      <trkpt lat="48.41985" lon="2.49294">
        <ele>122.71</ele>
        <time>2021-10-23T12:46:52Z</time>
      </trkpt>
      <trkpt lat="48.41988" lon="2.49316">
        <ele>120.78</ele>
        <time>2021-10-23T12:47:05Z</time>
      </trkpt>
      <trkpt lat="48.41987" lon="2.49323">
        <ele>119.82</ele>
        <time>2021-10-23T12:47:09Z</time>
      </trkpt>
      <trkpt lat="48.4198" lon="2.49338">
        <ele>116.94</ele>
        <time>2021-10-23T12:47:21Z</time>
      </trkpt>
      <trkpt lat="48.41971" lon="2.49345">
        <ele>114.53</ele>
        <time>2021-10-23T12:47:33Z</time>
      </trkpt>
      <trkpt lat="48.41961" lon="2.4935">
        <ele>111.65</ele>
        <time>2021-10-23T12:47:46Z</time>
      </trkpt>
      <trkpt lat="48.41957" lon="2.4935">
        <ele>109.73</ele>
        <time>2021-10-23T12:47:59Z</time>
      </trkpt>
      <trkpt lat="48.41951" lon="2.49354">
        <ele>109.25</ele>
        <time>2021-10-23T12:48:12Z</time>
      </trkpt>
      <trkpt lat="48.41947" lon="2.49354">
        <ele>109.25</ele>
        <time>2021-10-23T12:48:25Z</time>
      </trkpt>
      <trkpt lat="48.41944" lon="2.49352">
        <ele>107.81</ele>
        <time>2021-10-23T12:48:40Z</time>
      </trkpt>
      <trkpt lat="48.4194" lon="2.49352">
        <ele>106.84</ele>
        <time>2021-10-23T12:48:54Z</time>
      </trkpt>
      <trkpt lat="48.41934" lon="2.49355">
        <ele>106.36</ele>
        <time>2021-10-23T12:48:59Z</time>
      </trkpt>
      <trkpt lat="48.41933" lon="2.49356">
        <ele>105.88</ele>
        <time>2021-10-23T12:49:00Z</time>
      </trkpt>
      <trkpt lat="48.41926" lon="2.49359">
        <ele>104.92</ele>
        <time>2021-10-23T12:49:05Z</time>
      </trkpt>
      <trkpt lat="48.41913" lon="2.49363">
        <ele>104.44</ele>
        <time>2021-10-23T12:49:15Z</time>
      </trkpt>
      <trkpt lat="48.41912" lon="2.49362">
        <ele>104.44</ele>
        <time>2021-10-23T12:49:16Z</time>
      </trkpt>
      <trkpt lat="48.4191" lon="2.49362">
        <ele>104.44</ele>
        <time>2021-10-23T12:49:17Z</time>
      </trkpt>
      <trkpt lat="48.41908" lon="2.49361">
        <ele>103.96</ele>
        <time>2021-10-23T12:49:18Z</time>
      </trkpt>
      <trkpt lat="48.41906" lon="2.49361">
        <ele>103.96</ele>
        <time>2021-10-23T12:49:19Z</time>
      </trkpt>
      <trkpt lat="48.41896" lon="2.49362">
        <ele>103.48</ele>
        <time>2021-10-23T12:49:29Z</time>
      </trkpt>
      <trkpt lat="48.41882" lon="2.49365">
        <ele>102.52</ele>
        <time>2021-10-23T12:49:40Z</time>
      </trkpt>
      <trkpt lat="48.41868" lon="2.4938">
        <ele>102.04</ele>
        <time>2021-10-23T12:49:54Z</time>
      </trkpt>
      <trkpt lat="48.41862" lon="2.49397">
        <ele>102.04</ele>
        <time>2021-10-23T12:50:10Z</time>
      </trkpt>
      <trkpt lat="48.4186" lon="2.49401">
        <ele>102.04</ele>
        <time>2021-10-23T12:50:16Z</time>
      </trkpt>
      <trkpt lat="48.4186" lon="2.49402">
        <ele>101.56</ele>
        <time>2021-10-23T12:50:17Z</time>
      </trkpt>
      <trkpt lat="48.41859" lon="2.49406">
        <ele>101.56</ele>
        <time>2021-10-23T12:50:22Z</time>
      </trkpt>
      <trkpt lat="48.41858" lon="2.49408">
        <ele>102.04</ele>
        <time>2021-10-23T12:50:23Z</time>
      </trkpt>
      <trkpt lat="48.41858" lon="2.4941">
        <ele>101.56</ele>
        <time>2021-10-23T12:50:24Z</time>
      </trkpt>
      <trkpt lat="48.41857" lon="2.49411">
        <ele>101.56</ele>
        <time>2021-10-23T12:50:25Z</time>
      </trkpt>
      <trkpt lat="48.41856" lon="2.49413">
        <ele>101.56</ele>
        <time>2021-10-23T12:50:26Z</time>
      </trkpt>
      <trkpt lat="48.41856" lon="2.49414">
        <ele>101.56</ele>
        <time>2021-10-23T12:50:27Z</time>
      </trkpt>
      <trkpt lat="48.41856" lon="2.49418">
        <ele>101.56</ele>
        <time>2021-10-23T12:50:29Z</time>
      </trkpt>
      <trkpt lat="48.41856" lon="2.49427">
        <ele>102.04</ele>
        <time>2021-10-23T12:50:35Z</time>
      </trkpt>
      <trkpt lat="48.41855" lon="2.49443">
        <ele>102.04</ele>
        <time>2021-10-23T12:50:44Z</time>
      </trkpt>
      <trkpt lat="48.41853" lon="2.49448">
        <ele>102.52</ele>
        <time>2021-10-23T12:50:47Z</time>
      </trkpt>
      <trkpt lat="48.41852" lon="2.49452">
        <ele>102.52</ele>
        <time>2021-10-23T12:50:50Z</time>
      </trkpt>
      <trkpt lat="48.41844" lon="2.49478">
        <ele>102.52</ele>
        <time>2021-10-23T12:51:05Z</time>
      </trkpt>
      <trkpt lat="48.41844" lon="2.4948">
        <ele>102.04</ele>
        <time>2021-10-23T12:51:06Z</time>
      </trkpt>
      <trkpt lat="48.41844" lon="2.49483">
        <ele>102.52</ele>
        <time>2021-10-23T12:51:07Z</time>
      </trkpt>
      <trkpt lat="48.41843" lon="2.49485">
        <ele>102.52</ele>
        <time>2021-10-23T12:51:08Z</time>
      </trkpt>
      <trkpt lat="48.41843" lon="2.49486">
        <ele>102.04</ele>
        <time>2021-10-23T12:51:09Z</time>
      </trkpt>
      <trkpt lat="48.41844" lon="2.49488">
        <ele>102.52</ele>
        <time>2021-10-23T12:51:10Z</time>
      </trkpt>
      <trkpt lat="48.41844" lon="2.4949">
        <ele>102.52</ele>
        <time>2021-10-23T12:51:11Z</time>
      </trkpt>
      <trkpt lat="48.41844" lon="2.49492">
        <ele>102.52</ele>
        <time>2021-10-23T12:51:12Z</time>
      </trkpt>
      <trkpt lat="48.41844" lon="2.49496">
        <ele>102.52</ele>
        <time>2021-10-23T12:51:14Z</time>
      </trkpt>
      <trkpt lat="48.41845" lon="2.49503">
        <ele>102.52</ele>
        <time>2021-10-23T12:51:19Z</time>
      </trkpt>
      <trkpt lat="48.41845" lon="2.49509">
        <ele>103</ele>
        <time>2021-10-23T12:51:23Z</time>
      </trkpt>
      <trkpt lat="48.41839" lon="2.49533">
        <ele>102.52</ele>
        <time>2021-10-23T12:51:35Z</time>
      </trkpt>
      <trkpt lat="48.4184" lon="2.49542">
        <ele>102.52</ele>
        <time>2021-10-23T12:51:40Z</time>
      </trkpt>
      <trkpt lat="48.41841" lon="2.49544">
        <ele>103</ele>
        <time>2021-10-23T12:51:41Z</time>
      </trkpt>
      <trkpt lat="48.41838" lon="2.49563">
        <ele>103</ele>
        <time>2021-10-23T12:51:54Z</time>
      </trkpt>
      <trkpt lat="48.41836" lon="2.49564">
        <ele>103.48</ele>
        <time>2021-10-23T12:51:55Z</time>
      </trkpt>
      <trkpt lat="48.41832" lon="2.49572">
        <ele>103</ele>
        <time>2021-10-23T12:52:00Z</time>
      </trkpt>
      <trkpt lat="48.41833" lon="2.49585">
        <ele>103</ele>
        <time>2021-10-23T12:52:06Z</time>
      </trkpt>
      <trkpt lat="48.41827" lon="2.49609">
        <ele>103.96</ele>
        <time>2021-10-23T12:52:20Z</time>
      </trkpt>
      <trkpt lat="48.41818" lon="2.49637">
        <ele>103.96</ele>
        <time>2021-10-23T12:52:36Z</time>
      </trkpt>
      <trkpt lat="48.41816" lon="2.49659">
        <ele>103.96</ele>
        <time>2021-10-23T12:52:48Z</time>
      </trkpt>
      <trkpt lat="48.41814" lon="2.49673">
        <ele>104.44</ele>
        <time>2021-10-23T12:52:56Z</time>
      </trkpt>
      <trkpt lat="48.41814" lon="2.49675">
        <ele>104.44</ele>
        <time>2021-10-23T12:52:57Z</time>
      </trkpt>
      <trkpt lat="48.41808" lon="2.497">
        <ele>105.88</ele>
        <time>2021-10-23T12:53:11Z</time>
      </trkpt>
      <trkpt lat="48.41805" lon="2.4974">
        <ele>106.84</ele>
        <time>2021-10-23T12:53:33Z</time>
      </trkpt>
      <trkpt lat="48.41798" lon="2.49771">
        <ele>108.29</ele>
        <time>2021-10-23T12:53:52Z</time>
      </trkpt>
      <trkpt lat="48.41796" lon="2.49784">
        <ele>108.77</ele>
        <time>2021-10-23T12:54:00Z</time>
      </trkpt>
      <trkpt lat="48.41795" lon="2.49786">
        <ele>108.77</ele>
        <time>2021-10-23T12:54:01Z</time>
      </trkpt>
      <trkpt lat="48.41793" lon="2.49794">
        <ele>109.25</ele>
        <time>2021-10-23T12:54:06Z</time>
      </trkpt>
      <trkpt lat="48.41791" lon="2.49814">
        <ele>109.73</ele>
        <time>2021-10-23T12:54:17Z</time>
      </trkpt>
      <trkpt lat="48.41789" lon="2.49831">
        <ele>110.21</ele>
        <time>2021-10-23T12:54:28Z</time>
      </trkpt>
      <trkpt lat="48.41788" lon="2.49833">
        <ele>110.69</ele>
        <time>2021-10-23T12:54:29Z</time>
      </trkpt>
      <trkpt lat="48.41785" lon="2.49848">
        <ele>112.13</ele>
        <time>2021-10-23T12:54:40Z</time>
      </trkpt>
      <trkpt lat="48.41783" lon="2.49871">
        <ele>112.61</ele>
        <time>2021-10-23T12:54:54Z</time>
      </trkpt>
      <trkpt lat="48.41779" lon="2.49884">
        <ele>113.57</ele>
        <time>2021-10-23T12:55:07Z</time>
      </trkpt>
      <trkpt lat="48.41778" lon="2.49899">
        <ele>115.01</ele>
        <time>2021-10-23T12:55:19Z</time>
      </trkpt>
      <trkpt lat="48.41774" lon="2.49926">
        <ele>116.46</ele>
        <time>2021-10-23T12:55:34Z</time>
      </trkpt>
      <trkpt lat="48.41774" lon="2.49933">
        <ele>116.94</ele>
        <time>2021-10-23T12:55:39Z</time>
      </trkpt>
      <trkpt lat="48.41774" lon="2.49947">
        <ele>118.38</ele>
        <time>2021-10-23T12:55:53Z</time>
      </trkpt>
      <trkpt lat="48.41772" lon="2.49956">
        <ele>119.34</ele>
        <time>2021-10-23T12:55:59Z</time>
      </trkpt>
      <trkpt lat="48.41769" lon="2.49982">
        <ele>121.26</ele>
        <time>2021-10-23T12:56:16Z</time>
      </trkpt>
      <trkpt lat="48.41766" lon="2.5">
        <ele>121.74</ele>
        <time>2021-10-23T12:56:26Z</time>
      </trkpt>
      <trkpt lat="48.41761" lon="2.50024">
        <ele>122.22</ele>
        <time>2021-10-23T12:56:41Z</time>
      </trkpt>
      <trkpt lat="48.41758" lon="2.50035">
        <ele>123.67</ele>
        <time>2021-10-23T12:56:50Z</time>
      </trkpt>
      <trkpt lat="48.41753" lon="2.50067">
        <ele>124.63</ele>
        <time>2021-10-23T12:57:07Z</time>
      </trkpt>
      <trkpt lat="48.41751" lon="2.50089">
        <ele>125.11</ele>
        <time>2021-10-23T12:57:21Z</time>
      </trkpt>
      <trkpt lat="48.41749" lon="2.50113">
        <ele>125.11</ele>
        <time>2021-10-23T12:57:35Z</time>
      </trkpt>
      <trkpt lat="48.41748" lon="2.50137">
        <ele>125.59</ele>
        <time>2021-10-23T12:57:49Z</time>
      </trkpt>
      <trkpt lat="48.41746" lon="2.50165">
        <ele>125.59</ele>
        <time>2021-10-23T12:58:05Z</time>
      </trkpt>
      <trkpt lat="48.41747" lon="2.50183">
        <ele>125.11</ele>
        <time>2021-10-23T12:58:14Z</time>
      </trkpt>
      <trkpt lat="48.41747" lon="2.50185">
        <ele>125.11</ele>
        <time>2021-10-23T12:58:15Z</time>
      </trkpt>
      <trkpt lat="48.41765" lon="2.50198">
        <ele>125.59</ele>
        <time>2021-10-23T12:58:33Z</time>
      </trkpt>
      <trkpt lat="48.41765" lon="2.50197">
        <ele>122.71</ele>
        <time>2021-10-23T13:00:58Z</time>
      </trkpt>
      <trkpt lat="48.41757" lon="2.50211">
        <ele>122.71</ele>
        <time>2021-10-23T13:00:59Z</time>
      </trkpt>
      <trkpt lat="48.41762" lon="2.50201">
        <ele>120.3</ele>
        <time>2021-10-23T13:01:17Z</time>
      </trkpt>
      <trkpt lat="48.41748" lon="2.50203">
        <ele>119.34</ele>
        <time>2021-10-23T13:01:33Z</time>
      </trkpt>
      <trkpt lat="48.41741" lon="2.50223">
        <ele>120.3</ele>
        <time>2021-10-23T13:01:51Z</time>
      </trkpt>
      <trkpt lat="48.41739" lon="2.50236">
        <ele>119.34</ele>
        <time>2021-10-23T13:02:07Z</time>
      </trkpt>
      <trkpt lat="48.41735" lon="2.50262">
        <ele>119.34</ele>
        <time>2021-10-23T13:02:24Z</time>
      </trkpt>
      <trkpt lat="48.41731" lon="2.50291">
        <ele>118.86</ele>
        <time>2021-10-23T13:02:42Z</time>
      </trkpt>
      <trkpt lat="48.41726" lon="2.50311">
        <ele>118.38</ele>
        <time>2021-10-23T13:03:00Z</time>
      </trkpt>
      <trkpt lat="48.41728" lon="2.50335">
        <ele>118.38</ele>
        <time>2021-10-23T13:03:16Z</time>
      </trkpt>
      <trkpt lat="48.41728" lon="2.50334">
        <ele>119.34</ele>
        <time>2021-10-23T13:03:45Z</time>
      </trkpt>
      <trkpt lat="48.41729" lon="2.50332">
        <ele>120.78</ele>
        <time>2021-10-23T13:03:50Z</time>
      </trkpt>
      <trkpt lat="48.4173" lon="2.50332">
        <ele>119.34</ele>
        <time>2021-10-23T13:03:52Z</time>
      </trkpt>
      <trkpt lat="48.41731" lon="2.50343">
        <ele>118.86</ele>
        <time>2021-10-23T13:04:10Z</time>
      </trkpt>
      <trkpt lat="48.41729" lon="2.50369">
        <ele>120.3</ele>
        <time>2021-10-23T13:04:27Z</time>
      </trkpt>
      <trkpt lat="48.41721" lon="2.50408">
        <ele>120.78</ele>
        <time>2021-10-23T13:04:42Z</time>
      </trkpt>
      <trkpt lat="48.4172" lon="2.50433">
        <ele>121.26</ele>
        <time>2021-10-23T13:05:00Z</time>
      </trkpt>
      <trkpt lat="48.41716" lon="2.50463">
        <ele>121.74</ele>
        <time>2021-10-23T13:05:15Z</time>
      </trkpt>
      <trkpt lat="48.4171" lon="2.50497">
        <ele>121.74</ele>
        <time>2021-10-23T13:05:32Z</time>
      </trkpt>
      <trkpt lat="48.41709" lon="2.50539">
        <ele>122.22</ele>
        <time>2021-10-23T13:05:51Z</time>
      </trkpt>
      <trkpt lat="48.41707" lon="2.50566">
        <ele>121.74</ele>
        <time>2021-10-23T13:06:06Z</time>
      </trkpt>
      <trkpt lat="48.41705" lon="2.50596">
        <ele>121.74</ele>
        <time>2021-10-23T13:06:20Z</time>
      </trkpt>
      <trkpt lat="48.41702" lon="2.50627">
        <ele>121.74</ele>
        <time>2021-10-23T13:06:37Z</time>
      </trkpt>
      <trkpt lat="48.41696" lon="2.50657">
        <ele>122.22</ele>
        <time>2021-10-23T13:06:52Z</time>
      </trkpt>
      <trkpt lat="48.41692" lon="2.5069">
        <ele>122.22</ele>
        <time>2021-10-23T13:07:08Z</time>
      </trkpt>
      <trkpt lat="48.41691" lon="2.50722">
        <ele>122.71</ele>
        <time>2021-10-23T13:07:24Z</time>
      </trkpt>
      <trkpt lat="48.41693" lon="2.50742">
        <ele>123.19</ele>
        <time>2021-10-23T13:07:38Z</time>
      </trkpt>
      <trkpt lat="48.41687" lon="2.50775">
        <ele>123.67</ele>
        <time>2021-10-23T13:07:53Z</time>
      </trkpt>
      <trkpt lat="48.41686" lon="2.50801">
        <ele>124.15</ele>
        <time>2021-10-23T13:08:06Z</time>
      </trkpt>
      <trkpt lat="48.41686" lon="2.5082">
        <ele>123.67</ele>
        <time>2021-10-23T13:08:20Z</time>
      </trkpt>
      <trkpt lat="48.41684" lon="2.50851">
        <ele>123.19</ele>
        <time>2021-10-23T13:08:38Z</time>
      </trkpt>
      <trkpt lat="48.41681" lon="2.50882">
        <ele>123.19</ele>
        <time>2021-10-23T13:08:55Z</time>
      </trkpt>
      <trkpt lat="48.41678" lon="2.50923">
        <ele>123.19</ele>
        <time>2021-10-23T13:09:14Z</time>
      </trkpt>
      <trkpt lat="48.41671" lon="2.50947">
        <ele>123.19</ele>
        <time>2021-10-23T13:09:31Z</time>
      </trkpt>
      <trkpt lat="48.41673" lon="2.50961">
        <ele>123.19</ele>
        <time>2021-10-23T13:10:39Z</time>
      </trkpt>
      <trkpt lat="48.41673" lon="2.5098">
        <ele>123.19</ele>
        <time>2021-10-23T13:10:45Z</time>
      </trkpt>
      <trkpt lat="48.4167" lon="2.51022">
        <ele>122.71</ele>
        <time>2021-10-23T13:10:56Z</time>
      </trkpt>
      <trkpt lat="48.41667" lon="2.51052">
        <ele>123.19</ele>
        <time>2021-10-23T13:11:04Z</time>
      </trkpt>
      <trkpt lat="48.41668" lon="2.51076">
        <ele>122.71</ele>
        <time>2021-10-23T13:11:12Z</time>
      </trkpt>
      <trkpt lat="48.41668" lon="2.5108">
        <ele>122.71</ele>
        <time>2021-10-23T13:11:13Z</time>
      </trkpt>
      <trkpt lat="48.41665" lon="2.51113">
        <ele>122.71</ele>
        <time>2021-10-23T13:11:20Z</time>
      </trkpt>
      <trkpt lat="48.41664" lon="2.51119">
        <ele>122.22</ele>
        <time>2021-10-23T13:11:21Z</time>
      </trkpt>
      <trkpt lat="48.41664" lon="2.51123">
        <ele>122.71</ele>
        <time>2021-10-23T13:11:22Z</time>
      </trkpt>
      <trkpt lat="48.41663" lon="2.51129">
        <ele>122.71</ele>
        <time>2021-10-23T13:11:23Z</time>
      </trkpt>
      <trkpt lat="48.41662" lon="2.51134">
        <ele>122.71</ele>
        <time>2021-10-23T13:11:24Z</time>
      </trkpt>
      <trkpt lat="48.41657" lon="2.51165">
        <ele>123.19</ele>
        <time>2021-10-23T13:11:35Z</time>
      </trkpt>
      <trkpt lat="48.41651" lon="2.51195">
        <ele>123.19</ele>
        <time>2021-10-23T13:11:49Z</time>
      </trkpt>
      <trkpt lat="48.41647" lon="2.51224">
        <ele>123.67</ele>
        <time>2021-10-23T13:12:05Z</time>
      </trkpt>
      <trkpt lat="48.41644" lon="2.51255">
        <ele>123.67</ele>
        <time>2021-10-23T13:12:21Z</time>
      </trkpt>
      <trkpt lat="48.41642" lon="2.5128">
        <ele>123.67</ele>
        <time>2021-10-23T13:12:35Z</time>
      </trkpt>
      <trkpt lat="48.4164" lon="2.51305">
        <ele>124.63</ele>
        <time>2021-10-23T13:12:49Z</time>
      </trkpt>
      <trkpt lat="48.41639" lon="2.51315">
        <ele>124.63</ele>
        <time>2021-10-23T13:12:54Z</time>
      </trkpt>
      <trkpt lat="48.41636" lon="2.51345">
        <ele>125.11</ele>
        <time>2021-10-23T13:13:10Z</time>
      </trkpt>
      <trkpt lat="48.41632" lon="2.5138">
        <ele>125.11</ele>
        <time>2021-10-23T13:13:27Z</time>
      </trkpt>
      <trkpt lat="48.41631" lon="2.51403">
        <ele>125.11</ele>
        <time>2021-10-23T13:13:39Z</time>
      </trkpt>
      <trkpt lat="48.41629" lon="2.51434">
        <ele>124.63</ele>
        <time>2021-10-23T13:13:54Z</time>
      </trkpt>
      <trkpt lat="48.4163" lon="2.51472">
        <ele>124.15</ele>
        <time>2021-10-23T13:14:12Z</time>
      </trkpt>
      <trkpt lat="48.41629" lon="2.51502">
        <ele>123.67</ele>
        <time>2021-10-23T13:14:28Z</time>
      </trkpt>
      <trkpt lat="48.41625" lon="2.5153">
        <ele>122.71</ele>
        <time>2021-10-23T13:14:43Z</time>
      </trkpt>
      <trkpt lat="48.41623" lon="2.51549">
        <ele>122.71</ele>
        <time>2021-10-23T13:14:52Z</time>
      </trkpt>
      <trkpt lat="48.41622" lon="2.51581">
        <ele>121.74</ele>
        <time>2021-10-23T13:15:07Z</time>
      </trkpt>
      <trkpt lat="48.41627" lon="2.51612">
        <ele>121.74</ele>
        <time>2021-10-23T13:15:23Z</time>
      </trkpt>
      <trkpt lat="48.41629" lon="2.51622">
        <ele>121.74</ele>
        <time>2021-10-23T13:15:28Z</time>
      </trkpt>
      <trkpt lat="48.41629" lon="2.51624">
        <ele>121.74</ele>
        <time>2021-10-23T13:15:29Z</time>
      </trkpt>
      <trkpt lat="48.4163" lon="2.51625">
        <ele>122.22</ele>
        <time>2021-10-23T13:15:30Z</time>
      </trkpt>
      <trkpt lat="48.41631" lon="2.51627">
        <ele>122.22</ele>
        <time>2021-10-23T13:15:31Z</time>
      </trkpt>
      <trkpt lat="48.41631" lon="2.51629">
        <ele>122.22</ele>
        <time>2021-10-23T13:15:32Z</time>
      </trkpt>
      <trkpt lat="48.41639" lon="2.51654">
        <ele>121.26</ele>
        <time>2021-10-23T13:15:46Z</time>
      </trkpt>
      <trkpt lat="48.41646" lon="2.5167">
        <ele>121.74</ele>
        <time>2021-10-23T13:16:00Z</time>
      </trkpt>
      <trkpt lat="48.41647" lon="2.51676">
        <ele>121.74</ele>
        <time>2021-10-23T13:16:22Z</time>
      </trkpt>
      <trkpt lat="48.41654" lon="2.51676">
        <ele>121.26</ele>
        <time>2021-10-23T13:16:39Z</time>
      </trkpt>
      <trkpt lat="48.41659" lon="2.51694">
        <ele>120.78</ele>
        <time>2021-10-23T13:16:51Z</time>
      </trkpt>
      <trkpt lat="48.41666" lon="2.51717">
        <ele>120.78</ele>
        <time>2021-10-23T13:17:04Z</time>
      </trkpt>
      <trkpt lat="48.41666" lon="2.5172">
        <ele>120.78</ele>
        <time>2021-10-23T13:17:06Z</time>
      </trkpt>
      <trkpt lat="48.41667" lon="2.51722">
        <ele>120.78</ele>
        <time>2021-10-23T13:17:07Z</time>
      </trkpt>
      <trkpt lat="48.41672" lon="2.51748">
        <ele>121.26</ele>
        <time>2021-10-23T13:17:22Z</time>
      </trkpt>
      <trkpt lat="48.41674" lon="2.51769">
        <ele>121.26</ele>
        <time>2021-10-23T13:17:35Z</time>
      </trkpt>
      <trkpt lat="48.41682" lon="2.51796">
        <ele>121.74</ele>
        <time>2021-10-23T13:17:49Z</time>
      </trkpt>
      <trkpt lat="48.41702" lon="2.51814">
        <ele>120.78</ele>
        <time>2021-10-23T13:18:07Z</time>
      </trkpt>
      <trkpt lat="48.41722" lon="2.51832">
        <ele>119.82</ele>
        <time>2021-10-23T13:18:24Z</time>
      </trkpt>
      <trkpt lat="48.41737" lon="2.51845">
        <ele>119.34</ele>
        <time>2021-10-23T13:18:38Z</time>
      </trkpt>
      <trkpt lat="48.41755" lon="2.51858">
        <ele>118.86</ele>
        <time>2021-10-23T13:18:54Z</time>
      </trkpt>
      <trkpt lat="48.41774" lon="2.51855">
        <ele>117.9</ele>
        <time>2021-10-23T13:19:09Z</time>
      </trkpt>
      <trkpt lat="48.41787" lon="2.51844">
        <ele>116.46</ele>
        <time>2021-10-23T13:19:23Z</time>
      </trkpt>
      <trkpt lat="48.4179" lon="2.51841">
        <ele>115.98</ele>
        <time>2021-10-23T13:19:32Z</time>
      </trkpt>
      <trkpt lat="48.41797" lon="2.51836">
        <ele>115.98</ele>
        <time>2021-10-23T13:19:53Z</time>
      </trkpt>
      <trkpt lat="48.41798" lon="2.51835">
        <ele>115.5</ele>
        <time>2021-10-23T13:19:54Z</time>
      </trkpt>
      <trkpt lat="48.41795" lon="2.5183">
        <ele>115.01</ele>
        <time>2021-10-23T13:20:06Z</time>
      </trkpt>
      <trkpt lat="48.41794" lon="2.51828">
        <ele>115.5</ele>
        <time>2021-10-23T13:20:27Z</time>
      </trkpt>
      <trkpt lat="48.41797" lon="2.51827">
        <ele>115.5</ele>
        <time>2021-10-23T13:20:33Z</time>
      </trkpt>
      <trkpt lat="48.41798" lon="2.51825">
        <ele>115.01</ele>
        <time>2021-10-23T13:20:34Z</time>
      </trkpt>
      <trkpt lat="48.41798" lon="2.51823">
        <ele>115.01</ele>
        <time>2021-10-23T13:20:35Z</time>
      </trkpt>
      <trkpt lat="48.41799" lon="2.51821">
        <ele>115.01</ele>
        <time>2021-10-23T13:20:36Z</time>
      </trkpt>
      <trkpt lat="48.41799" lon="2.5182">
        <ele>114.53</ele>
        <time>2021-10-23T13:20:37Z</time>
      </trkpt>
      <trkpt lat="48.418" lon="2.51818">
        <ele>114.53</ele>
        <time>2021-10-23T13:20:38Z</time>
      </trkpt>
      <trkpt lat="48.418" lon="2.51816">
        <ele>114.05</ele>
        <time>2021-10-23T13:20:39Z</time>
      </trkpt>
      <trkpt lat="48.41801" lon="2.51814">
        <ele>114.05</ele>
        <time>2021-10-23T13:20:40Z</time>
      </trkpt>
      <trkpt lat="48.41801" lon="2.51812">
        <ele>113.57</ele>
        <time>2021-10-23T13:20:41Z</time>
      </trkpt>
      <trkpt lat="48.41799" lon="2.51805">
        <ele>113.57</ele>
        <time>2021-10-23T13:20:53Z</time>
      </trkpt>
      <trkpt lat="48.418" lon="2.51804">
        <ele>113.57</ele>
        <time>2021-10-23T13:20:54Z</time>
      </trkpt>
      <trkpt lat="48.41801" lon="2.51791">
        <ele>111.65</ele>
        <time>2021-10-23T13:21:00Z</time>
      </trkpt>
      <trkpt lat="48.41802" lon="2.51788">
        <ele>111.65</ele>
        <time>2021-10-23T13:21:01Z</time>
      </trkpt>
      <trkpt lat="48.41808" lon="2.51772">
        <ele>108.77</ele>
        <time>2021-10-23T13:21:08Z</time>
      </trkpt>
      <trkpt lat="48.41812" lon="2.51765">
        <ele>106.84</ele>
        <time>2021-10-23T13:21:12Z</time>
      </trkpt>
      <trkpt lat="48.41816" lon="2.51752">
        <ele>103.96</ele>
        <time>2021-10-23T13:21:25Z</time>
      </trkpt>
      <trkpt lat="48.41817" lon="2.5175">
        <ele>103.48</ele>
        <time>2021-10-23T13:21:27Z</time>
      </trkpt>
      <trkpt lat="48.41818" lon="2.51748">
        <ele>103</ele>
        <time>2021-10-23T13:21:28Z</time>
      </trkpt>
      <trkpt lat="48.41822" lon="2.51735">
        <ele>102.04</ele>
        <time>2021-10-23T13:21:32Z</time>
      </trkpt>
      <trkpt lat="48.41824" lon="2.51721">
        <ele>100.6</ele>
        <time>2021-10-23T13:21:36Z</time>
      </trkpt>
      <trkpt lat="48.41824" lon="2.51718">
        <ele>100.11</ele>
        <time>2021-10-23T13:21:37Z</time>
      </trkpt>
      <trkpt lat="48.41823" lon="2.51716">
        <ele>100.11</ele>
        <time>2021-10-23T13:21:38Z</time>
      </trkpt>
      <trkpt lat="48.41822" lon="2.51713">
        <ele>99.63</ele>
        <time>2021-10-23T13:21:40Z</time>
      </trkpt>
      <trkpt lat="48.41822" lon="2.51711">
        <ele>99.15</ele>
        <time>2021-10-23T13:21:41Z</time>
      </trkpt>
      <trkpt lat="48.41821" lon="2.5171">
        <ele>99.15</ele>
        <time>2021-10-23T13:21:42Z</time>
      </trkpt>
      <trkpt lat="48.4182" lon="2.51708">
        <ele>99.15</ele>
        <time>2021-10-23T13:21:43Z</time>
      </trkpt>
      <trkpt lat="48.4182" lon="2.51707">
        <ele>98.67</ele>
        <time>2021-10-23T13:21:44Z</time>
      </trkpt>
      <trkpt lat="48.41819" lon="2.51706">
        <ele>98.19</ele>
        <time>2021-10-23T13:21:45Z</time>
      </trkpt>
      <trkpt lat="48.41818" lon="2.51704">
        <ele>98.19</ele>
        <time>2021-10-23T13:21:46Z</time>
      </trkpt>
      <trkpt lat="48.41806" lon="2.51682">
        <ele>95.79</ele>
        <time>2021-10-23T13:21:59Z</time>
      </trkpt>
      <trkpt lat="48.41803" lon="2.51665">
        <ele>94.35</ele>
        <time>2021-10-23T13:22:13Z</time>
      </trkpt>
      <trkpt lat="48.418" lon="2.51667">
        <ele>94.83</ele>
        <time>2021-10-23T13:22:35Z</time>
      </trkpt>
      <trkpt lat="48.41819" lon="2.5168">
        <ele>92.42</ele>
        <time>2021-10-23T13:22:54Z</time>
      </trkpt>
      <trkpt lat="48.41825" lon="2.51685">
        <ele>91.46</ele>
        <time>2021-10-23T13:23:01Z</time>
      </trkpt>
      <trkpt lat="48.41841" lon="2.51703">
        <ele>90.02</ele>
        <time>2021-10-23T13:23:19Z</time>
      </trkpt>
      <trkpt lat="48.41854" lon="2.51714">
        <ele>89.06</ele>
        <time>2021-10-23T13:23:34Z</time>
      </trkpt>
      <trkpt lat="48.41866" lon="2.51723">
        <ele>87.14</ele>
        <time>2021-10-23T13:23:46Z</time>
      </trkpt>
      <trkpt lat="48.41884" lon="2.51733">
        <ele>84.25</ele>
        <time>2021-10-23T13:24:01Z</time>
      </trkpt>
      <trkpt lat="48.41899" lon="2.51738">
        <ele>81.85</ele>
        <time>2021-10-23T13:24:14Z</time>
      </trkpt>
      <trkpt lat="48.41907" lon="2.51746">
        <ele>79.45</ele>
        <time>2021-10-23T13:24:24Z</time>
      </trkpt>
      <trkpt lat="48.41915" lon="2.51751">
        <ele>78.97</ele>
        <time>2021-10-23T13:24:39Z</time>
      </trkpt>
      <trkpt lat="48.41929" lon="2.51766">
        <ele>78</ele>
        <time>2021-10-23T13:24:53Z</time>
      </trkpt>
      <trkpt lat="48.41946" lon="2.51773">
        <ele>76.56</ele>
        <time>2021-10-23T13:25:06Z</time>
      </trkpt>
      <trkpt lat="48.4195" lon="2.51775">
        <ele>76.56</ele>
        <time>2021-10-23T13:25:11Z</time>
      </trkpt>
      <trkpt lat="48.41952" lon="2.51775">
        <ele>76.56</ele>
        <time>2021-10-23T13:25:13Z</time>
      </trkpt>
      <trkpt lat="48.41954" lon="2.51776">
        <ele>76.56</ele>
        <time>2021-10-23T13:25:14Z</time>
      </trkpt>
      <trkpt lat="48.41955" lon="2.51777">
        <ele>76.56</ele>
        <time>2021-10-23T13:25:15Z</time>
      </trkpt>
      <trkpt lat="48.41956" lon="2.51777">
        <ele>76.08</ele>
        <time>2021-10-23T13:25:16Z</time>
      </trkpt>
      <trkpt lat="48.4197" lon="2.51787">
        <ele>75.6</ele>
        <time>2021-10-23T13:25:28Z</time>
      </trkpt>
      <trkpt lat="48.41985" lon="2.51804">
        <ele>74.16</ele>
        <time>2021-10-23T13:25:44Z</time>
      </trkpt>
      <trkpt lat="48.41998" lon="2.51818">
        <ele>74.16</ele>
        <time>2021-10-23T13:25:57Z</time>
      </trkpt>
      <trkpt lat="48.4201" lon="2.51835">
        <ele>73.2</ele>
        <time>2021-10-23T13:26:09Z</time>
      </trkpt>
      <trkpt lat="48.42017" lon="2.51856">
        <ele>73.2</ele>
        <time>2021-10-23T13:26:22Z</time>
      </trkpt>
      <trkpt lat="48.42026" lon="2.51878">
        <ele>73.2</ele>
        <time>2021-10-23T13:26:37Z</time>
      </trkpt>
      <trkpt lat="48.42027" lon="2.5188">
        <ele>72.72</ele>
        <time>2021-10-23T13:26:39Z</time>
      </trkpt>
      <trkpt lat="48.42029" lon="2.51881">
        <ele>72.72</ele>
        <time>2021-10-23T13:26:40Z</time>
      </trkpt>
      <trkpt lat="48.42036" lon="2.51897">
        <ele>72.24</ele>
        <time>2021-10-23T13:26:50Z</time>
      </trkpt>
      <trkpt lat="48.42037" lon="2.519">
        <ele>72.24</ele>
        <time>2021-10-23T13:26:51Z</time>
      </trkpt>
      <trkpt lat="48.42038" lon="2.51905">
        <ele>72.24</ele>
        <time>2021-10-23T13:26:53Z</time>
      </trkpt>
      <trkpt lat="48.42045" lon="2.51929">
        <ele>71.27</ele>
        <time>2021-10-23T13:27:06Z</time>
      </trkpt>
      <trkpt lat="48.42062" lon="2.51947">
        <ele>71.27</ele>
        <time>2021-10-23T13:27:25Z</time>
      </trkpt>
      <trkpt lat="48.4208" lon="2.51954">
        <ele>70.31</ele>
        <time>2021-10-23T13:27:40Z</time>
      </trkpt>
      <trkpt lat="48.42085" lon="2.5195">
        <ele>70.31</ele>
        <time>2021-10-23T13:27:44Z</time>
      </trkpt>
      <trkpt lat="48.42089" lon="2.51942">
        <ele>70.31</ele>
        <time>2021-10-23T13:27:48Z</time>
      </trkpt>
      <trkpt lat="48.42089" lon="2.51936">
        <ele>70.31</ele>
        <time>2021-10-23T13:27:51Z</time>
      </trkpt>
      <trkpt lat="48.42089" lon="2.51934">
        <ele>70.31</ele>
        <time>2021-10-23T13:27:52Z</time>
      </trkpt>
      <trkpt lat="48.42085" lon="2.51909">
        <ele>70.79</ele>
        <time>2021-10-23T13:28:08Z</time>
      </trkpt>
      <trkpt lat="48.42077" lon="2.51881">
        <ele>70.31</ele>
        <time>2021-10-23T13:28:23Z</time>
      </trkpt>
      <trkpt lat="48.42072" lon="2.51858">
        <ele>70.79</ele>
        <time>2021-10-23T13:28:37Z</time>
      </trkpt>
      <trkpt lat="48.42068" lon="2.51834">
        <ele>71.76</ele>
        <time>2021-10-23T13:28:51Z</time>
      </trkpt>
      <trkpt lat="48.42067" lon="2.51808">
        <ele>71.27</ele>
        <time>2021-10-23T13:29:04Z</time>
      </trkpt>
      <trkpt lat="48.42068" lon="2.51778">
        <ele>72.72</ele>
        <time>2021-10-23T13:29:20Z</time>
      </trkpt>
      <trkpt lat="48.42086" lon="2.51743">
        <ele>74.16</ele>
        <time>2021-10-23T13:29:41Z</time>
      </trkpt>
      <trkpt lat="48.42095" lon="2.51704">
        <ele>74.64</ele>
        <time>2021-10-23T13:30:03Z</time>
      </trkpt>
      <trkpt lat="48.42102" lon="2.51664">
        <ele>75.12</ele>
        <time>2021-10-23T13:30:25Z</time>
      </trkpt>
      <trkpt lat="48.42104" lon="2.51629">
        <ele>75.6</ele>
        <time>2021-10-23T13:30:44Z</time>
      </trkpt>
      <trkpt lat="48.42105" lon="2.51599">
        <ele>75.6</ele>
        <time>2021-10-23T13:30:59Z</time>
      </trkpt>
      <trkpt lat="48.42109" lon="2.51579">
        <ele>75.12</ele>
        <time>2021-10-23T13:31:10Z</time>
      </trkpt>
      <trkpt lat="48.42108" lon="2.51577">
        <ele>75.12</ele>
        <time>2021-10-23T13:31:11Z</time>
      </trkpt>
      <trkpt lat="48.42105" lon="2.51551">
        <ele>75.12</ele>
        <time>2021-10-23T13:31:25Z</time>
      </trkpt>
      <trkpt lat="48.42104" lon="2.51548">
        <ele>75.12</ele>
        <time>2021-10-23T13:31:27Z</time>
      </trkpt>
      <trkpt lat="48.42098" lon="2.51522">
        <ele>75.6</ele>
        <time>2021-10-23T13:31:41Z</time>
      </trkpt>
      <trkpt lat="48.42098" lon="2.5152">
        <ele>75.12</ele>
        <time>2021-10-23T13:31:42Z</time>
      </trkpt>
      <trkpt lat="48.42096" lon="2.51511">
        <ele>74.64</ele>
        <time>2021-10-23T13:31:47Z</time>
      </trkpt>
      <trkpt lat="48.42096" lon="2.51502">
        <ele>75.6</ele>
        <time>2021-10-23T13:31:53Z</time>
      </trkpt>
      <trkpt lat="48.42098" lon="2.51482">
        <ele>76.08</ele>
        <time>2021-10-23T13:32:05Z</time>
      </trkpt>
      <trkpt lat="48.42103" lon="2.5147">
        <ele>76.08</ele>
        <time>2021-10-23T13:32:11Z</time>
      </trkpt>
      <trkpt lat="48.42104" lon="2.51468">
        <ele>76.08</ele>
        <time>2021-10-23T13:32:12Z</time>
      </trkpt>
      <trkpt lat="48.42105" lon="2.51466">
        <ele>76.08</ele>
        <time>2021-10-23T13:32:13Z</time>
      </trkpt>
      <trkpt lat="48.42106" lon="2.51464">
        <ele>76.08</ele>
        <time>2021-10-23T13:32:14Z</time>
      </trkpt>
      <trkpt lat="48.42107" lon="2.51463">
        <ele>76.08</ele>
        <time>2021-10-23T13:32:15Z</time>
      </trkpt>
      <trkpt lat="48.42121" lon="2.51449">
        <ele>75.6</ele>
        <time>2021-10-23T13:32:31Z</time>
      </trkpt>
      <trkpt lat="48.42133" lon="2.51421">
        <ele>75.6</ele>
        <time>2021-10-23T13:32:47Z</time>
      </trkpt>
      <trkpt lat="48.42134" lon="2.514">
        <ele>75.6</ele>
        <time>2021-10-23T13:32:59Z</time>
      </trkpt>
      <trkpt lat="48.42138" lon="2.51374">
        <ele>76.08</ele>
        <time>2021-10-23T13:33:15Z</time>
      </trkpt>
      <trkpt lat="48.42137" lon="2.51352">
        <ele>76.08</ele>
        <time>2021-10-23T13:33:29Z</time>
      </trkpt>
      <trkpt lat="48.42141" lon="2.51336">
        <ele>76.08</ele>
        <time>2021-10-23T13:33:39Z</time>
      </trkpt>
      <trkpt lat="48.42141" lon="2.51333">
        <ele>76.08</ele>
        <time>2021-10-23T13:33:40Z</time>
      </trkpt>
      <trkpt lat="48.42142" lon="2.51307">
        <ele>76.08</ele>
        <time>2021-10-23T13:33:54Z</time>
      </trkpt>
      <trkpt lat="48.4214" lon="2.51281">
        <ele>77.52</ele>
        <time>2021-10-23T13:34:09Z</time>
      </trkpt>
      <trkpt lat="48.42144" lon="2.51246">
        <ele>78.48</ele>
        <time>2021-10-23T13:34:27Z</time>
      </trkpt>
      <trkpt lat="48.42152" lon="2.51213">
        <ele>78.97</ele>
        <time>2021-10-23T13:34:46Z</time>
      </trkpt>
      <trkpt lat="48.42173" lon="2.51187">
        <ele>78.48</ele>
        <time>2021-10-23T13:35:07Z</time>
      </trkpt>
      <trkpt lat="48.42178" lon="2.51172">
        <ele>78.48</ele>
        <time>2021-10-23T13:35:16Z</time>
      </trkpt>
      <trkpt lat="48.42177" lon="2.5114">
        <ele>79.45</ele>
        <time>2021-10-23T13:35:34Z</time>
      </trkpt>
      <trkpt lat="48.42171" lon="2.51115">
        <ele>80.41</ele>
        <time>2021-10-23T13:35:47Z</time>
      </trkpt>
      <trkpt lat="48.4217" lon="2.51096">
        <ele>80.89</ele>
        <time>2021-10-23T13:36:00Z</time>
      </trkpt>
      <trkpt lat="48.42172" lon="2.51088">
        <ele>80.41</ele>
        <time>2021-10-23T13:36:05Z</time>
      </trkpt>
      <trkpt lat="48.42176" lon="2.51077">
        <ele>80.41</ele>
        <time>2021-10-23T13:36:11Z</time>
      </trkpt>
      <trkpt lat="48.42177" lon="2.51076">
        <ele>80.41</ele>
        <time>2021-10-23T13:36:12Z</time>
      </trkpt>
      <trkpt lat="48.42178" lon="2.51074">
        <ele>80.41</ele>
        <time>2021-10-23T13:36:13Z</time>
      </trkpt>
      <trkpt lat="48.42179" lon="2.51073">
        <ele>80.41</ele>
        <time>2021-10-23T13:36:14Z</time>
      </trkpt>
      <trkpt lat="48.4218" lon="2.51071">
        <ele>80.41</ele>
        <time>2021-10-23T13:36:15Z</time>
      </trkpt>
      <trkpt lat="48.42181" lon="2.51069">
        <ele>80.41</ele>
        <time>2021-10-23T13:36:16Z</time>
      </trkpt>
      <trkpt lat="48.42182" lon="2.51067">
        <ele>80.41</ele>
        <time>2021-10-23T13:36:17Z</time>
      </trkpt>
      <trkpt lat="48.42184" lon="2.51059">
        <ele>80.41</ele>
        <time>2021-10-23T13:36:22Z</time>
      </trkpt>
      <trkpt lat="48.42189" lon="2.51044">
        <ele>79.93</ele>
        <time>2021-10-23T13:36:32Z</time>
      </trkpt>
      <trkpt lat="48.4219" lon="2.51042">
        <ele>80.41</ele>
        <time>2021-10-23T13:36:33Z</time>
      </trkpt>
      <trkpt lat="48.4219" lon="2.5104">
        <ele>80.89</ele>
        <time>2021-10-23T13:36:34Z</time>
      </trkpt>
      <trkpt lat="48.4219" lon="2.51038">
        <ele>80.41</ele>
        <time>2021-10-23T13:36:35Z</time>
      </trkpt>
      <trkpt lat="48.42191" lon="2.51036">
        <ele>80.41</ele>
        <time>2021-10-23T13:36:36Z</time>
      </trkpt>
      <trkpt lat="48.42191" lon="2.51034">
        <ele>80.41</ele>
        <time>2021-10-23T13:36:37Z</time>
      </trkpt>
      <trkpt lat="48.42192" lon="2.51033">
        <ele>80.41</ele>
        <time>2021-10-23T13:36:38Z</time>
      </trkpt>
      <trkpt lat="48.42194" lon="2.51023">
        <ele>80.41</ele>
        <time>2021-10-23T13:36:46Z</time>
      </trkpt>
      <trkpt lat="48.42193" lon="2.51021">
        <ele>80.41</ele>
        <time>2021-10-23T13:36:47Z</time>
      </trkpt>
      <trkpt lat="48.42201" lon="2.50995">
        <ele>80.89</ele>
        <time>2021-10-23T13:36:58Z</time>
      </trkpt>
      <trkpt lat="48.42204" lon="2.50973">
        <ele>81.37</ele>
        <time>2021-10-23T13:37:10Z</time>
      </trkpt>
      <trkpt lat="48.42208" lon="2.50939">
        <ele>81.85</ele>
        <time>2021-10-23T13:37:27Z</time>
      </trkpt>
      <trkpt lat="48.42209" lon="2.50927">
        <ele>81.85</ele>
        <time>2021-10-23T13:37:33Z</time>
      </trkpt>
      <trkpt lat="48.42211" lon="2.50903">
        <ele>82.33</ele>
        <time>2021-10-23T13:37:46Z</time>
      </trkpt>
      <trkpt lat="48.42215" lon="2.50889">
        <ele>81.85</ele>
        <time>2021-10-23T13:37:54Z</time>
      </trkpt>
      <trkpt lat="48.42215" lon="2.50887">
        <ele>81.85</ele>
        <time>2021-10-23T13:37:55Z</time>
      </trkpt>
      <trkpt lat="48.42216" lon="2.50885">
        <ele>82.33</ele>
        <time>2021-10-23T13:37:56Z</time>
      </trkpt>
      <trkpt lat="48.42221" lon="2.50859">
        <ele>82.33</ele>
        <time>2021-10-23T13:38:10Z</time>
      </trkpt>
      <trkpt lat="48.4222" lon="2.50857">
        <ele>82.33</ele>
        <time>2021-10-23T13:38:11Z</time>
      </trkpt>
      <trkpt lat="48.4222" lon="2.50846">
        <ele>82.33</ele>
        <time>2021-10-23T13:38:18Z</time>
      </trkpt>
      <trkpt lat="48.4222" lon="2.50842">
        <ele>82.33</ele>
        <time>2021-10-23T13:38:20Z</time>
      </trkpt>
      <trkpt lat="48.42219" lon="2.50836">
        <ele>82.81</ele>
        <time>2021-10-23T13:38:23Z</time>
      </trkpt>
      <trkpt lat="48.42219" lon="2.50834">
        <ele>82.81</ele>
        <time>2021-10-23T13:38:24Z</time>
      </trkpt>
      <trkpt lat="48.42219" lon="2.50832">
        <ele>82.81</ele>
        <time>2021-10-23T13:38:25Z</time>
      </trkpt>
      <trkpt lat="48.42219" lon="2.50831">
        <ele>82.33</ele>
        <time>2021-10-23T13:38:26Z</time>
      </trkpt>
      <trkpt lat="48.42219" lon="2.50829">
        <ele>82.81</ele>
        <time>2021-10-23T13:38:27Z</time>
      </trkpt>
      <trkpt lat="48.42219" lon="2.50827">
        <ele>83.29</ele>
        <time>2021-10-23T13:38:28Z</time>
      </trkpt>
      <trkpt lat="48.4222" lon="2.50825">
        <ele>82.81</ele>
        <time>2021-10-23T13:38:29Z</time>
      </trkpt>
      <trkpt lat="48.42221" lon="2.50823">
        <ele>82.81</ele>
        <time>2021-10-23T13:38:30Z</time>
      </trkpt>
      <trkpt lat="48.42224" lon="2.50801">
        <ele>82.81</ele>
        <time>2021-10-23T13:38:44Z</time>
      </trkpt>
      <trkpt lat="48.42229" lon="2.50774">
        <ele>83.29</ele>
        <time>2021-10-23T13:38:58Z</time>
      </trkpt>
      <trkpt lat="48.42229" lon="2.5077">
        <ele>83.29</ele>
        <time>2021-10-23T13:39:00Z</time>
      </trkpt>
      <trkpt lat="48.42228" lon="2.50767">
        <ele>83.29</ele>
        <time>2021-10-23T13:39:01Z</time>
      </trkpt>
      <trkpt lat="48.42228" lon="2.50765">
        <ele>83.29</ele>
        <time>2021-10-23T13:39:02Z</time>
      </trkpt>
      <trkpt lat="48.42228" lon="2.50762">
        <ele>83.29</ele>
        <time>2021-10-23T13:39:03Z</time>
      </trkpt>
      <trkpt lat="48.42228" lon="2.5076">
        <ele>83.29</ele>
        <time>2021-10-23T13:39:04Z</time>
      </trkpt>
      <trkpt lat="48.42232" lon="2.50739">
        <ele>83.77</ele>
        <time>2021-10-23T13:39:18Z</time>
      </trkpt>
      <trkpt lat="48.42234" lon="2.50735">
        <ele>83.77</ele>
        <time>2021-10-23T13:39:20Z</time>
      </trkpt>
      <trkpt lat="48.42243" lon="2.50708">
        <ele>84.73</ele>
        <time>2021-10-23T13:39:36Z</time>
      </trkpt>
      <trkpt lat="48.42249" lon="2.50691">
        <ele>85.21</ele>
        <time>2021-10-23T13:39:47Z</time>
      </trkpt>
      <trkpt lat="48.42253" lon="2.50668">
        <ele>87.62</ele>
        <time>2021-10-23T13:40:03Z</time>
      </trkpt>
      <trkpt lat="48.42255" lon="2.50656">
        <ele>86.66</ele>
        <time>2021-10-23T13:40:11Z</time>
      </trkpt>
      <trkpt lat="48.42261" lon="2.50625">
        <ele>86.18</ele>
        <time>2021-10-23T13:40:26Z</time>
      </trkpt>
      <trkpt lat="48.42269" lon="2.50606">
        <ele>86.18</ele>
        <time>2021-10-23T13:40:39Z</time>
      </trkpt>
      <trkpt lat="48.42281" lon="2.50587">
        <ele>86.18</ele>
        <time>2021-10-23T13:40:52Z</time>
      </trkpt>
      <trkpt lat="48.4228" lon="2.50567">
        <ele>86.18</ele>
        <time>2021-10-23T13:41:06Z</time>
      </trkpt>
      <trkpt lat="48.42277" lon="2.50566">
        <ele>86.18</ele>
        <time>2021-10-23T13:41:23Z</time>
      </trkpt>
      <trkpt lat="48.42284" lon="2.50553">
        <ele>86.66</ele>
        <time>2021-10-23T13:41:40Z</time>
      </trkpt>
      <trkpt lat="48.42292" lon="2.50543">
        <ele>86.66</ele>
        <time>2021-10-23T13:41:55Z</time>
      </trkpt>
      <trkpt lat="48.42309" lon="2.50524">
        <ele>86.18</ele>
        <time>2021-10-23T13:42:12Z</time>
      </trkpt>
      <trkpt lat="48.42326" lon="2.505">
        <ele>85.21</ele>
        <time>2021-10-23T13:42:32Z</time>
      </trkpt>
      <trkpt lat="48.4233" lon="2.50495">
        <ele>84.73</ele>
        <time>2021-10-23T13:42:36Z</time>
      </trkpt>
      <trkpt lat="48.42331" lon="2.50494">
        <ele>85.21</ele>
        <time>2021-10-23T13:42:37Z</time>
      </trkpt>
      <trkpt lat="48.42331" lon="2.50493">
        <ele>85.21</ele>
        <time>2021-10-23T13:42:38Z</time>
      </trkpt>
      <trkpt lat="48.42342" lon="2.50485">
        <ele>86.66</ele>
        <time>2021-10-23T13:42:49Z</time>
      </trkpt>
      <trkpt lat="48.42351" lon="2.50475">
        <ele>88.1</ele>
        <time>2021-10-23T13:43:01Z</time>
      </trkpt>
      <trkpt lat="48.42361" lon="2.50466">
        <ele>88.58</ele>
        <time>2021-10-23T13:43:12Z</time>
      </trkpt>
      <trkpt lat="48.42365" lon="2.50461">
        <ele>88.58</ele>
        <time>2021-10-23T13:43:17Z</time>
      </trkpt>
      <trkpt lat="48.42371" lon="2.50452">
        <ele>89.54</ele>
        <time>2021-10-23T13:43:31Z</time>
      </trkpt>
      <trkpt lat="48.42372" lon="2.5045">
        <ele>89.54</ele>
        <time>2021-10-23T13:43:34Z</time>
      </trkpt>
      <trkpt lat="48.42383" lon="2.50444">
        <ele>90.5</ele>
        <time>2021-10-23T13:43:48Z</time>
      </trkpt>
      <trkpt lat="48.42387" lon="2.50438">
        <ele>91.94</ele>
        <time>2021-10-23T13:44:03Z</time>
      </trkpt>
      <trkpt lat="48.42389" lon="2.50441">
        <ele>92.9</ele>
        <time>2021-10-23T13:44:24Z</time>
      </trkpt>
      <trkpt lat="48.42405" lon="2.50433">
        <ele>95.31</ele>
        <time>2021-10-23T13:44:40Z</time>
      </trkpt>
      <trkpt lat="48.42412" lon="2.5043">
        <ele>97.71</ele>
        <time>2021-10-23T13:44:54Z</time>
      </trkpt>
      <trkpt lat="48.42421" lon="2.50425">
        <ele>101.08</ele>
        <time>2021-10-23T13:45:07Z</time>
      </trkpt>
      <trkpt lat="48.42431" lon="2.50418">
        <ele>102.52</ele>
        <time>2021-10-23T13:45:20Z</time>
      </trkpt>
      <trkpt lat="48.42437" lon="2.5041">
        <ele>105.88</ele>
        <time>2021-10-23T13:45:33Z</time>
      </trkpt>
      <trkpt lat="48.42439" lon="2.5041">
        <ele>106.36</ele>
        <time>2021-10-23T13:45:37Z</time>
      </trkpt>
      <trkpt lat="48.42449" lon="2.50407">
        <ele>106.36</ele>
        <time>2021-10-23T13:45:52Z</time>
      </trkpt>
      <trkpt lat="48.42451" lon="2.50401">
        <ele>105.88</ele>
        <time>2021-10-23T13:46:13Z</time>
      </trkpt>
      <trkpt lat="48.42463" lon="2.50406">
        <ele>104.44</ele>
        <time>2021-10-23T13:46:28Z</time>
      </trkpt>
      <trkpt lat="48.4247" lon="2.50401">
        <ele>101.08</ele>
        <time>2021-10-23T13:46:41Z</time>
      </trkpt>
      <trkpt lat="48.42481" lon="2.50398">
        <ele>98.19</ele>
        <time>2021-10-23T13:46:54Z</time>
      </trkpt>
      <trkpt lat="48.42488" lon="2.50394">
        <ele>94.83</ele>
        <time>2021-10-23T13:47:07Z</time>
      </trkpt>
      <trkpt lat="48.42493" lon="2.50391">
        <ele>93.39</ele>
        <time>2021-10-23T13:47:20Z</time>
      </trkpt>
      <trkpt lat="48.42501" lon="2.50386">
        <ele>91.94</ele>
        <time>2021-10-23T13:47:43Z</time>
      </trkpt>
      <trkpt lat="48.42503" lon="2.50382">
        <ele>91.94</ele>
        <time>2021-10-23T13:48:00Z</time>
      </trkpt>
      <trkpt lat="48.42504" lon="2.50381">
        <ele>91.94</ele>
        <time>2021-10-23T13:48:22Z</time>
      </trkpt>
      <trkpt lat="48.42512" lon="2.50368">
        <ele>89.06</ele>
        <time>2021-10-23T13:48:41Z</time>
      </trkpt>
      <trkpt lat="48.42513" lon="2.50359">
        <ele>88.1</ele>
        <time>2021-10-23T13:49:06Z</time>
      </trkpt>
      <trkpt lat="48.42522" lon="2.50352">
        <ele>86.66</ele>
        <time>2021-10-23T13:49:27Z</time>
      </trkpt>
      <trkpt lat="48.42532" lon="2.50352">
        <ele>83.77</ele>
        <time>2021-10-23T13:49:46Z</time>
      </trkpt>
      <trkpt lat="48.42538" lon="2.50351">
        <ele>80.89</ele>
        <time>2021-10-23T13:49:57Z</time>
      </trkpt>
      <trkpt lat="48.42553" lon="2.50345">
        <ele>77.52</ele>
        <time>2021-10-23T13:50:14Z</time>
      </trkpt>
      <trkpt lat="48.42564" lon="2.50342">
        <ele>76.08</ele>
        <time>2021-10-23T13:50:22Z</time>
      </trkpt>
      <trkpt lat="48.42567" lon="2.50341">
        <ele>75.6</ele>
        <time>2021-10-23T13:50:33Z</time>
      </trkpt>
      <trkpt lat="48.42575" lon="2.50341">
        <ele>75.12</ele>
        <time>2021-10-23T13:50:42Z</time>
      </trkpt>
      <trkpt lat="48.42594" lon="2.50335">
        <ele>74.64</ele>
        <time>2021-10-23T13:50:57Z</time>
      </trkpt>
      <trkpt lat="48.42595" lon="2.50336">
        <ele>75.12</ele>
        <time>2021-10-23T13:50:58Z</time>
      </trkpt>
      <trkpt lat="48.42596" lon="2.50336">
        <ele>74.16</ele>
        <time>2021-10-23T13:50:59Z</time>
      </trkpt>
      <trkpt lat="48.42608" lon="2.50333">
        <ele>74.16</ele>
        <time>2021-10-23T13:51:13Z</time>
      </trkpt>
      <trkpt lat="48.42624" lon="2.50325">
        <ele>74.64</ele>
        <time>2021-10-23T13:51:30Z</time>
      </trkpt>
      <trkpt lat="48.4263" lon="2.50322">
        <ele>74.64</ele>
        <time>2021-10-23T13:51:37Z</time>
      </trkpt>
      <trkpt lat="48.42649" lon="2.50315">
        <ele>74.64</ele>
        <time>2021-10-23T13:51:56Z</time>
      </trkpt>
      <trkpt lat="48.42649" lon="2.50314">
        <ele>75.12</ele>
        <time>2021-10-23T13:51:57Z</time>
      </trkpt>
      <trkpt lat="48.42669" lon="2.503">
        <ele>74.64</ele>
        <time>2021-10-23T13:52:15Z</time>
      </trkpt>
      <trkpt lat="48.4269" lon="2.50292">
        <ele>74.64</ele>
        <time>2021-10-23T13:52:33Z</time>
      </trkpt>
      <trkpt lat="48.42709" lon="2.50285">
        <ele>75.12</ele>
        <time>2021-10-23T13:52:52Z</time>
      </trkpt>
      <trkpt lat="48.42719" lon="2.5028">
        <ele>75.12</ele>
        <time>2021-10-23T13:53:07Z</time>
      </trkpt>
      <trkpt lat="48.42734" lon="2.50272">
        <ele>74.64</ele>
        <time>2021-10-23T13:53:24Z</time>
      </trkpt>
      <trkpt lat="48.42749" lon="2.50265">
        <ele>74.64</ele>
        <time>2021-10-23T13:53:42Z</time>
      </trkpt>
      <trkpt lat="48.42777" lon="2.50251">
        <ele>74.64</ele>
        <time>2021-10-23T13:53:58Z</time>
      </trkpt>
      <trkpt lat="48.42794" lon="2.50246">
        <ele>74.64</ele>
        <time>2021-10-23T13:54:11Z</time>
      </trkpt>
      <trkpt lat="48.42807" lon="2.5024">
        <ele>74.64</ele>
        <time>2021-10-23T13:54:27Z</time>
      </trkpt>
      <trkpt lat="48.42825" lon="2.50227">
        <ele>75.12</ele>
        <time>2021-10-23T13:54:45Z</time>
      </trkpt>
      <trkpt lat="48.42846" lon="2.50215">
        <ele>75.12</ele>
        <time>2021-10-23T13:55:05Z</time>
      </trkpt>
      <trkpt lat="48.42861" lon="2.50211">
        <ele>75.12</ele>
        <time>2021-10-23T13:55:21Z</time>
      </trkpt>
      <trkpt lat="48.42878" lon="2.50204">
        <ele>75.6</ele>
        <time>2021-10-23T13:55:38Z</time>
      </trkpt>
      <trkpt lat="48.42897" lon="2.50196">
        <ele>75.6</ele>
        <time>2021-10-23T13:55:55Z</time>
      </trkpt>
      <trkpt lat="48.42914" lon="2.50188">
        <ele>75.6</ele>
        <time>2021-10-23T13:56:10Z</time>
      </trkpt>
      <trkpt lat="48.42931" lon="2.50179">
        <ele>75.12</ele>
        <time>2021-10-23T13:56:27Z</time>
      </trkpt>
      <trkpt lat="48.4295" lon="2.50171">
        <ele>76.08</ele>
        <time>2021-10-23T13:56:44Z</time>
      </trkpt>
      <trkpt lat="48.42968" lon="2.50162">
        <ele>75.6</ele>
        <time>2021-10-23T13:57:01Z</time>
      </trkpt>
      <trkpt lat="48.42987" lon="2.50156">
        <ele>76.56</ele>
        <time>2021-10-23T13:57:18Z</time>
      </trkpt>
      <trkpt lat="48.42996" lon="2.50153">
        <ele>77.04</ele>
        <time>2021-10-23T13:57:31Z</time>
      </trkpt>
      <trkpt lat="48.43004" lon="2.50147">
        <ele>77.04</ele>
        <time>2021-10-23T13:57:45Z</time>
      </trkpt>
      <trkpt lat="48.4302" lon="2.50139">
        <ele>77.52</ele>
        <time>2021-10-23T13:58:00Z</time>
      </trkpt>
      <trkpt lat="48.43037" lon="2.50129">
        <ele>77.52</ele>
        <time>2021-10-23T13:58:17Z</time>
      </trkpt>
      <trkpt lat="48.43056" lon="2.5012">
        <ele>78.48</ele>
        <time>2021-10-23T13:58:36Z</time>
      </trkpt>
      <trkpt lat="48.43072" lon="2.50112">
        <ele>79.45</ele>
        <time>2021-10-23T13:58:52Z</time>
      </trkpt>
      <trkpt lat="48.43074" lon="2.50112">
        <ele>79.45</ele>
        <time>2021-10-23T13:58:53Z</time>
      </trkpt>
      <trkpt lat="48.43091" lon="2.50104">
        <ele>79.93</ele>
        <time>2021-10-23T13:59:10Z</time>
      </trkpt>
      <trkpt lat="48.43109" lon="2.50097">
        <ele>81.37</ele>
        <time>2021-10-23T13:59:28Z</time>
      </trkpt>
      <trkpt lat="48.43127" lon="2.50089">
        <ele>82.33</ele>
        <time>2021-10-23T13:59:45Z</time>
      </trkpt>
      <trkpt lat="48.43144" lon="2.50081">
        <ele>83.29</ele>
        <time>2021-10-23T14:00:03Z</time>
      </trkpt>
      <trkpt lat="48.43164" lon="2.50074">
        <ele>84.73</ele>
        <time>2021-10-23T14:00:21Z</time>
      </trkpt>
      <trkpt lat="48.4318" lon="2.50067">
        <ele>86.66</ele>
        <time>2021-10-23T14:00:38Z</time>
      </trkpt>
      <trkpt lat="48.43199" lon="2.50058">
        <ele>88.1</ele>
        <time>2021-10-23T14:00:56Z</time>
      </trkpt>
      <trkpt lat="48.43215" lon="2.50051">
        <ele>88.58</ele>
        <time>2021-10-23T14:01:12Z</time>
      </trkpt>
      <trkpt lat="48.43232" lon="2.50044">
        <ele>89.54</ele>
        <time>2021-10-23T14:01:29Z</time>
      </trkpt>
      <trkpt lat="48.43249" lon="2.5004">
        <ele>90.5</ele>
        <time>2021-10-23T14:01:46Z</time>
      </trkpt>
      <trkpt lat="48.43251" lon="2.50029">
        <ele>90.98</ele>
        <time>2021-10-23T14:02:01Z</time>
      </trkpt>
      <trkpt lat="48.4325" lon="2.50028">
        <ele>90.5</ele>
        <time>2021-10-23T14:02:31Z</time>
      </trkpt>
      <trkpt lat="48.4325" lon="2.50029">
        <ele>90.98</ele>
        <time>2021-10-23T14:03:05Z</time>
      </trkpt>
      <trkpt lat="48.43251" lon="2.50028">
        <ele>90.98</ele>
        <time>2021-10-23T14:03:35Z</time>
      </trkpt>
      <trkpt lat="48.43249" lon="2.50031">
        <ele>90.5</ele>
        <time>2021-10-23T14:04:05Z</time>
      </trkpt>
      <trkpt lat="48.43248" lon="2.5003">
        <ele>91.46</ele>
        <time>2021-10-23T14:04:27Z</time>
      </trkpt>
      <trkpt lat="48.4325" lon="2.5003">
        <ele>90.98</ele>
        <time>2021-10-23T14:04:48Z</time>
      </trkpt>
      <trkpt lat="48.4325" lon="2.5003">
        <ele>91.46</ele>
        <time>2021-10-23T14:04:54Z</time>
      </trkpt>
      <trkpt lat="48.43253" lon="2.50041">
        <ele>90.98</ele>
        <time>2021-10-23T14:05:07Z</time>
      </trkpt>
      <trkpt lat="48.43264" lon="2.50028">
        <ele>91.46</ele>
        <time>2021-10-23T14:05:20Z</time>
      </trkpt>
      <trkpt lat="48.43275" lon="2.50013">
        <ele>92.42</ele>
        <time>2021-10-23T14:05:33Z</time>
      </trkpt>
      <trkpt lat="48.43281" lon="2.50001">
        <ele>93.39</ele>
        <time>2021-10-23T14:05:48Z</time>
      </trkpt>
      <trkpt lat="48.43287" lon="2.49985">
        <ele>94.35</ele>
        <time>2021-10-23T14:06:03Z</time>
      </trkpt>
      <trkpt lat="48.43293" lon="2.4997">
        <ele>94.35</ele>
        <time>2021-10-23T14:06:16Z</time>
      </trkpt>
      <trkpt lat="48.43297" lon="2.4995">
        <ele>93.87</ele>
        <time>2021-10-23T14:06:32Z</time>
      </trkpt>
      <trkpt lat="48.43302" lon="2.49924">
        <ele>93.39</ele>
        <time>2021-10-23T14:06:50Z</time>
      </trkpt>
      <trkpt lat="48.43304" lon="2.49915">
        <ele>93.39</ele>
        <time>2021-10-23T14:06:56Z</time>
      </trkpt>
      <trkpt lat="48.43312" lon="2.49891">
        <ele>92.9</ele>
        <time>2021-10-23T14:07:12Z</time>
      </trkpt>
      <trkpt lat="48.43317" lon="2.49874">
        <ele>92.9</ele>
        <time>2021-10-23T14:07:26Z</time>
      </trkpt>
      <trkpt lat="48.4332" lon="2.49843">
        <ele>92.42</ele>
        <time>2021-10-23T14:07:42Z</time>
      </trkpt>
      <trkpt lat="48.4332" lon="2.4984">
        <ele>92.42</ele>
        <time>2021-10-23T14:07:44Z</time>
      </trkpt>
      <trkpt lat="48.43325" lon="2.49818">
        <ele>92.9</ele>
        <time>2021-10-23T14:07:58Z</time>
      </trkpt>
      <trkpt lat="48.43329" lon="2.49799">
        <ele>92.42</ele>
        <time>2021-10-23T14:08:09Z</time>
      </trkpt>
      <trkpt lat="48.43333" lon="2.49785">
        <ele>92.9</ele>
        <time>2021-10-23T14:08:18Z</time>
      </trkpt>
      <trkpt lat="48.43341" lon="2.49775">
        <ele>93.39</ele>
        <time>2021-10-23T14:08:28Z</time>
      </trkpt>
      <trkpt lat="48.43342" lon="2.49774">
        <ele>93.39</ele>
        <time>2021-10-23T14:08:29Z</time>
      </trkpt>
      <trkpt lat="48.43348" lon="2.49766">
        <ele>94.35</ele>
        <time>2021-10-23T14:08:41Z</time>
      </trkpt>
      <trkpt lat="48.4335" lon="2.49757">
        <ele>93.87</ele>
        <time>2021-10-23T14:08:48Z</time>
      </trkpt>
      <trkpt lat="48.43357" lon="2.49728">
        <ele>94.35</ele>
        <time>2021-10-23T14:09:05Z</time>
      </trkpt>
      <trkpt lat="48.43365" lon="2.4971">
        <ele>94.83</ele>
        <time>2021-10-23T14:09:20Z</time>
      </trkpt>
      <trkpt lat="48.43371" lon="2.49708">
        <ele>95.31</ele>
        <time>2021-10-23T14:09:28Z</time>
      </trkpt>
      <trkpt lat="48.43384" lon="2.49702">
        <ele>96.75</ele>
        <time>2021-10-23T14:09:42Z</time>
      </trkpt>
      <trkpt lat="48.434" lon="2.49698">
        <ele>98.19</ele>
        <time>2021-10-23T14:09:58Z</time>
      </trkpt>
      <trkpt lat="48.43418" lon="2.49689">
        <ele>100.11</ele>
        <time>2021-10-23T14:10:13Z</time>
      </trkpt>
      <trkpt lat="48.4343" lon="2.49679">
        <ele>101.08</ele>
        <time>2021-10-23T14:10:29Z</time>
      </trkpt>
      <trkpt lat="48.43444" lon="2.49678">
        <ele>103.96</ele>
        <time>2021-10-23T14:10:46Z</time>
      </trkpt>
      <trkpt lat="48.43456" lon="2.49676">
        <ele>106.36</ele>
        <time>2021-10-23T14:11:00Z</time>
      </trkpt>
      <trkpt lat="48.43468" lon="2.49669">
        <ele>108.77</ele>
        <time>2021-10-23T14:11:15Z</time>
      </trkpt>
      <trkpt lat="48.43478" lon="2.49669">
        <ele>111.17</ele>
        <time>2021-10-23T14:11:30Z</time>
      </trkpt>
      <trkpt lat="48.43491" lon="2.49664">
        <ele>113.57</ele>
        <time>2021-10-23T14:11:47Z</time>
      </trkpt>
      <trkpt lat="48.43505" lon="2.49659">
        <ele>116.46</ele>
        <time>2021-10-23T14:12:06Z</time>
      </trkpt>
      <trkpt lat="48.43516" lon="2.4965">
        <ele>117.9</ele>
        <time>2021-10-23T14:12:18Z</time>
      </trkpt>
      <trkpt lat="48.43523" lon="2.49647">
        <ele>119.34</ele>
        <time>2021-10-23T14:12:27Z</time>
      </trkpt>
      <trkpt lat="48.43533" lon="2.49644">
        <ele>120.78</ele>
        <time>2021-10-23T14:12:38Z</time>
      </trkpt>
      <trkpt lat="48.43538" lon="2.49637">
        <ele>121.74</ele>
        <time>2021-10-23T14:12:54Z</time>
      </trkpt>
      <trkpt lat="48.4355" lon="2.49631">
        <ele>122.71</ele>
        <time>2021-10-23T14:13:10Z</time>
      </trkpt>
      <trkpt lat="48.43566" lon="2.49627">
        <ele>123.67</ele>
        <time>2021-10-23T14:13:26Z</time>
      </trkpt>
      <trkpt lat="48.43583" lon="2.49622">
        <ele>124.15</ele>
        <time>2021-10-23T14:13:41Z</time>
      </trkpt>
      <trkpt lat="48.436" lon="2.49618">
        <ele>124.63</ele>
        <time>2021-10-23T14:13:55Z</time>
      </trkpt>
      <trkpt lat="48.43604" lon="2.49617">
        <ele>124.63</ele>
        <time>2021-10-23T14:13:59Z</time>
      </trkpt>
      <trkpt lat="48.43624" lon="2.49598">
        <ele>125.59</ele>
        <time>2021-10-23T14:14:13Z</time>
      </trkpt>
      <trkpt lat="48.43644" lon="2.49591">
        <ele>126.55</ele>
        <time>2021-10-23T14:14:30Z</time>
      </trkpt>
      <trkpt lat="48.43657" lon="2.4959">
        <ele>126.55</ele>
        <time>2021-10-23T14:14:42Z</time>
      </trkpt>
      <trkpt lat="48.43661" lon="2.49585">
        <ele>126.55</ele>
        <time>2021-10-23T14:14:49Z</time>
      </trkpt>
      <trkpt lat="48.43662" lon="2.49585">
        <ele>126.55</ele>
        <time>2021-10-23T14:14:50Z</time>
      </trkpt>
      <trkpt lat="48.43663" lon="2.49584">
        <ele>126.55</ele>
        <time>2021-10-23T14:14:51Z</time>
      </trkpt>
      <trkpt lat="48.43678" lon="2.49583">
        <ele>127.03</ele>
        <time>2021-10-23T14:15:06Z</time>
      </trkpt>
      <trkpt lat="48.43698" lon="2.49578">
        <ele>127.51</ele>
        <time>2021-10-23T14:15:24Z</time>
      </trkpt>
      <trkpt lat="48.43714" lon="2.49571">
        <ele>127.51</ele>
        <time>2021-10-23T14:15:39Z</time>
      </trkpt>
      <trkpt lat="48.43727" lon="2.49567">
        <ele>128.47</ele>
        <time>2021-10-23T14:15:52Z</time>
      </trkpt>
      <trkpt lat="48.43736" lon="2.49565">
        <ele>127.99</ele>
        <time>2021-10-23T14:15:59Z</time>
      </trkpt>
      <trkpt lat="48.43737" lon="2.49565">
        <ele>127.99</ele>
        <time>2021-10-23T14:16:00Z</time>
      </trkpt>
      <trkpt lat="48.43749" lon="2.49555">
        <ele>127.99</ele>
        <time>2021-10-23T14:16:13Z</time>
      </trkpt>
      <trkpt lat="48.43767" lon="2.49552">
        <ele>128.47</ele>
        <time>2021-10-23T14:16:28Z</time>
      </trkpt>
      <trkpt lat="48.43782" lon="2.49545">
        <ele>128.95</ele>
        <time>2021-10-23T14:16:43Z</time>
      </trkpt>
      <trkpt lat="48.43799" lon="2.49538">
        <ele>128.95</ele>
        <time>2021-10-23T14:16:59Z</time>
      </trkpt>
      <trkpt lat="48.43815" lon="2.49532">
        <ele>129.43</ele>
        <time>2021-10-23T14:17:15Z</time>
      </trkpt>
      <trkpt lat="48.43832" lon="2.49524">
        <ele>129.92</ele>
        <time>2021-10-23T14:17:29Z</time>
      </trkpt>
      <trkpt lat="48.43852" lon="2.49516">
        <ele>129.92</ele>
        <time>2021-10-23T14:17:44Z</time>
      </trkpt>
      <trkpt lat="48.43866" lon="2.49516">
        <ele>130.4</ele>
        <time>2021-10-23T14:18:00Z</time>
      </trkpt>
      <trkpt lat="48.43867" lon="2.49515">
        <ele>130.4</ele>
        <time>2021-10-23T14:18:01Z</time>
      </trkpt>
      <trkpt lat="48.43871" lon="2.49509">
        <ele>130.4</ele>
        <time>2021-10-23T14:18:05Z</time>
      </trkpt>
      <trkpt lat="48.43873" lon="2.49508">
        <ele>130.4</ele>
        <time>2021-10-23T14:18:06Z</time>
      </trkpt>
      <trkpt lat="48.43881" lon="2.49508">
        <ele>129.92</ele>
        <time>2021-10-23T14:18:14Z</time>
      </trkpt>
      <trkpt lat="48.43896" lon="2.49499">
        <ele>130.4</ele>
        <time>2021-10-23T14:18:29Z</time>
      </trkpt>
      <trkpt lat="48.43915" lon="2.49489">
        <ele>130.4</ele>
        <time>2021-10-23T14:18:44Z</time>
      </trkpt>
      <trkpt lat="48.43924" lon="2.49488">
        <ele>129.92</ele>
        <time>2021-10-23T14:18:53Z</time>
      </trkpt>
      <trkpt lat="48.43937" lon="2.49479">
        <ele>129.43</ele>
        <time>2021-10-23T14:19:07Z</time>
      </trkpt>
      <trkpt lat="48.43939" lon="2.49478">
        <ele>128.95</ele>
        <time>2021-10-23T14:19:14Z</time>
      </trkpt>
      <trkpt lat="48.43951" lon="2.49479">
        <ele>128.47</ele>
        <time>2021-10-23T14:19:29Z</time>
      </trkpt>
      <trkpt lat="48.43952" lon="2.49479">
        <ele>128.95</ele>
        <time>2021-10-23T14:19:30Z</time>
      </trkpt>
      <trkpt lat="48.4397" lon="2.49474">
        <ele>127.03</ele>
        <time>2021-10-23T14:19:47Z</time>
      </trkpt>
      <trkpt lat="48.43987" lon="2.49468">
        <ele>125.11</ele>
        <time>2021-10-23T14:20:02Z</time>
      </trkpt>
      <trkpt lat="48.43995" lon="2.49461">
        <ele>124.15</ele>
        <time>2021-10-23T14:20:13Z</time>
      </trkpt>
      <trkpt lat="48.44001" lon="2.49459">
        <ele>122.71</ele>
        <time>2021-10-23T14:20:33Z</time>
      </trkpt>
      <trkpt lat="48.44014" lon="2.49453">
        <ele>120.3</ele>
        <time>2021-10-23T14:20:48Z</time>
      </trkpt>
      <trkpt lat="48.44026" lon="2.49448">
        <ele>117.42</ele>
        <time>2021-10-23T14:21:03Z</time>
      </trkpt>
      <trkpt lat="48.44038" lon="2.49444">
        <ele>115.5</ele>
        <time>2021-10-23T14:21:18Z</time>
      </trkpt>
      <trkpt lat="48.44043" lon="2.49438">
        <ele>114.05</ele>
        <time>2021-10-23T14:21:32Z</time>
      </trkpt>
      <trkpt lat="48.44054" lon="2.4944">
        <ele>111.65</ele>
        <time>2021-10-23T14:21:47Z</time>
      </trkpt>
      <trkpt lat="48.44068" lon="2.49441">
        <ele>112.13</ele>
        <time>2021-10-23T14:22:01Z</time>
      </trkpt>
      <trkpt lat="48.44087" lon="2.49431">
        <ele>113.09</ele>
        <time>2021-10-23T14:22:18Z</time>
      </trkpt>
      <trkpt lat="48.44106" lon="2.49422">
        <ele>114.53</ele>
        <time>2021-10-23T14:22:35Z</time>
      </trkpt>
      <trkpt lat="48.44119" lon="2.49415">
        <ele>115.98</ele>
        <time>2021-10-23T14:22:50Z</time>
      </trkpt>
      <trkpt lat="48.44136" lon="2.49412">
        <ele>115.5</ele>
        <time>2021-10-23T14:23:08Z</time>
      </trkpt>
      <trkpt lat="48.44144" lon="2.49408">
        <ele>114.05</ele>
        <time>2021-10-23T14:23:21Z</time>
      </trkpt>
      <trkpt lat="48.44162" lon="2.49402">
        <ele>111.17</ele>
        <time>2021-10-23T14:23:35Z</time>
      </trkpt>
      <trkpt lat="48.4417" lon="2.49398">
        <ele>108.77</ele>
        <time>2021-10-23T14:23:48Z</time>
      </trkpt>
      <trkpt lat="48.44172" lon="2.49395">
        <ele>108.29</ele>
        <time>2021-10-23T14:24:10Z</time>
      </trkpt>
      <trkpt lat="48.44185" lon="2.49392">
        <ele>106.36</ele>
        <time>2021-10-23T14:24:29Z</time>
      </trkpt>
      <trkpt lat="48.44197" lon="2.49387">
        <ele>103.48</ele>
        <time>2021-10-23T14:24:39Z</time>
      </trkpt>
      <trkpt lat="48.44198" lon="2.49386">
        <ele>103</ele>
        <time>2021-10-23T14:24:40Z</time>
      </trkpt>
      <trkpt lat="48.44215" lon="2.49382">
        <ele>100.6</ele>
        <time>2021-10-23T14:24:53Z</time>
      </trkpt>
      <trkpt lat="48.44216" lon="2.49382">
        <ele>99.63</ele>
        <time>2021-10-23T14:25:05Z</time>
      </trkpt>
      <trkpt lat="48.4422" lon="2.49381">
        <ele>99.63</ele>
        <time>2021-10-23T14:25:09Z</time>
      </trkpt>
      <trkpt lat="48.44221" lon="2.49381">
        <ele>99.15</ele>
        <time>2021-10-23T14:25:10Z</time>
      </trkpt>
      <trkpt lat="48.44223" lon="2.49381">
        <ele>99.15</ele>
        <time>2021-10-23T14:25:11Z</time>
      </trkpt>
      <trkpt lat="48.44235" lon="2.49373">
        <ele>97.71</ele>
        <time>2021-10-23T14:25:24Z</time>
      </trkpt>
      <trkpt lat="48.44243" lon="2.4937">
        <ele>97.23</ele>
        <time>2021-10-23T14:25:33Z</time>
      </trkpt>
      <trkpt lat="48.44263" lon="2.49357">
        <ele>96.27</ele>
        <time>2021-10-23T14:25:48Z</time>
      </trkpt>
      <trkpt lat="48.44274" lon="2.49333">
        <ele>94.83</ele>
        <time>2021-10-23T14:26:01Z</time>
      </trkpt>
      <trkpt lat="48.44277" lon="2.49326">
        <ele>94.83</ele>
        <time>2021-10-23T14:26:06Z</time>
      </trkpt>
      <trkpt lat="48.44277" lon="2.4932">
        <ele>94.83</ele>
        <time>2021-10-23T14:26:14Z</time>
      </trkpt>
      <trkpt lat="48.4428" lon="2.49305">
        <ele>94.83</ele>
        <time>2021-10-23T14:26:23Z</time>
      </trkpt>
      <trkpt lat="48.44282" lon="2.49301">
        <ele>94.83</ele>
        <time>2021-10-23T14:26:36Z</time>
      </trkpt>
      <trkpt lat="48.44283" lon="2.49298">
        <ele>94.83</ele>
        <time>2021-10-23T14:26:38Z</time>
      </trkpt>
      <trkpt lat="48.44291" lon="2.49279">
        <ele>95.31</ele>
        <time>2021-10-23T14:26:50Z</time>
      </trkpt>
      <trkpt lat="48.44292" lon="2.49271">
        <ele>94.83</ele>
        <time>2021-10-23T14:26:56Z</time>
      </trkpt>
      <trkpt lat="48.44293" lon="2.49264">
        <ele>94.83</ele>
        <time>2021-10-23T14:27:00Z</time>
      </trkpt>
      <trkpt lat="48.44301" lon="2.4924">
        <ele>95.31</ele>
        <time>2021-10-23T14:27:16Z</time>
      </trkpt>
      <trkpt lat="48.44306" lon="2.49226">
        <ele>95.31</ele>
        <time>2021-10-23T14:27:25Z</time>
      </trkpt>
      <trkpt lat="48.44307" lon="2.49223">
        <ele>95.31</ele>
        <time>2021-10-23T14:27:27Z</time>
      </trkpt>
      <trkpt lat="48.44315" lon="2.49202">
        <ele>96.27</ele>
        <time>2021-10-23T14:27:40Z</time>
      </trkpt>
      <trkpt lat="48.44321" lon="2.49185">
        <ele>95.79</ele>
        <time>2021-10-23T14:27:53Z</time>
      </trkpt>
      <trkpt lat="48.44329" lon="2.49166">
        <ele>95.79</ele>
        <time>2021-10-23T14:28:06Z</time>
      </trkpt>
      <trkpt lat="48.44336" lon="2.49142">
        <ele>95.79</ele>
        <time>2021-10-23T14:28:22Z</time>
      </trkpt>
      <trkpt lat="48.44336" lon="2.4914">
        <ele>96.27</ele>
        <time>2021-10-23T14:28:24Z</time>
      </trkpt>
      <trkpt lat="48.44339" lon="2.49125">
        <ele>95.31</ele>
        <time>2021-10-23T14:28:32Z</time>
      </trkpt>
      <trkpt lat="48.4434" lon="2.49114">
        <ele>95.31</ele>
        <time>2021-10-23T14:28:45Z</time>
      </trkpt>
      <trkpt lat="48.44342" lon="2.49117">
        <ele>95.79</ele>
        <time>2021-10-23T14:29:00Z</time>
      </trkpt>
      <trkpt lat="48.44351" lon="2.49101">
        <ele>95.79</ele>
        <time>2021-10-23T14:29:12Z</time>
      </trkpt>
      <trkpt lat="48.44359" lon="2.49088">
        <ele>96.27</ele>
        <time>2021-10-23T14:29:21Z</time>
      </trkpt>
      <trkpt lat="48.44371" lon="2.49066">
        <ele>96.27</ele>
        <time>2021-10-23T14:29:36Z</time>
      </trkpt>
      <trkpt lat="48.44381" lon="2.49051">
        <ele>96.75</ele>
        <time>2021-10-23T14:29:48Z</time>
      </trkpt>
      <trkpt lat="48.44393" lon="2.4903">
        <ele>96.27</ele>
        <time>2021-10-23T14:30:04Z</time>
      </trkpt>
      <trkpt lat="48.44396" lon="2.49023">
        <ele>96.27</ele>
        <time>2021-10-23T14:30:09Z</time>
      </trkpt>
      <trkpt lat="48.44408" lon="2.49002">
        <ele>96.27</ele>
        <time>2021-10-23T14:30:25Z</time>
      </trkpt>
      <trkpt lat="48.44416" lon="2.48989">
        <ele>96.27</ele>
        <time>2021-10-23T14:30:38Z</time>
      </trkpt>
      <trkpt lat="48.44432" lon="2.48964">
        <ele>95.79</ele>
        <time>2021-10-23T14:30:53Z</time>
      </trkpt>
      <trkpt lat="48.44438" lon="2.48959">
        <ele>95.79</ele>
        <time>2021-10-23T14:31:03Z</time>
      </trkpt>
      <trkpt lat="48.44448" lon="2.48956">
        <ele>95.79</ele>
        <time>2021-10-23T14:31:17Z</time>
      </trkpt>
      <trkpt lat="48.44463" lon="2.48954">
        <ele>95.79</ele>
        <time>2021-10-23T14:31:31Z</time>
      </trkpt>
      <trkpt lat="48.44477" lon="2.48948">
        <ele>96.27</ele>
        <time>2021-10-23T14:31:48Z</time>
      </trkpt>
      <trkpt lat="48.44495" lon="2.4894">
        <ele>96.27</ele>
        <time>2021-10-23T14:32:07Z</time>
      </trkpt>
      <trkpt lat="48.44511" lon="2.48936">
        <ele>95.79</ele>
        <time>2021-10-23T14:32:21Z</time>
      </trkpt>
      <trkpt lat="48.44528" lon="2.48919">
        <ele>95.79</ele>
        <time>2021-10-23T14:32:35Z</time>
      </trkpt>
      <trkpt lat="48.4455" lon="2.48909">
        <ele>96.27</ele>
        <time>2021-10-23T14:32:52Z</time>
      </trkpt>
      <trkpt lat="48.44565" lon="2.48905">
        <ele>96.27</ele>
        <time>2021-10-23T14:33:07Z</time>
      </trkpt>
      <trkpt lat="48.44581" lon="2.48905">
        <ele>96.75</ele>
        <time>2021-10-23T14:33:23Z</time>
      </trkpt>
      <trkpt lat="48.44596" lon="2.48899">
        <ele>97.23</ele>
        <time>2021-10-23T14:33:38Z</time>
      </trkpt>
      <trkpt lat="48.44613" lon="2.48884">
        <ele>96.75</ele>
        <time>2021-10-23T14:33:54Z</time>
      </trkpt>
      <trkpt lat="48.44617" lon="2.48881">
        <ele>96.75</ele>
        <time>2021-10-23T14:34:08Z</time>
      </trkpt>
      <trkpt lat="48.44619" lon="2.48876">
        <ele>96.75</ele>
        <time>2021-10-23T14:34:28Z</time>
      </trkpt>
      <trkpt lat="48.4462" lon="2.48881">
        <ele>96.75</ele>
        <time>2021-10-23T14:34:57Z</time>
      </trkpt>
      <trkpt lat="48.44615" lon="2.48881">
        <ele>97.23</ele>
        <time>2021-10-23T14:35:19Z</time>
      </trkpt>
      <trkpt lat="48.44616" lon="2.48882">
        <ele>97.23</ele>
        <time>2021-10-23T14:35:38Z</time>
      </trkpt>
      <trkpt lat="48.44611" lon="2.48878">
        <ele>97.71</ele>
        <time>2021-10-23T14:36:03Z</time>
      </trkpt>
      <trkpt lat="48.44616" lon="2.48877">
        <ele>97.71</ele>
        <time>2021-10-23T14:36:20Z</time>
      </trkpt>
      <trkpt lat="48.44617" lon="2.4888">
        <ele>97.71</ele>
        <time>2021-10-23T14:36:31Z</time>
      </trkpt>
      <trkpt lat="48.44622" lon="2.48872">
        <ele>96.75</ele>
        <time>2021-10-23T14:36:50Z</time>
      </trkpt>
      <trkpt lat="48.44623" lon="2.48874">
        <ele>96.75</ele>
        <time>2021-10-23T14:36:55Z</time>
      </trkpt>
      <trkpt lat="48.44638" lon="2.48884">
        <ele>97.23</ele>
        <time>2021-10-23T14:37:10Z</time>
      </trkpt>
      <trkpt lat="48.44652" lon="2.48903">
        <ele>97.23</ele>
        <time>2021-10-23T14:37:27Z</time>
      </trkpt>
      <trkpt lat="48.44664" lon="2.48916">
        <ele>97.23</ele>
        <time>2021-10-23T14:37:40Z</time>
      </trkpt>
      <trkpt lat="48.44679" lon="2.48922">
        <ele>97.71</ele>
        <time>2021-10-23T14:37:52Z</time>
      </trkpt>
      <trkpt lat="48.44698" lon="2.48925">
        <ele>97.23</ele>
        <time>2021-10-23T14:38:10Z</time>
      </trkpt>
      <trkpt lat="48.44716" lon="2.48932">
        <ele>97.71</ele>
        <time>2021-10-23T14:38:29Z</time>
      </trkpt>
      <trkpt lat="48.44727" lon="2.48937">
        <ele>96.75</ele>
        <time>2021-10-23T14:38:41Z</time>
      </trkpt>
      <trkpt lat="48.4473" lon="2.4894">
        <ele>96.75</ele>
        <time>2021-10-23T14:38:52Z</time>
      </trkpt>
      <trkpt lat="48.44735" lon="2.48944">
        <ele>96.27</ele>
        <time>2021-10-23T14:38:57Z</time>
      </trkpt>
      <trkpt lat="48.44742" lon="2.48949">
        <ele>96.27</ele>
        <time>2021-10-23T14:39:06Z</time>
      </trkpt>
      <trkpt lat="48.44759" lon="2.48959">
        <ele>95.31</ele>
        <time>2021-10-23T14:39:24Z</time>
      </trkpt>
      <trkpt lat="48.44766" lon="2.48952">
        <ele>95.31</ele>
        <time>2021-10-23T14:39:29Z</time>
      </trkpt>
      <trkpt lat="48.44772" lon="2.48947">
        <ele>94.83</ele>
        <time>2021-10-23T14:39:35Z</time>
      </trkpt>
      <trkpt lat="48.44782" lon="2.48936">
        <ele>93.87</ele>
        <time>2021-10-23T14:39:48Z</time>
      </trkpt>
      <trkpt lat="48.44788" lon="2.48926">
        <ele>93.39</ele>
        <time>2021-10-23T14:40:03Z</time>
      </trkpt>
      <trkpt lat="48.44801" lon="2.48914">
        <ele>92.9</ele>
        <time>2021-10-23T14:40:16Z</time>
      </trkpt>
      <trkpt lat="48.44815" lon="2.48898">
        <ele>91.94</ele>
        <time>2021-10-23T14:40:30Z</time>
      </trkpt>
      <trkpt lat="48.44823" lon="2.48888">
        <ele>91.94</ele>
        <time>2021-10-23T14:40:40Z</time>
      </trkpt>
      <trkpt lat="48.44837" lon="2.48873">
        <ele>90.5</ele>
        <time>2021-10-23T14:40:54Z</time>
      </trkpt>
      <trkpt lat="48.44845" lon="2.48864">
        <ele>90.5</ele>
        <time>2021-10-23T14:41:05Z</time>
      </trkpt>
      <trkpt lat="48.44859" lon="2.48851">
        <ele>89.54</ele>
        <time>2021-10-23T14:41:20Z</time>
      </trkpt>
      <trkpt lat="48.44872" lon="2.48837">
        <ele>89.06</ele>
        <time>2021-10-23T14:41:34Z</time>
      </trkpt>
      <trkpt lat="48.44881" lon="2.48827">
        <ele>88.1</ele>
        <time>2021-10-23T14:41:46Z</time>
      </trkpt>
      <trkpt lat="48.44895" lon="2.48814">
        <ele>87.62</ele>
        <time>2021-10-23T14:42:02Z</time>
      </trkpt>
      <trkpt lat="48.44909" lon="2.48796">
        <ele>87.14</ele>
        <time>2021-10-23T14:42:17Z</time>
      </trkpt>
      <trkpt lat="48.44926" lon="2.4878">
        <ele>86.18</ele>
        <time>2021-10-23T14:42:36Z</time>
      </trkpt>
      <trkpt lat="48.44927" lon="2.4878">
        <ele>86.18</ele>
        <time>2021-10-23T14:42:37Z</time>
      </trkpt>
      <trkpt lat="48.44933" lon="2.48774">
        <ele>86.18</ele>
        <time>2021-10-23T14:42:51Z</time>
      </trkpt>
      <trkpt lat="48.44934" lon="2.48773">
        <ele>86.18</ele>
        <time>2021-10-23T14:43:05Z</time>
      </trkpt>
      <trkpt lat="48.44935" lon="2.48772">
        <ele>85.69</ele>
        <time>2021-10-23T14:43:23Z</time>
      </trkpt>
      <trkpt lat="48.44936" lon="2.48769">
        <ele>85.69</ele>
        <time>2021-10-23T14:43:35Z</time>
      </trkpt>
      <trkpt lat="48.44946" lon="2.48761">
        <ele>85.69</ele>
        <time>2021-10-23T14:43:47Z</time>
      </trkpt>
      <trkpt lat="48.44957" lon="2.48748">
        <ele>85.21</ele>
        <time>2021-10-23T14:44:00Z</time>
      </trkpt>
      <trkpt lat="48.44962" lon="2.48741">
        <ele>85.21</ele>
        <time>2021-10-23T14:44:07Z</time>
      </trkpt>
      <trkpt lat="48.4497" lon="2.48727">
        <ele>85.21</ele>
        <time>2021-10-23T14:44:21Z</time>
      </trkpt>
      <trkpt lat="48.44978" lon="2.48716">
        <ele>84.25</ele>
        <time>2021-10-23T14:44:33Z</time>
      </trkpt>
      <trkpt lat="48.44988" lon="2.48703">
        <ele>84.73</ele>
        <time>2021-10-23T14:44:43Z</time>
      </trkpt>
      <trkpt lat="48.44989" lon="2.48701">
        <ele>84.73</ele>
        <time>2021-10-23T14:44:44Z</time>
      </trkpt>
      <trkpt lat="48.44991" lon="2.48701">
        <ele>84.25</ele>
        <time>2021-10-23T14:44:46Z</time>
      </trkpt>
      <trkpt lat="48.44992" lon="2.487">
        <ele>84.73</ele>
        <time>2021-10-23T14:44:47Z</time>
      </trkpt>
      <trkpt lat="48.45004" lon="2.48691">
        <ele>83.77</ele>
        <time>2021-10-23T14:44:59Z</time>
      </trkpt>
      <trkpt lat="48.45019" lon="2.4868">
        <ele>83.29</ele>
        <time>2021-10-23T14:45:12Z</time>
      </trkpt>
      <trkpt lat="48.4502" lon="2.48679">
        <ele>83.29</ele>
        <time>2021-10-23T14:45:14Z</time>
      </trkpt>
      <trkpt lat="48.45022" lon="2.48677">
        <ele>83.29</ele>
        <time>2021-10-23T14:45:19Z</time>
      </trkpt>
      <trkpt lat="48.4503" lon="2.48668">
        <ele>82.81</ele>
        <time>2021-10-23T14:45:28Z</time>
      </trkpt>
      <trkpt lat="48.45041" lon="2.48656">
        <ele>83.29</ele>
        <time>2021-10-23T14:45:41Z</time>
      </trkpt>
      <trkpt lat="48.45054" lon="2.48647">
        <ele>83.29</ele>
        <time>2021-10-23T14:45:54Z</time>
      </trkpt>
      <trkpt lat="48.45064" lon="2.48634">
        <ele>83.29</ele>
        <time>2021-10-23T14:46:07Z</time>
      </trkpt>
      <trkpt lat="48.45069" lon="2.48629">
        <ele>83.29</ele>
        <time>2021-10-23T14:46:16Z</time>
      </trkpt>
      <trkpt lat="48.45078" lon="2.4862">
        <ele>82.33</ele>
        <time>2021-10-23T14:46:27Z</time>
      </trkpt>
      <trkpt lat="48.45091" lon="2.48608">
        <ele>82.33</ele>
        <time>2021-10-23T14:46:42Z</time>
      </trkpt>
      <trkpt lat="48.451" lon="2.48598">
        <ele>83.29</ele>
        <time>2021-10-23T14:46:55Z</time>
      </trkpt>
      <trkpt lat="48.45105" lon="2.4859">
        <ele>82.81</ele>
        <time>2021-10-23T14:47:14Z</time>
      </trkpt>
      <trkpt lat="48.45104" lon="2.4859">
        <ele>83.29</ele>
        <time>2021-10-23T14:47:20Z</time>
      </trkpt>
      <trkpt lat="48.45113" lon="2.48589">
        <ele>82.81</ele>
        <time>2021-10-23T14:47:33Z</time>
      </trkpt>
      <trkpt lat="48.45113" lon="2.48588">
        <ele>82.81</ele>
        <time>2021-10-23T14:47:34Z</time>
      </trkpt>
      <trkpt lat="48.45127" lon="2.48575">
        <ele>82.33</ele>
        <time>2021-10-23T14:47:49Z</time>
      </trkpt>
      <trkpt lat="48.45138" lon="2.48568">
        <ele>82.81</ele>
        <time>2021-10-23T14:48:00Z</time>
      </trkpt>
      <trkpt lat="48.4514" lon="2.48564">
        <ele>82.33</ele>
        <time>2021-10-23T14:48:03Z</time>
      </trkpt>
      <trkpt lat="48.45154" lon="2.48558">
        <ele>82.33</ele>
        <time>2021-10-23T14:48:17Z</time>
      </trkpt>
      <trkpt lat="48.45168" lon="2.48554">
        <ele>80.89</ele>
        <time>2021-10-23T14:48:30Z</time>
      </trkpt>
      <trkpt lat="48.45169" lon="2.48553">
        <ele>80.89</ele>
        <time>2021-10-23T14:48:31Z</time>
      </trkpt>
      <trkpt lat="48.45183" lon="2.48537">
        <ele>79.93</ele>
        <time>2021-10-23T14:48:45Z</time>
      </trkpt>
      <trkpt lat="48.45198" lon="2.48522">
        <ele>79.93</ele>
        <time>2021-10-23T14:49:01Z</time>
      </trkpt>
      <trkpt lat="48.45211" lon="2.48509">
        <ele>79.45</ele>
        <time>2021-10-23T14:49:15Z</time>
      </trkpt>
      <trkpt lat="48.45228" lon="2.48491">
        <ele>79.93</ele>
        <time>2021-10-23T14:49:32Z</time>
      </trkpt>
      <trkpt lat="48.45235" lon="2.48485">
        <ele>78.97</ele>
        <time>2021-10-23T14:49:40Z</time>
      </trkpt>
      <trkpt lat="48.45247" lon="2.48471">
        <ele>78.97</ele>
        <time>2021-10-23T14:49:52Z</time>
      </trkpt>
      <trkpt lat="48.45259" lon="2.48458">
        <ele>78</ele>
        <time>2021-10-23T14:50:07Z</time>
      </trkpt>
      <trkpt lat="48.4527" lon="2.48447">
        <ele>78</ele>
        <time>2021-10-23T14:50:19Z</time>
      </trkpt>
      <trkpt lat="48.45284" lon="2.4843">
        <ele>77.04</ele>
        <time>2021-10-23T14:50:34Z</time>
      </trkpt>
      <trkpt lat="48.45295" lon="2.48419">
        <ele>75.6</ele>
        <time>2021-10-23T14:50:47Z</time>
      </trkpt>
      <trkpt lat="48.45296" lon="2.4842">
        <ele>75.6</ele>
        <time>2021-10-23T14:50:50Z</time>
      </trkpt>
      <trkpt lat="48.45303" lon="2.48404">
        <ele>75.12</ele>
        <time>2021-10-23T14:51:02Z</time>
      </trkpt>
      <trkpt lat="48.45315" lon="2.48393">
        <ele>74.16</ele>
        <time>2021-10-23T14:51:14Z</time>
      </trkpt>
      <trkpt lat="48.45322" lon="2.48387">
        <ele>73.68</ele>
        <time>2021-10-23T14:51:21Z</time>
      </trkpt>
      <trkpt lat="48.45332" lon="2.48373">
        <ele>72.24</ele>
        <time>2021-10-23T14:51:33Z</time>
      </trkpt>
      <trkpt lat="48.45345" lon="2.48361">
        <ele>71.27</ele>
        <time>2021-10-23T14:51:46Z</time>
      </trkpt>
      <trkpt lat="48.45345" lon="2.48358">
        <ele>71.27</ele>
        <time>2021-10-23T14:51:49Z</time>
      </trkpt>
      <trkpt lat="48.45353" lon="2.48352">
        <ele>69.83</ele>
        <time>2021-10-23T14:51:57Z</time>
      </trkpt>
      <trkpt lat="48.45358" lon="2.48346">
        <ele>69.83</ele>
        <time>2021-10-23T14:52:02Z</time>
      </trkpt>
      <trkpt lat="48.45371" lon="2.48331">
        <ele>68.87</ele>
        <time>2021-10-23T14:52:17Z</time>
      </trkpt>
      <trkpt lat="48.45384" lon="2.48322">
        <ele>66.47</ele>
        <time>2021-10-23T14:52:31Z</time>
      </trkpt>
      <trkpt lat="48.4539" lon="2.48315">
        <ele>65.99</ele>
        <time>2021-10-23T14:52:43Z</time>
      </trkpt>
      <trkpt lat="48.45393" lon="2.48312">
        <ele>65.51</ele>
        <time>2021-10-23T14:52:54Z</time>
      </trkpt>
      <trkpt lat="48.45395" lon="2.4831">
        <ele>64.55</ele>
        <time>2021-10-23T14:52:59Z</time>
      </trkpt>
      <trkpt lat="48.454" lon="2.48312">
        <ele>64.55</ele>
        <time>2021-10-23T14:53:07Z</time>
      </trkpt>
      <trkpt lat="48.45409" lon="2.48321">
        <ele>64.07</ele>
        <time>2021-10-23T14:53:22Z</time>
      </trkpt>
      <trkpt lat="48.45409" lon="2.48321">
        <ele>64.07</ele>
        <time>2021-10-23T14:53:27Z</time>
      </trkpt>
      <trkpt lat="48.45421" lon="2.48345">
        <ele>62.14</ele>
        <time>2021-10-23T14:53:46Z</time>
      </trkpt>
      <trkpt lat="48.45433" lon="2.4836">
        <ele>61.66</ele>
        <time>2021-10-23T14:54:01Z</time>
      </trkpt>
      <trkpt lat="48.45438" lon="2.48363">
        <ele>61.18</ele>
        <time>2021-10-23T14:54:14Z</time>
      </trkpt>
      <trkpt lat="48.45446" lon="2.48369">
        <ele>61.18</ele>
        <time>2021-10-23T14:54:23Z</time>
      </trkpt>
      <trkpt lat="48.45458" lon="2.48388">
        <ele>60.7</ele>
        <time>2021-10-23T14:54:38Z</time>
      </trkpt>
      <trkpt lat="48.45462" lon="2.48392">
        <ele>60.22</ele>
        <time>2021-10-23T14:54:51Z</time>
      </trkpt>
      <trkpt lat="48.45465" lon="2.48395">
        <ele>60.22</ele>
        <time>2021-10-23T14:54:55Z</time>
      </trkpt>
      <trkpt lat="48.45471" lon="2.48403">
        <ele>59.74</ele>
        <time>2021-10-23T14:55:02Z</time>
      </trkpt>
      <trkpt lat="48.45488" lon="2.48423">
        <ele>59.26</ele>
        <time>2021-10-23T14:55:20Z</time>
      </trkpt>
      <trkpt lat="48.45499" lon="2.48431">
        <ele>59.26</ele>
        <time>2021-10-23T14:55:31Z</time>
      </trkpt>
      <trkpt lat="48.45503" lon="2.48432">
        <ele>58.78</ele>
        <time>2021-10-23T14:55:35Z</time>
      </trkpt>
      <trkpt lat="48.45508" lon="2.48438">
        <ele>58.78</ele>
        <time>2021-10-23T14:55:40Z</time>
      </trkpt>
      <trkpt lat="48.45522" lon="2.48447">
        <ele>58.78</ele>
        <time>2021-10-23T14:55:54Z</time>
      </trkpt>
      <trkpt lat="48.45527" lon="2.48447">
        <ele>59.26</ele>
        <time>2021-10-23T14:55:57Z</time>
      </trkpt>
      <trkpt lat="48.45532" lon="2.48444">
        <ele>58.78</ele>
        <time>2021-10-23T14:56:04Z</time>
      </trkpt>
      <trkpt lat="48.45534" lon="2.48444">
        <ele>59.26</ele>
        <time>2021-10-23T14:56:07Z</time>
      </trkpt>
      <trkpt lat="48.45551" lon="2.48446">
        <ele>59.74</ele>
        <time>2021-10-23T14:56:22Z</time>
      </trkpt>
      <trkpt lat="48.45564" lon="2.48447">
        <ele>60.7</ele>
        <time>2021-10-23T14:56:38Z</time>
      </trkpt>
      <trkpt lat="48.45568" lon="2.48444">
        <ele>60.22</ele>
        <time>2021-10-23T14:56:56Z</time>
      </trkpt>
      <trkpt lat="48.45577" lon="2.48449">
        <ele>60.22</ele>
        <time>2021-10-23T14:57:19Z</time>
      </trkpt>
      <trkpt lat="48.45585" lon="2.48444">
        <ele>60.22</ele>
        <time>2021-10-23T14:57:34Z</time>
      </trkpt>
      <trkpt lat="48.45586" lon="2.48446">
        <ele>60.22</ele>
        <time>2021-10-23T14:57:50Z</time>
      </trkpt>
      <trkpt lat="48.45595" lon="2.48441">
        <ele>60.22</ele>
        <time>2021-10-23T14:58:02Z</time>
      </trkpt>
      <trkpt lat="48.45599" lon="2.48439">
        <ele>60.7</ele>
        <time>2021-10-23T14:58:07Z</time>
      </trkpt>
      <trkpt lat="48.45607" lon="2.48434">
        <ele>60.22</ele>
        <time>2021-10-23T14:58:21Z</time>
      </trkpt>
      <trkpt lat="48.4561" lon="2.48426">
        <ele>59.74</ele>
        <time>2021-10-23T14:58:42Z</time>
      </trkpt>
      <trkpt lat="48.45607" lon="2.48415">
        <ele>59.74</ele>
        <time>2021-10-23T14:58:54Z</time>
      </trkpt>
      <trkpt lat="48.45605" lon="2.48408">
        <ele>60.22</ele>
        <time>2021-10-23T14:59:00Z</time>
      </trkpt>
      <trkpt lat="48.45602" lon="2.4839">
        <ele>59.74</ele>
        <time>2021-10-23T14:59:13Z</time>
      </trkpt>
      <trkpt lat="48.456" lon="2.48379">
        <ele>59.74</ele>
        <time>2021-10-23T14:59:20Z</time>
      </trkpt>
      <trkpt lat="48.45597" lon="2.48357">
        <ele>59.74</ele>
        <time>2021-10-23T14:59:34Z</time>
      </trkpt>
      <trkpt lat="48.45594" lon="2.4833">
        <ele>60.7</ele>
        <time>2021-10-23T14:59:49Z</time>
      </trkpt>
      <trkpt lat="48.45589" lon="2.48309">
        <ele>60.7</ele>
        <time>2021-10-23T15:00:02Z</time>
      </trkpt>
      <trkpt lat="48.45585" lon="2.48285">
        <ele>60.7</ele>
        <time>2021-10-23T15:00:17Z</time>
      </trkpt>
      <trkpt lat="48.45583" lon="2.48272">
        <ele>60.22</ele>
        <time>2021-10-23T15:00:24Z</time>
      </trkpt>
      <trkpt lat="48.45578" lon="2.48246">
        <ele>60.22</ele>
        <time>2021-10-23T15:00:40Z</time>
      </trkpt>
      <trkpt lat="48.45576" lon="2.48235">
        <ele>60.7</ele>
        <time>2021-10-23T15:00:47Z</time>
      </trkpt>
      <trkpt lat="48.45572" lon="2.48228">
        <ele>60.7</ele>
        <time>2021-10-23T15:00:52Z</time>
      </trkpt>
      <trkpt lat="48.45568" lon="2.48204">
        <ele>60.7</ele>
        <time>2021-10-23T15:01:08Z</time>
      </trkpt>
      <trkpt lat="48.45561" lon="2.48177">
        <ele>61.18</ele>
        <time>2021-10-23T15:01:25Z</time>
      </trkpt>
      <trkpt lat="48.45556" lon="2.48154">
        <ele>61.18</ele>
        <time>2021-10-23T15:01:39Z</time>
      </trkpt>
      <trkpt lat="48.45552" lon="2.48143">
        <ele>61.66</ele>
        <time>2021-10-23T15:01:48Z</time>
      </trkpt>
      <trkpt lat="48.45545" lon="2.48124">
        <ele>61.66</ele>
        <time>2021-10-23T15:02:03Z</time>
      </trkpt>
      <trkpt lat="48.45538" lon="2.4811">
        <ele>60.7</ele>
        <time>2021-10-23T15:02:14Z</time>
      </trkpt>
      <trkpt lat="48.45528" lon="2.48093">
        <ele>60.7</ele>
        <time>2021-10-23T15:02:26Z</time>
      </trkpt>
      <trkpt lat="48.45516" lon="2.4808">
        <ele>61.18</ele>
        <time>2021-10-23T15:02:38Z</time>
      </trkpt>
      <trkpt lat="48.45505" lon="2.48062">
        <ele>60.7</ele>
        <time>2021-10-23T15:02:53Z</time>
      </trkpt>
      <trkpt lat="48.45496" lon="2.48039">
        <ele>60.7</ele>
        <time>2021-10-23T15:03:08Z</time>
      </trkpt>
      <trkpt lat="48.45492" lon="2.48032">
        <ele>61.18</ele>
        <time>2021-10-23T15:03:14Z</time>
      </trkpt>
      <trkpt lat="48.45491" lon="2.48031">
        <ele>61.18</ele>
        <time>2021-10-23T15:03:15Z</time>
      </trkpt>
      <trkpt lat="48.45491" lon="2.48029">
        <ele>61.18</ele>
        <time>2021-10-23T15:03:16Z</time>
      </trkpt>
      <trkpt lat="48.45485" lon="2.48011">
        <ele>61.18</ele>
        <time>2021-10-23T15:03:29Z</time>
      </trkpt>
      <trkpt lat="48.45479" lon="2.48006">
        <ele>61.18</ele>
        <time>2021-10-23T15:03:34Z</time>
      </trkpt>
      <trkpt lat="48.45478" lon="2.48005">
        <ele>60.7</ele>
        <time>2021-10-23T15:03:35Z</time>
      </trkpt>
      <trkpt lat="48.45477" lon="2.48003">
        <ele>60.7</ele>
        <time>2021-10-23T15:03:36Z</time>
      </trkpt>
      <trkpt lat="48.45475" lon="2.48">
        <ele>60.7</ele>
        <time>2021-10-23T15:03:40Z</time>
      </trkpt>
      <trkpt lat="48.45474" lon="2.47999">
        <ele>60.7</ele>
        <time>2021-10-23T15:03:41Z</time>
      </trkpt>
      <trkpt lat="48.45464" lon="2.47979">
        <ele>61.66</ele>
        <time>2021-10-23T15:03:57Z</time>
      </trkpt>
      <trkpt lat="48.45461" lon="2.47978">
        <ele>61.66</ele>
        <time>2021-10-23T15:04:13Z</time>
      </trkpt>
      <trkpt lat="48.4545" lon="2.47976">
        <ele>61.18</ele>
        <time>2021-10-23T15:04:35Z</time>
      </trkpt>
      <trkpt lat="48.45446" lon="2.47973">
        <ele>61.18</ele>
        <time>2021-10-23T15:04:57Z</time>
      </trkpt>
      <trkpt lat="48.45446" lon="2.47982">
        <ele>60.7</ele>
        <time>2021-10-23T15:05:17Z</time>
      </trkpt>
      <trkpt lat="48.45456" lon="2.47979">
        <ele>60.22</ele>
        <time>2021-10-23T15:05:46Z</time>
      </trkpt>
      <trkpt lat="48.45454" lon="2.47984">
        <ele>61.18</ele>
        <time>2021-10-23T15:06:05Z</time>
      </trkpt>
      <trkpt lat="48.45452" lon="2.47988">
        <ele>60.7</ele>
        <time>2021-10-23T15:06:39Z</time>
      </trkpt>
      <trkpt lat="48.45453" lon="2.4797">
        <ele>60.7</ele>
        <time>2021-10-23T15:07:01Z</time>
      </trkpt>
      <trkpt lat="48.45455" lon="2.47972">
        <ele>61.18</ele>
        <time>2021-10-23T15:07:19Z</time>
      </trkpt>
      <trkpt lat="48.45458" lon="2.4797">
        <ele>61.18</ele>
        <time>2021-10-23T15:07:50Z</time>
      </trkpt>
      <trkpt lat="48.45454" lon="2.47958">
        <ele>61.18</ele>
        <time>2021-10-23T15:07:59Z</time>
      </trkpt>
      <trkpt lat="48.45452" lon="2.47949">
        <ele>61.18</ele>
        <time>2021-10-23T15:08:04Z</time>
      </trkpt>
      <trkpt lat="48.45441" lon="2.47926">
        <ele>61.66</ele>
        <time>2021-10-23T15:08:19Z</time>
      </trkpt>
      <trkpt lat="48.45431" lon="2.47914">
        <ele>61.66</ele>
        <time>2021-10-23T15:08:33Z</time>
      </trkpt>
      <trkpt lat="48.45421" lon="2.47902">
        <ele>61.66</ele>
        <time>2021-10-23T15:08:50Z</time>
      </trkpt>
      <trkpt lat="48.4541" lon="2.47885">
        <ele>61.66</ele>
        <time>2021-10-23T15:09:04Z</time>
      </trkpt>
      <trkpt lat="48.45393" lon="2.47869">
        <ele>61.18</ele>
        <time>2021-10-23T15:09:21Z</time>
      </trkpt>
      <trkpt lat="48.4538" lon="2.47853">
        <ele>61.18</ele>
        <time>2021-10-23T15:09:37Z</time>
      </trkpt>
      <trkpt lat="48.45367" lon="2.47839">
        <ele>61.18</ele>
        <time>2021-10-23T15:09:51Z</time>
      </trkpt>
      <trkpt lat="48.45354" lon="2.47824">
        <ele>61.18</ele>
        <time>2021-10-23T15:10:07Z</time>
      </trkpt>
      <trkpt lat="48.45343" lon="2.4781">
        <ele>61.18</ele>
        <time>2021-10-23T15:10:19Z</time>
      </trkpt>
      <trkpt lat="48.45342" lon="2.47807">
        <ele>60.7</ele>
        <time>2021-10-23T15:10:20Z</time>
      </trkpt>
      <trkpt lat="48.45341" lon="2.47806">
        <ele>60.7</ele>
        <time>2021-10-23T15:10:21Z</time>
      </trkpt>
      <trkpt lat="48.45322" lon="2.47789">
        <ele>60.7</ele>
        <time>2021-10-23T15:10:39Z</time>
      </trkpt>
      <trkpt lat="48.45304" lon="2.47778">
        <ele>61.18</ele>
        <time>2021-10-23T15:10:55Z</time>
      </trkpt>
      <trkpt lat="48.453" lon="2.47776">
        <ele>60.7</ele>
        <time>2021-10-23T15:10:58Z</time>
      </trkpt>
      <trkpt lat="48.45298" lon="2.47779">
        <ele>60.7</ele>
        <time>2021-10-23T15:11:00Z</time>
      </trkpt>
      <trkpt lat="48.45296" lon="2.47781">
        <ele>60.7</ele>
        <time>2021-10-23T15:11:01Z</time>
      </trkpt>
      <trkpt lat="48.45295" lon="2.47782">
        <ele>60.7</ele>
        <time>2021-10-23T15:11:02Z</time>
      </trkpt>
      <trkpt lat="48.45294" lon="2.47784">
        <ele>61.18</ele>
        <time>2021-10-23T15:11:03Z</time>
      </trkpt>
      <trkpt lat="48.45294" lon="2.47785">
        <ele>61.18</ele>
        <time>2021-10-23T15:11:04Z</time>
      </trkpt>
      <trkpt lat="48.45292" lon="2.47791">
        <ele>60.7</ele>
        <time>2021-10-23T15:11:08Z</time>
      </trkpt>
      <trkpt lat="48.45287" lon="2.47799">
        <ele>60.22</ele>
        <time>2021-10-23T15:11:16Z</time>
      </trkpt>
      <trkpt lat="48.45286" lon="2.478">
        <ele>60.22</ele>
        <time>2021-10-23T15:11:17Z</time>
      </trkpt>
      <trkpt lat="48.45273" lon="2.47817">
        <ele>60.7</ele>
        <time>2021-10-23T15:11:32Z</time>
      </trkpt>
      <trkpt lat="48.45267" lon="2.47833">
        <ele>61.18</ele>
        <time>2021-10-23T15:11:44Z</time>
      </trkpt>
      <trkpt lat="48.4526" lon="2.47854">
        <ele>60.7</ele>
        <time>2021-10-23T15:11:58Z</time>
      </trkpt>
      <trkpt lat="48.4526" lon="2.47867">
        <ele>61.18</ele>
        <time>2021-10-23T15:12:05Z</time>
      </trkpt>
      <trkpt lat="48.4526" lon="2.47869">
        <ele>60.7</ele>
        <time>2021-10-23T15:12:06Z</time>
      </trkpt>
      <trkpt lat="48.4526" lon="2.47872">
        <ele>60.7</ele>
        <time>2021-10-23T15:12:07Z</time>
      </trkpt>
      <trkpt lat="48.4526" lon="2.4788">
        <ele>60.7</ele>
        <time>2021-10-23T15:12:12Z</time>
      </trkpt>
      <trkpt lat="48.4526" lon="2.47883">
        <ele>61.18</ele>
        <time>2021-10-23T15:12:13Z</time>
      </trkpt>
      <trkpt lat="48.4526" lon="2.47885">
        <ele>61.18</ele>
        <time>2021-10-23T15:12:14Z</time>
      </trkpt>
      <trkpt lat="48.45263" lon="2.47895">
        <ele>61.18</ele>
        <time>2021-10-23T15:12:20Z</time>
      </trkpt>
      <trkpt lat="48.45265" lon="2.47898">
        <ele>60.7</ele>
        <time>2021-10-23T15:12:21Z</time>
      </trkpt>
      <trkpt lat="48.45265" lon="2.479">
        <ele>61.18</ele>
        <time>2021-10-23T15:12:22Z</time>
      </trkpt>
      <trkpt lat="48.45275" lon="2.47915">
        <ele>61.18</ele>
        <time>2021-10-23T15:12:35Z</time>
      </trkpt>
      <trkpt lat="48.45288" lon="2.47931">
        <ele>60.7</ele>
        <time>2021-10-23T15:12:50Z</time>
      </trkpt>
      <trkpt lat="48.45299" lon="2.47943">
        <ele>60.7</ele>
        <time>2021-10-23T15:13:04Z</time>
      </trkpt>
      <trkpt lat="48.45311" lon="2.47955">
        <ele>60.7</ele>
        <time>2021-10-23T15:13:17Z</time>
      </trkpt>
      <trkpt lat="48.45312" lon="2.47957">
        <ele>60.7</ele>
        <time>2021-10-23T15:13:19Z</time>
      </trkpt>
      <trkpt lat="48.45313" lon="2.47958">
        <ele>60.7</ele>
        <time>2021-10-23T15:13:20Z</time>
      </trkpt>
      <trkpt lat="48.45313" lon="2.4796">
        <ele>60.7</ele>
        <time>2021-10-23T15:13:21Z</time>
      </trkpt>
      <trkpt lat="48.45324" lon="2.47973">
        <ele>60.22</ele>
        <time>2021-10-23T15:13:36Z</time>
      </trkpt>
      <trkpt lat="48.45326" lon="2.47974">
        <ele>60.7</ele>
        <time>2021-10-23T15:13:37Z</time>
      </trkpt>
      <trkpt lat="48.45327" lon="2.47976">
        <ele>60.22</ele>
        <time>2021-10-23T15:13:38Z</time>
      </trkpt>
      <trkpt lat="48.45336" lon="2.47988">
        <ele>60.22</ele>
        <time>2021-10-23T15:13:52Z</time>
      </trkpt>
      <trkpt lat="48.45338" lon="2.4799">
        <ele>60.22</ele>
        <time>2021-10-23T15:13:55Z</time>
      </trkpt>
      <trkpt lat="48.45339" lon="2.47991">
        <ele>60.22</ele>
        <time>2021-10-23T15:13:56Z</time>
      </trkpt>
      <trkpt lat="48.45345" lon="2.48">
        <ele>60.22</ele>
        <time>2021-10-23T15:14:05Z</time>
      </trkpt>
      <trkpt lat="48.45349" lon="2.4801">
        <ele>60.22</ele>
        <time>2021-10-23T15:14:15Z</time>
      </trkpt>
      <trkpt lat="48.45351" lon="2.48014">
        <ele>60.22</ele>
        <time>2021-10-23T15:14:19Z</time>
      </trkpt>
      <trkpt lat="48.45363" lon="2.48027">
        <ele>59.74</ele>
        <time>2021-10-23T15:14:33Z</time>
      </trkpt>
      <trkpt lat="48.45363" lon="2.48027">
        <ele>59.74</ele>
        <time>2021-10-23T15:14:34Z</time>
      </trkpt>
      <trkpt lat="48.45323" lon="2.47972">
        <ele>56.86</ele>
        <time>2021-10-23T15:14:51Z</time>
      </trkpt>
      <trkpt lat="48.45369" lon="2.4803">
        <ele>56.86</ele>
        <time>2021-10-23T15:14:52Z</time>
      </trkpt>
      <trkpt lat="48.4537" lon="2.48037">
        <ele>56.86</ele>
        <time>2021-10-23T15:15:07Z</time>
      </trkpt>
    </trkseg>
  </trk>
</gpx>